<?xml version="1.0" encoding="UTF-8" standalone="no" ?>
<gpx xmlns="http://www.topografix.com/GPX/1/1" xmlns:xsi="http://www.w3.org/2001/XMLSchema-instance" xsi:schemaLocation="http://www.topografix.com/GPX/1/1 http://www.topografix.com/GPX/1/1/gpx.xsd" version="1.1" creator="VisuGPX - https://www.visugpx.com">
  <metadata>
    <name>Loriol - Soyons</name>
    <desc><![CDATA[La première étape des Chemins du Soleil en sens contraire ! !]]></desc>
  </metadata>
  <trk>
    <name><![CDATA[TracÃ© actuel: 08 SEP 2012 17:44]]></name>
    <trkseg>
      <trkpt lat="44.76137" lon="4.81434">
        <ele>127</ele>
        <time>2012-09-08T15:44:52Z</time>
      </trkpt>
      <trkpt lat="44.76137" lon="4.81434">
        <ele>126</ele>
        <time>2012-09-08T15:45:08Z</time>
      </trkpt>
      <trkpt lat="44.76136" lon="4.81435">
        <ele>126</ele>
        <time>2012-09-08T15:45:22Z</time>
      </trkpt>
      <trkpt lat="44.76136" lon="4.81435">
        <ele>126</ele>
        <time>2012-09-08T15:45:37Z</time>
      </trkpt>
      <trkpt lat="44.76137" lon="4.81433">
        <ele>126</ele>
        <time>2012-09-08T15:45:52Z</time>
      </trkpt>
      <trkpt lat="44.76136" lon="4.81432">
        <ele>126</ele>
        <time>2012-09-08T15:46:07Z</time>
      </trkpt>
      <trkpt lat="44.76136" lon="4.81433">
        <ele>126</ele>
        <time>2012-09-08T15:46:23Z</time>
      </trkpt>
      <trkpt lat="44.76137" lon="4.81434">
        <ele>126</ele>
        <time>2012-09-08T15:46:35Z</time>
      </trkpt>
      <trkpt lat="44.76137" lon="4.81432">
        <ele>127</ele>
        <time>2012-09-08T15:46:45Z</time>
      </trkpt>
      <trkpt lat="44.76137" lon="4.81432">
        <ele>126</ele>
        <time>2012-09-08T15:46:55Z</time>
      </trkpt>
      <trkpt lat="44.76137" lon="4.81432">
        <ele>126</ele>
        <time>2012-09-08T15:47:05Z</time>
      </trkpt>
      <trkpt lat="44.7613" lon="4.81437">
        <ele>126</ele>
        <time>2012-09-08T15:47:11Z</time>
      </trkpt>
      <trkpt lat="44.76129" lon="4.81458">
        <ele>126</ele>
        <time>2012-09-08T15:47:15Z</time>
      </trkpt>
      <trkpt lat="44.76127" lon="4.81486">
        <ele>126</ele>
        <time>2012-09-08T15:47:20Z</time>
      </trkpt>
      <trkpt lat="44.76126" lon="4.81509">
        <ele>126</ele>
        <time>2012-09-08T15:47:25Z</time>
      </trkpt>
      <trkpt lat="44.76129" lon="4.81511">
        <ele>126</ele>
        <time>2012-09-08T15:47:26Z</time>
      </trkpt>
      <trkpt lat="44.76133" lon="4.81513">
        <ele>126</ele>
        <time>2012-09-08T15:47:27Z</time>
      </trkpt>
      <trkpt lat="44.76172" lon="4.81512">
        <ele>127</ele>
        <time>2012-09-08T15:47:35Z</time>
      </trkpt>
      <trkpt lat="44.76229" lon="4.81503">
        <ele>127</ele>
        <time>2012-09-08T15:47:47Z</time>
      </trkpt>
      <trkpt lat="44.76277" lon="4.81497">
        <ele>126</ele>
        <time>2012-09-08T15:47:57Z</time>
      </trkpt>
      <trkpt lat="44.76334" lon="4.81498">
        <ele>127</ele>
        <time>2012-09-08T15:48:09Z</time>
      </trkpt>
      <trkpt lat="44.76369" lon="4.81496">
        <ele>127</ele>
        <time>2012-09-08T15:48:16Z</time>
      </trkpt>
      <trkpt lat="44.76421" lon="4.81499">
        <ele>126</ele>
        <time>2012-09-08T15:48:26Z</time>
      </trkpt>
      <trkpt lat="44.76454" lon="4.81505">
        <ele>125</ele>
        <time>2012-09-08T15:48:32Z</time>
      </trkpt>
      <trkpt lat="44.76459" lon="4.81507">
        <ele>125</ele>
        <time>2012-09-08T15:48:33Z</time>
      </trkpt>
      <trkpt lat="44.76498" lon="4.81533">
        <ele>125</ele>
        <time>2012-09-08T15:48:41Z</time>
      </trkpt>
      <trkpt lat="44.7655" lon="4.81575">
        <ele>125</ele>
        <time>2012-09-08T15:48:52Z</time>
      </trkpt>
      <trkpt lat="44.76558" lon="4.81584">
        <ele>125</ele>
        <time>2012-09-08T15:48:54Z</time>
      </trkpt>
      <trkpt lat="44.76561" lon="4.8159">
        <ele>125</ele>
        <time>2012-09-08T15:48:55Z</time>
      </trkpt>
      <trkpt lat="44.76564" lon="4.81597">
        <ele>125</ele>
        <time>2012-09-08T15:48:56Z</time>
      </trkpt>
      <trkpt lat="44.76566" lon="4.81604">
        <ele>126</ele>
        <time>2012-09-08T15:48:57Z</time>
      </trkpt>
      <trkpt lat="44.76567" lon="4.81611">
        <ele>125</ele>
        <time>2012-09-08T15:48:58Z</time>
      </trkpt>
      <trkpt lat="44.76567" lon="4.81619">
        <ele>126</ele>
        <time>2012-09-08T15:48:59Z</time>
      </trkpt>
      <trkpt lat="44.76566" lon="4.81626">
        <ele>126</ele>
        <time>2012-09-08T15:49:00Z</time>
      </trkpt>
      <trkpt lat="44.76565" lon="4.81633">
        <ele>126</ele>
        <time>2012-09-08T15:49:01Z</time>
      </trkpt>
      <trkpt lat="44.76564" lon="4.8164">
        <ele>126</ele>
        <time>2012-09-08T15:49:02Z</time>
      </trkpt>
      <trkpt lat="44.76551" lon="4.8172">
        <ele>126</ele>
        <time>2012-09-08T15:49:14Z</time>
      </trkpt>
      <trkpt lat="44.76544" lon="4.818">
        <ele>126</ele>
        <time>2012-09-08T15:49:26Z</time>
      </trkpt>
      <trkpt lat="44.76549" lon="4.81852">
        <ele>127</ele>
        <time>2012-09-08T15:49:34Z</time>
      </trkpt>
      <trkpt lat="44.76567" lon="4.81916">
        <ele>127</ele>
        <time>2012-09-08T15:49:44Z</time>
      </trkpt>
      <trkpt lat="44.76577" lon="4.81947">
        <ele>127</ele>
        <time>2012-09-08T15:49:49Z</time>
      </trkpt>
      <trkpt lat="44.7658" lon="4.81954">
        <ele>127</ele>
        <time>2012-09-08T15:49:50Z</time>
      </trkpt>
      <trkpt lat="44.76594" lon="4.82018">
        <ele>127</ele>
        <time>2012-09-08T15:50:00Z</time>
      </trkpt>
      <trkpt lat="44.766" lon="4.82078">
        <ele>127</ele>
        <time>2012-09-08T15:50:09Z</time>
      </trkpt>
      <trkpt lat="44.76603" lon="4.82148">
        <ele>127</ele>
        <time>2012-09-08T15:50:19Z</time>
      </trkpt>
      <trkpt lat="44.76603" lon="4.82202">
        <ele>127</ele>
        <time>2012-09-08T15:50:27Z</time>
      </trkpt>
      <trkpt lat="44.76605" lon="4.82207">
        <ele>127</ele>
        <time>2012-09-08T15:50:28Z</time>
      </trkpt>
      <trkpt lat="44.76608" lon="4.82209">
        <ele>127</ele>
        <time>2012-09-08T15:50:29Z</time>
      </trkpt>
      <trkpt lat="44.76611" lon="4.8221">
        <ele>127</ele>
        <time>2012-09-08T15:50:30Z</time>
      </trkpt>
      <trkpt lat="44.76615" lon="4.8221">
        <ele>127</ele>
        <time>2012-09-08T15:50:31Z</time>
      </trkpt>
      <trkpt lat="44.76618" lon="4.8221">
        <ele>127</ele>
        <time>2012-09-08T15:50:32Z</time>
      </trkpt>
      <trkpt lat="44.7662" lon="4.82213">
        <ele>127</ele>
        <time>2012-09-08T15:50:33Z</time>
      </trkpt>
      <trkpt lat="44.76621" lon="4.82217">
        <ele>127</ele>
        <time>2012-09-08T15:50:34Z</time>
      </trkpt>
      <trkpt lat="44.76622" lon="4.82221">
        <ele>127</ele>
        <time>2012-09-08T15:50:35Z</time>
      </trkpt>
      <trkpt lat="44.76622" lon="4.82225">
        <ele>127</ele>
        <time>2012-09-08T15:50:36Z</time>
      </trkpt>
      <trkpt lat="44.76622" lon="4.82228">
        <ele>126</ele>
        <time>2012-09-08T15:50:41Z</time>
      </trkpt>
      <trkpt lat="44.76622" lon="4.82232">
        <ele>126</ele>
        <time>2012-09-08T15:50:47Z</time>
      </trkpt>
      <trkpt lat="44.76621" lon="4.82238">
        <ele>125</ele>
        <time>2012-09-08T15:50:54Z</time>
      </trkpt>
      <trkpt lat="44.76622" lon="4.82241">
        <ele>125</ele>
        <time>2012-09-08T15:50:55Z</time>
      </trkpt>
      <trkpt lat="44.76622" lon="4.82243">
        <ele>126</ele>
        <time>2012-09-08T15:50:56Z</time>
      </trkpt>
      <trkpt lat="44.76632" lon="4.82247">
        <ele>125</ele>
        <time>2012-09-08T15:51:01Z</time>
      </trkpt>
      <trkpt lat="44.76654" lon="4.82258">
        <ele>125</ele>
        <time>2012-09-08T15:51:09Z</time>
      </trkpt>
      <trkpt lat="44.76678" lon="4.82267">
        <ele>125</ele>
        <time>2012-09-08T15:51:17Z</time>
      </trkpt>
      <trkpt lat="44.76703" lon="4.82276">
        <ele>125</ele>
        <time>2012-09-08T15:51:26Z</time>
      </trkpt>
      <trkpt lat="44.76711" lon="4.8228">
        <ele>125</ele>
        <time>2012-09-08T15:51:29Z</time>
      </trkpt>
      <trkpt lat="44.76716" lon="4.82301">
        <ele>125</ele>
        <time>2012-09-08T15:51:35Z</time>
      </trkpt>
      <trkpt lat="44.76729" lon="4.8232">
        <ele>125</ele>
        <time>2012-09-08T15:51:41Z</time>
      </trkpt>
      <trkpt lat="44.76746" lon="4.82328">
        <ele>125</ele>
        <time>2012-09-08T15:51:46Z</time>
      </trkpt>
      <trkpt lat="44.76775" lon="4.82341">
        <ele>125</ele>
        <time>2012-09-08T15:51:54Z</time>
      </trkpt>
      <trkpt lat="44.76802" lon="4.82355">
        <ele>125</ele>
        <time>2012-09-08T15:52:01Z</time>
      </trkpt>
      <trkpt lat="44.76826" lon="4.82367">
        <ele>125</ele>
        <time>2012-09-08T15:52:07Z</time>
      </trkpt>
      <trkpt lat="44.76852" lon="4.8238">
        <ele>126</ele>
        <time>2012-09-08T15:52:14Z</time>
      </trkpt>
      <trkpt lat="44.76868" lon="4.82385">
        <ele>128</ele>
        <time>2012-09-08T15:52:19Z</time>
      </trkpt>
      <trkpt lat="44.76874" lon="4.82389">
        <ele>128</ele>
        <time>2012-09-08T15:52:22Z</time>
      </trkpt>
      <trkpt lat="44.76874" lon="4.82393">
        <ele>128</ele>
        <time>2012-09-08T15:52:23Z</time>
      </trkpt>
      <trkpt lat="44.76874" lon="4.82397">
        <ele>128</ele>
        <time>2012-09-08T15:52:24Z</time>
      </trkpt>
      <trkpt lat="44.76874" lon="4.82401">
        <ele>129</ele>
        <time>2012-09-08T15:52:25Z</time>
      </trkpt>
      <trkpt lat="44.76872" lon="4.82405">
        <ele>128</ele>
        <time>2012-09-08T15:52:26Z</time>
      </trkpt>
      <trkpt lat="44.76871" lon="4.8241">
        <ele>128</ele>
        <time>2012-09-08T15:52:27Z</time>
      </trkpt>
      <trkpt lat="44.76861" lon="4.82443">
        <ele>129</ele>
        <time>2012-09-08T15:52:34Z</time>
      </trkpt>
      <trkpt lat="44.76844" lon="4.82496">
        <ele>129</ele>
        <time>2012-09-08T15:52:45Z</time>
      </trkpt>
      <trkpt lat="44.7683" lon="4.82543">
        <ele>129</ele>
        <time>2012-09-08T15:52:55Z</time>
      </trkpt>
      <trkpt lat="44.76813" lon="4.82594">
        <ele>129</ele>
        <time>2012-09-08T15:53:05Z</time>
      </trkpt>
      <trkpt lat="44.76795" lon="4.8265">
        <ele>129</ele>
        <time>2012-09-08T15:53:16Z</time>
      </trkpt>
      <trkpt lat="44.76776" lon="4.82706">
        <ele>129</ele>
        <time>2012-09-08T15:53:27Z</time>
      </trkpt>
      <trkpt lat="44.7676" lon="4.82757">
        <ele>129</ele>
        <time>2012-09-08T15:53:37Z</time>
      </trkpt>
      <trkpt lat="44.76745" lon="4.82803">
        <ele>129</ele>
        <time>2012-09-08T15:53:46Z</time>
      </trkpt>
      <trkpt lat="44.76743" lon="4.82809">
        <ele>130</ele>
        <time>2012-09-08T15:53:47Z</time>
      </trkpt>
      <trkpt lat="44.76742" lon="4.82814">
        <ele>130</ele>
        <time>2012-09-08T15:53:48Z</time>
      </trkpt>
      <trkpt lat="44.76721" lon="4.82864">
        <ele>130</ele>
        <time>2012-09-08T15:53:58Z</time>
      </trkpt>
      <trkpt lat="44.76714" lon="4.82878">
        <ele>130</ele>
        <time>2012-09-08T15:54:01Z</time>
      </trkpt>
      <trkpt lat="44.76711" lon="4.82882">
        <ele>130</ele>
        <time>2012-09-08T15:54:02Z</time>
      </trkpt>
      <trkpt lat="44.76683" lon="4.82925">
        <ele>130</ele>
        <time>2012-09-08T15:54:12Z</time>
      </trkpt>
      <trkpt lat="44.76659" lon="4.82956">
        <ele>130</ele>
        <time>2012-09-08T15:54:20Z</time>
      </trkpt>
      <trkpt lat="44.7663" lon="4.82993">
        <ele>130</ele>
        <time>2012-09-08T15:54:30Z</time>
      </trkpt>
      <trkpt lat="44.76605" lon="4.83031">
        <ele>130</ele>
        <time>2012-09-08T15:54:39Z</time>
      </trkpt>
      <trkpt lat="44.76586" lon="4.83076">
        <ele>130</ele>
        <time>2012-09-08T15:54:48Z</time>
      </trkpt>
      <trkpt lat="44.76575" lon="4.83121">
        <ele>130</ele>
        <time>2012-09-08T15:54:56Z</time>
      </trkpt>
      <trkpt lat="44.76564" lon="4.83173">
        <ele>130</ele>
        <time>2012-09-08T15:55:05Z</time>
      </trkpt>
      <trkpt lat="44.76552" lon="4.83229">
        <ele>131</ele>
        <time>2012-09-08T15:55:15Z</time>
      </trkpt>
      <trkpt lat="44.76539" lon="4.83293">
        <ele>131</ele>
        <time>2012-09-08T15:55:26Z</time>
      </trkpt>
      <trkpt lat="44.76525" lon="4.83361">
        <ele>131</ele>
        <time>2012-09-08T15:55:38Z</time>
      </trkpt>
      <trkpt lat="44.76517" lon="4.83419">
        <ele>130</ele>
        <time>2012-09-08T15:55:48Z</time>
      </trkpt>
      <trkpt lat="44.76516" lon="4.83431">
        <ele>131</ele>
        <time>2012-09-08T15:55:50Z</time>
      </trkpt>
      <trkpt lat="44.76516" lon="4.83444">
        <ele>131</ele>
        <time>2012-09-08T15:55:52Z</time>
      </trkpt>
      <trkpt lat="44.76516" lon="4.8345">
        <ele>131</ele>
        <time>2012-09-08T15:55:53Z</time>
      </trkpt>
      <trkpt lat="44.76516" lon="4.83456">
        <ele>131</ele>
        <time>2012-09-08T15:55:54Z</time>
      </trkpt>
      <trkpt lat="44.76519" lon="4.83504">
        <ele>131</ele>
        <time>2012-09-08T15:56:02Z</time>
      </trkpt>
      <trkpt lat="44.76525" lon="4.83558">
        <ele>131</ele>
        <time>2012-09-08T15:56:11Z</time>
      </trkpt>
      <trkpt lat="44.76531" lon="4.83616">
        <ele>131</ele>
        <time>2012-09-08T15:56:21Z</time>
      </trkpt>
      <trkpt lat="44.76536" lon="4.8367">
        <ele>131</ele>
        <time>2012-09-08T15:56:30Z</time>
      </trkpt>
      <trkpt lat="44.76542" lon="4.8373">
        <ele>131</ele>
        <time>2012-09-08T15:56:40Z</time>
      </trkpt>
      <trkpt lat="44.7655" lon="4.83802">
        <ele>131</ele>
        <time>2012-09-08T15:56:52Z</time>
      </trkpt>
      <trkpt lat="44.76555" lon="4.83837">
        <ele>131</ele>
        <time>2012-09-08T15:56:59Z</time>
      </trkpt>
      <trkpt lat="44.76556" lon="4.83838">
        <ele>131</ele>
        <time>2012-09-08T15:57:00Z</time>
      </trkpt>
      <trkpt lat="44.76558" lon="4.8384">
        <ele>130</ele>
        <time>2012-09-08T15:57:01Z</time>
      </trkpt>
      <trkpt lat="44.76558" lon="4.83843">
        <ele>130</ele>
        <time>2012-09-08T15:57:02Z</time>
      </trkpt>
      <trkpt lat="44.76558" lon="4.83846">
        <ele>131</ele>
        <time>2012-09-08T15:57:03Z</time>
      </trkpt>
      <trkpt lat="44.76558" lon="4.83849">
        <ele>131</ele>
        <time>2012-09-08T15:57:04Z</time>
      </trkpt>
      <trkpt lat="44.76559" lon="4.83853">
        <ele>131</ele>
        <time>2012-09-08T15:57:05Z</time>
      </trkpt>
      <trkpt lat="44.7656" lon="4.83857">
        <ele>131</ele>
        <time>2012-09-08T15:57:06Z</time>
      </trkpt>
      <trkpt lat="44.7656" lon="4.8386">
        <ele>131</ele>
        <time>2012-09-08T15:57:07Z</time>
      </trkpt>
      <trkpt lat="44.7656" lon="4.83864">
        <ele>131</ele>
        <time>2012-09-08T15:57:08Z</time>
      </trkpt>
      <trkpt lat="44.76559" lon="4.83867">
        <ele>131</ele>
        <time>2012-09-08T15:57:09Z</time>
      </trkpt>
      <trkpt lat="44.76553" lon="4.83883">
        <ele>131</ele>
        <time>2012-09-08T15:57:14Z</time>
      </trkpt>
      <trkpt lat="44.76541" lon="4.83905">
        <ele>130</ele>
        <time>2012-09-08T15:57:21Z</time>
      </trkpt>
      <trkpt lat="44.76528" lon="4.83935">
        <ele>130</ele>
        <time>2012-09-08T15:57:28Z</time>
      </trkpt>
      <trkpt lat="44.76524" lon="4.83937">
        <ele>130</ele>
        <time>2012-09-08T15:57:29Z</time>
      </trkpt>
      <trkpt lat="44.7652" lon="4.83936">
        <ele>130</ele>
        <time>2012-09-08T15:57:30Z</time>
      </trkpt>
      <trkpt lat="44.7648" lon="4.83924">
        <ele>131</ele>
        <time>2012-09-08T15:57:40Z</time>
      </trkpt>
      <trkpt lat="44.76443" lon="4.83914">
        <ele>131</ele>
        <time>2012-09-08T15:57:49Z</time>
      </trkpt>
      <trkpt lat="44.76407" lon="4.83905">
        <ele>131</ele>
        <time>2012-09-08T15:57:58Z</time>
      </trkpt>
      <trkpt lat="44.76392" lon="4.83906">
        <ele>132</ele>
        <time>2012-09-08T15:58:03Z</time>
      </trkpt>
      <trkpt lat="44.76391" lon="4.83909">
        <ele>133</ele>
        <time>2012-09-08T15:58:04Z</time>
      </trkpt>
      <trkpt lat="44.76392" lon="4.83912">
        <ele>133</ele>
        <time>2012-09-08T15:58:05Z</time>
      </trkpt>
      <trkpt lat="44.76394" lon="4.83914">
        <ele>133</ele>
        <time>2012-09-08T15:58:06Z</time>
      </trkpt>
      <trkpt lat="44.76396" lon="4.83915">
        <ele>133</ele>
        <time>2012-09-08T15:58:07Z</time>
      </trkpt>
      <trkpt lat="44.76399" lon="4.83917">
        <ele>133</ele>
        <time>2012-09-08T15:58:08Z</time>
      </trkpt>
      <trkpt lat="44.76433" lon="4.83928">
        <ele>134</ele>
        <time>2012-09-08T15:58:18Z</time>
      </trkpt>
      <trkpt lat="44.76479" lon="4.83946">
        <ele>136</ele>
        <time>2012-09-08T15:58:31Z</time>
      </trkpt>
      <trkpt lat="44.76515" lon="4.83962">
        <ele>137</ele>
        <time>2012-09-08T15:58:42Z</time>
      </trkpt>
      <trkpt lat="44.76542" lon="4.83971">
        <ele>138</ele>
        <time>2012-09-08T15:58:50Z</time>
      </trkpt>
      <trkpt lat="44.76596" lon="4.83991">
        <ele>139</ele>
        <time>2012-09-08T15:59:05Z</time>
      </trkpt>
      <trkpt lat="44.76625" lon="4.84001">
        <ele>138</ele>
        <time>2012-09-08T15:59:11Z</time>
      </trkpt>
      <trkpt lat="44.76669" lon="4.84019">
        <ele>137</ele>
        <time>2012-09-08T15:59:20Z</time>
      </trkpt>
      <trkpt lat="44.76699" lon="4.8403">
        <ele>135</ele>
        <time>2012-09-08T15:59:28Z</time>
      </trkpt>
      <trkpt lat="44.76708" lon="4.84033">
        <ele>135</ele>
        <time>2012-09-08T15:59:30Z</time>
      </trkpt>
      <trkpt lat="44.76716" lon="4.84035">
        <ele>135</ele>
        <time>2012-09-08T15:59:32Z</time>
      </trkpt>
      <trkpt lat="44.7672" lon="4.84037">
        <ele>135</ele>
        <time>2012-09-08T15:59:33Z</time>
      </trkpt>
      <trkpt lat="44.76723" lon="4.84036">
        <ele>135</ele>
        <time>2012-09-08T15:59:34Z</time>
      </trkpt>
      <trkpt lat="44.76725" lon="4.84036">
        <ele>134</ele>
        <time>2012-09-08T15:59:35Z</time>
      </trkpt>
      <trkpt lat="44.76726" lon="4.84034">
        <ele>134</ele>
        <time>2012-09-08T15:59:36Z</time>
      </trkpt>
      <trkpt lat="44.76725" lon="4.84031">
        <ele>134</ele>
        <time>2012-09-08T15:59:37Z</time>
      </trkpt>
      <trkpt lat="44.76723" lon="4.84029">
        <ele>133</ele>
        <time>2012-09-08T15:59:38Z</time>
      </trkpt>
      <trkpt lat="44.7672" lon="4.84027">
        <ele>133</ele>
        <time>2012-09-08T15:59:39Z</time>
      </trkpt>
      <trkpt lat="44.76717" lon="4.84024">
        <ele>134</ele>
        <time>2012-09-08T15:59:40Z</time>
      </trkpt>
      <trkpt lat="44.76706" lon="4.84017">
        <ele>133</ele>
        <time>2012-09-08T15:59:43Z</time>
      </trkpt>
      <trkpt lat="44.76671" lon="4.84">
        <ele>131</ele>
        <time>2012-09-08T15:59:50Z</time>
      </trkpt>
      <trkpt lat="44.76656" lon="4.83993">
        <ele>131</ele>
        <time>2012-09-08T15:59:53Z</time>
      </trkpt>
      <trkpt lat="44.76652" lon="4.83991">
        <ele>131</ele>
        <time>2012-09-08T15:59:54Z</time>
      </trkpt>
      <trkpt lat="44.76649" lon="4.83988">
        <ele>131</ele>
        <time>2012-09-08T15:59:55Z</time>
      </trkpt>
      <trkpt lat="44.76646" lon="4.83984">
        <ele>131</ele>
        <time>2012-09-08T15:59:56Z</time>
      </trkpt>
      <trkpt lat="44.76644" lon="4.83979">
        <ele>131</ele>
        <time>2012-09-08T15:59:57Z</time>
      </trkpt>
      <trkpt lat="44.76643" lon="4.83974">
        <ele>130</ele>
        <time>2012-09-08T15:59:58Z</time>
      </trkpt>
      <trkpt lat="44.76643" lon="4.83969">
        <ele>130</ele>
        <time>2012-09-08T15:59:59Z</time>
      </trkpt>
      <trkpt lat="44.76646" lon="4.83946">
        <ele>129</ele>
        <time>2012-09-08T16:00:05Z</time>
      </trkpt>
      <trkpt lat="44.76647" lon="4.83939">
        <ele>129</ele>
        <time>2012-09-08T16:00:10Z</time>
      </trkpt>
      <trkpt lat="44.76645" lon="4.83937">
        <ele>129</ele>
        <time>2012-09-08T16:00:11Z</time>
      </trkpt>
      <trkpt lat="44.76644" lon="4.83934">
        <ele>129</ele>
        <time>2012-09-08T16:00:12Z</time>
      </trkpt>
      <trkpt lat="44.76639" lon="4.83912">
        <ele>130</ele>
        <time>2012-09-08T16:00:17Z</time>
      </trkpt>
      <trkpt lat="44.76641" lon="4.83901">
        <ele>130</ele>
        <time>2012-09-08T16:00:19Z</time>
      </trkpt>
      <trkpt lat="44.76645" lon="4.83874">
        <ele>131</ele>
        <time>2012-09-08T16:00:23Z</time>
      </trkpt>
      <trkpt lat="44.76648" lon="4.83861">
        <ele>131</ele>
        <time>2012-09-08T16:00:25Z</time>
      </trkpt>
      <trkpt lat="44.76658" lon="4.83815">
        <ele>131</ele>
        <time>2012-09-08T16:00:32Z</time>
      </trkpt>
      <trkpt lat="44.76671" lon="4.83763">
        <ele>130</ele>
        <time>2012-09-08T16:00:40Z</time>
      </trkpt>
      <trkpt lat="44.76685" lon="4.83702">
        <ele>131</ele>
        <time>2012-09-08T16:00:49Z</time>
      </trkpt>
      <trkpt lat="44.76702" lon="4.83634">
        <ele>130</ele>
        <time>2012-09-08T16:00:59Z</time>
      </trkpt>
      <trkpt lat="44.76721" lon="4.83555">
        <ele>130</ele>
        <time>2012-09-08T16:01:11Z</time>
      </trkpt>
      <trkpt lat="44.7673" lon="4.83517">
        <ele>130</ele>
        <time>2012-09-08T16:01:17Z</time>
      </trkpt>
      <trkpt lat="44.76733" lon="4.83505">
        <ele>130</ele>
        <time>2012-09-08T16:01:19Z</time>
      </trkpt>
      <trkpt lat="44.76743" lon="4.83459">
        <ele>129</ele>
        <time>2012-09-08T16:01:26Z</time>
      </trkpt>
      <trkpt lat="44.76751" lon="4.83427">
        <ele>129</ele>
        <time>2012-09-08T16:01:31Z</time>
      </trkpt>
      <trkpt lat="44.76752" lon="4.8342">
        <ele>129</ele>
        <time>2012-09-08T16:01:32Z</time>
      </trkpt>
      <trkpt lat="44.7676" lon="4.83387">
        <ele>129</ele>
        <time>2012-09-08T16:01:37Z</time>
      </trkpt>
      <trkpt lat="44.76766" lon="4.83359">
        <ele>128</ele>
        <time>2012-09-08T16:01:41Z</time>
      </trkpt>
      <trkpt lat="44.76768" lon="4.83352">
        <ele>128</ele>
        <time>2012-09-08T16:01:42Z</time>
      </trkpt>
      <trkpt lat="44.76782" lon="4.83284">
        <ele>128</ele>
        <time>2012-09-08T16:01:52Z</time>
      </trkpt>
      <trkpt lat="44.76788" lon="4.83265">
        <ele>128</ele>
        <time>2012-09-08T16:01:55Z</time>
      </trkpt>
      <trkpt lat="44.7679" lon="4.83259">
        <ele>128</ele>
        <time>2012-09-08T16:01:56Z</time>
      </trkpt>
      <trkpt lat="44.76791" lon="4.83252">
        <ele>128</ele>
        <time>2012-09-08T16:01:57Z</time>
      </trkpt>
      <trkpt lat="44.76793" lon="4.83245">
        <ele>128</ele>
        <time>2012-09-08T16:01:58Z</time>
      </trkpt>
      <trkpt lat="44.76794" lon="4.83239">
        <ele>128</ele>
        <time>2012-09-08T16:01:59Z</time>
      </trkpt>
      <trkpt lat="44.76796" lon="4.83233">
        <ele>128</ele>
        <time>2012-09-08T16:02:00Z</time>
      </trkpt>
      <trkpt lat="44.76808" lon="4.83175">
        <ele>128</ele>
        <time>2012-09-08T16:02:09Z</time>
      </trkpt>
      <trkpt lat="44.76821" lon="4.83122">
        <ele>128</ele>
        <time>2012-09-08T16:02:17Z</time>
      </trkpt>
      <trkpt lat="44.76834" lon="4.83067">
        <ele>128</ele>
        <time>2012-09-08T16:02:25Z</time>
      </trkpt>
      <trkpt lat="44.76841" lon="4.83035">
        <ele>127</ele>
        <time>2012-09-08T16:02:30Z</time>
      </trkpt>
      <trkpt lat="44.76842" lon="4.8303">
        <ele>127</ele>
        <time>2012-09-08T16:02:31Z</time>
      </trkpt>
      <trkpt lat="44.76844" lon="4.83024">
        <ele>127</ele>
        <time>2012-09-08T16:02:32Z</time>
      </trkpt>
      <trkpt lat="44.76851" lon="4.82997">
        <ele>127</ele>
        <time>2012-09-08T16:02:38Z</time>
      </trkpt>
      <trkpt lat="44.76858" lon="4.82972">
        <ele>127</ele>
        <time>2012-09-08T16:02:44Z</time>
      </trkpt>
      <trkpt lat="44.76863" lon="4.82949">
        <ele>127</ele>
        <time>2012-09-08T16:02:48Z</time>
      </trkpt>
      <trkpt lat="44.76874" lon="4.829">
        <ele>127</ele>
        <time>2012-09-08T16:02:56Z</time>
      </trkpt>
      <trkpt lat="44.76876" lon="4.82888">
        <ele>127</ele>
        <time>2012-09-08T16:02:58Z</time>
      </trkpt>
      <trkpt lat="44.76878" lon="4.82882">
        <ele>127</ele>
        <time>2012-09-08T16:02:59Z</time>
      </trkpt>
      <trkpt lat="44.76887" lon="4.82838">
        <ele>127</ele>
        <time>2012-09-08T16:03:06Z</time>
      </trkpt>
      <trkpt lat="44.76888" lon="4.82831">
        <ele>127</ele>
        <time>2012-09-08T16:03:07Z</time>
      </trkpt>
      <trkpt lat="44.76891" lon="4.82819">
        <ele>127</ele>
        <time>2012-09-08T16:03:09Z</time>
      </trkpt>
      <trkpt lat="44.76905" lon="4.82757">
        <ele>127</ele>
        <time>2012-09-08T16:03:19Z</time>
      </trkpt>
      <trkpt lat="44.76919" lon="4.82697">
        <ele>127</ele>
        <time>2012-09-08T16:03:30Z</time>
      </trkpt>
      <trkpt lat="44.7692" lon="4.82691">
        <ele>126</ele>
        <time>2012-09-08T16:03:31Z</time>
      </trkpt>
      <trkpt lat="44.76926" lon="4.82668">
        <ele>126</ele>
        <time>2012-09-08T16:03:35Z</time>
      </trkpt>
      <trkpt lat="44.76927" lon="4.82662">
        <ele>126</ele>
        <time>2012-09-08T16:03:36Z</time>
      </trkpt>
      <trkpt lat="44.76941" lon="4.82606">
        <ele>126</ele>
        <time>2012-09-08T16:03:45Z</time>
      </trkpt>
      <trkpt lat="44.76947" lon="4.82582">
        <ele>127</ele>
        <time>2012-09-08T16:03:49Z</time>
      </trkpt>
      <trkpt lat="44.76957" lon="4.82537">
        <ele>126</ele>
        <time>2012-09-08T16:03:57Z</time>
      </trkpt>
      <trkpt lat="44.76958" lon="4.82532">
        <ele>126</ele>
        <time>2012-09-08T16:03:58Z</time>
      </trkpt>
      <trkpt lat="44.76973" lon="4.82462">
        <ele>126</ele>
        <time>2012-09-08T16:04:10Z</time>
      </trkpt>
      <trkpt lat="44.76983" lon="4.82422">
        <ele>126</ele>
        <time>2012-09-08T16:04:17Z</time>
      </trkpt>
      <trkpt lat="44.76984" lon="4.82417">
        <ele>126</ele>
        <time>2012-09-08T16:04:18Z</time>
      </trkpt>
      <trkpt lat="44.76997" lon="4.82361">
        <ele>126</ele>
        <time>2012-09-08T16:04:27Z</time>
      </trkpt>
      <trkpt lat="44.77011" lon="4.82305">
        <ele>125</ele>
        <time>2012-09-08T16:04:36Z</time>
      </trkpt>
      <trkpt lat="44.77029" lon="4.82258">
        <ele>125</ele>
        <time>2012-09-08T16:04:44Z</time>
      </trkpt>
      <trkpt lat="44.7705" lon="4.8222">
        <ele>125</ele>
        <time>2012-09-08T16:04:51Z</time>
      </trkpt>
      <trkpt lat="44.77053" lon="4.82216">
        <ele>125</ele>
        <time>2012-09-08T16:04:52Z</time>
      </trkpt>
      <trkpt lat="44.77056" lon="4.82211">
        <ele>125</ele>
        <time>2012-09-08T16:04:53Z</time>
      </trkpt>
      <trkpt lat="44.77066" lon="4.82195">
        <ele>125</ele>
        <time>2012-09-08T16:04:56Z</time>
      </trkpt>
      <trkpt lat="44.7707" lon="4.8219">
        <ele>124</ele>
        <time>2012-09-08T16:04:57Z</time>
      </trkpt>
      <trkpt lat="44.7709" lon="4.82155">
        <ele>125</ele>
        <time>2012-09-08T16:05:04Z</time>
      </trkpt>
      <trkpt lat="44.77095" lon="4.82145">
        <ele>124</ele>
        <time>2012-09-08T16:05:09Z</time>
      </trkpt>
      <trkpt lat="44.77096" lon="4.82144">
        <ele>124</ele>
        <time>2012-09-08T16:05:19Z</time>
      </trkpt>
      <trkpt lat="44.77097" lon="4.82144">
        <ele>124</ele>
        <time>2012-09-08T16:05:27Z</time>
      </trkpt>
      <trkpt lat="44.77098" lon="4.82141">
        <ele>124</ele>
        <time>2012-09-08T16:05:34Z</time>
      </trkpt>
      <trkpt lat="44.77108" lon="4.82118">
        <ele>124</ele>
        <time>2012-09-08T16:05:41Z</time>
      </trkpt>
      <trkpt lat="44.77116" lon="4.82098">
        <ele>125</ele>
        <time>2012-09-08T16:05:45Z</time>
      </trkpt>
      <trkpt lat="44.77119" lon="4.82093">
        <ele>125</ele>
        <time>2012-09-08T16:05:46Z</time>
      </trkpt>
      <trkpt lat="44.77121" lon="4.82087">
        <ele>125</ele>
        <time>2012-09-08T16:05:47Z</time>
      </trkpt>
      <trkpt lat="44.7714" lon="4.82037">
        <ele>124</ele>
        <time>2012-09-08T16:05:56Z</time>
      </trkpt>
      <trkpt lat="44.77155" lon="4.81989">
        <ele>124</ele>
        <time>2012-09-08T16:06:04Z</time>
      </trkpt>
      <trkpt lat="44.77161" lon="4.8197">
        <ele>124</ele>
        <time>2012-09-08T16:06:07Z</time>
      </trkpt>
      <trkpt lat="44.77174" lon="4.81904">
        <ele>123</ele>
        <time>2012-09-08T16:06:17Z</time>
      </trkpt>
      <trkpt lat="44.77184" lon="4.8185">
        <ele>123</ele>
        <time>2012-09-08T16:06:25Z</time>
      </trkpt>
      <trkpt lat="44.7719" lon="4.81788">
        <ele>123</ele>
        <time>2012-09-08T16:06:34Z</time>
      </trkpt>
      <trkpt lat="44.77192" lon="4.81729">
        <ele>123</ele>
        <time>2012-09-08T16:06:43Z</time>
      </trkpt>
      <trkpt lat="44.77191" lon="4.81711">
        <ele>123</ele>
        <time>2012-09-08T16:06:46Z</time>
      </trkpt>
      <trkpt lat="44.7719" lon="4.81698">
        <ele>122</ele>
        <time>2012-09-08T16:06:48Z</time>
      </trkpt>
      <trkpt lat="44.7718" lon="4.81624">
        <ele>122</ele>
        <time>2012-09-08T16:06:59Z</time>
      </trkpt>
      <trkpt lat="44.77174" lon="4.81583">
        <ele>123</ele>
        <time>2012-09-08T16:07:05Z</time>
      </trkpt>
      <trkpt lat="44.77173" lon="4.81577">
        <ele>122</ele>
        <time>2012-09-08T16:07:06Z</time>
      </trkpt>
      <trkpt lat="44.77163" lon="4.81515">
        <ele>122</ele>
        <time>2012-09-08T16:07:15Z</time>
      </trkpt>
      <trkpt lat="44.77162" lon="4.81509">
        <ele>122</ele>
        <time>2012-09-08T16:07:16Z</time>
      </trkpt>
      <trkpt lat="44.77161" lon="4.81502">
        <ele>122</ele>
        <time>2012-09-08T16:07:17Z</time>
      </trkpt>
      <trkpt lat="44.77161" lon="4.81496">
        <ele>122</ele>
        <time>2012-09-08T16:07:18Z</time>
      </trkpt>
      <trkpt lat="44.7716" lon="4.81489">
        <ele>122</ele>
        <time>2012-09-08T16:07:19Z</time>
      </trkpt>
      <trkpt lat="44.7715" lon="4.81426">
        <ele>122</ele>
        <time>2012-09-08T16:07:29Z</time>
      </trkpt>
      <trkpt lat="44.77145" lon="4.814">
        <ele>122</ele>
        <time>2012-09-08T16:07:33Z</time>
      </trkpt>
      <trkpt lat="44.77144" lon="4.81394">
        <ele>122</ele>
        <time>2012-09-08T16:07:34Z</time>
      </trkpt>
      <trkpt lat="44.77136" lon="4.81343">
        <ele>122</ele>
        <time>2012-09-08T16:07:42Z</time>
      </trkpt>
      <trkpt lat="44.77127" lon="4.81305">
        <ele>121</ele>
        <time>2012-09-08T16:07:48Z</time>
      </trkpt>
      <trkpt lat="44.7711" lon="4.8125">
        <ele>121</ele>
        <time>2012-09-08T16:07:57Z</time>
      </trkpt>
      <trkpt lat="44.77107" lon="4.81245">
        <ele>121</ele>
        <time>2012-09-08T16:07:58Z</time>
      </trkpt>
      <trkpt lat="44.77105" lon="4.81239">
        <ele>121</ele>
        <time>2012-09-08T16:07:59Z</time>
      </trkpt>
      <trkpt lat="44.77085" lon="4.81195">
        <ele>121</ele>
        <time>2012-09-08T16:08:07Z</time>
      </trkpt>
      <trkpt lat="44.77082" lon="4.81191">
        <ele>121</ele>
        <time>2012-09-08T16:08:08Z</time>
      </trkpt>
      <trkpt lat="44.77074" lon="4.81176">
        <ele>121</ele>
        <time>2012-09-08T16:08:11Z</time>
      </trkpt>
      <trkpt lat="44.77071" lon="4.81171">
        <ele>121</ele>
        <time>2012-09-08T16:08:12Z</time>
      </trkpt>
      <trkpt lat="44.77068" lon="4.81167">
        <ele>121</ele>
        <time>2012-09-08T16:08:13Z</time>
      </trkpt>
      <trkpt lat="44.77036" lon="4.8113">
        <ele>121</ele>
        <time>2012-09-08T16:08:22Z</time>
      </trkpt>
      <trkpt lat="44.76996" lon="4.81097">
        <ele>121</ele>
        <time>2012-09-08T16:08:32Z</time>
      </trkpt>
      <trkpt lat="44.76952" lon="4.81064">
        <ele>121</ele>
        <time>2012-09-08T16:08:43Z</time>
      </trkpt>
      <trkpt lat="44.76921" lon="4.81036">
        <ele>120</ele>
        <time>2012-09-08T16:08:51Z</time>
      </trkpt>
      <trkpt lat="44.76883" lon="4.81002">
        <ele>120</ele>
        <time>2012-09-08T16:09:01Z</time>
      </trkpt>
      <trkpt lat="44.7685" lon="4.80964">
        <ele>120</ele>
        <time>2012-09-08T16:09:11Z</time>
      </trkpt>
      <trkpt lat="44.76835" lon="4.80943">
        <ele>119</ele>
        <time>2012-09-08T16:09:16Z</time>
      </trkpt>
      <trkpt lat="44.76832" lon="4.80939">
        <ele>119</ele>
        <time>2012-09-08T16:09:17Z</time>
      </trkpt>
      <trkpt lat="44.76802" lon="4.80891">
        <ele>120</ele>
        <time>2012-09-08T16:09:27Z</time>
      </trkpt>
      <trkpt lat="44.76777" lon="4.80841">
        <ele>119</ele>
        <time>2012-09-08T16:09:37Z</time>
      </trkpt>
      <trkpt lat="44.76772" lon="4.8083">
        <ele>120</ele>
        <time>2012-09-08T16:09:39Z</time>
      </trkpt>
      <trkpt lat="44.76759" lon="4.80793">
        <ele>119</ele>
        <time>2012-09-08T16:09:45Z</time>
      </trkpt>
      <trkpt lat="44.76738" lon="4.80727">
        <ele>119</ele>
        <time>2012-09-08T16:09:56Z</time>
      </trkpt>
      <trkpt lat="44.76721" lon="4.8066">
        <ele>119</ele>
        <time>2012-09-08T16:10:07Z</time>
      </trkpt>
      <trkpt lat="44.76714" lon="4.80623">
        <ele>119</ele>
        <time>2012-09-08T16:10:13Z</time>
      </trkpt>
      <trkpt lat="44.7671" lon="4.80599">
        <ele>119</ele>
        <time>2012-09-08T16:10:17Z</time>
      </trkpt>
      <trkpt lat="44.76709" lon="4.80592">
        <ele>119</ele>
        <time>2012-09-08T16:10:18Z</time>
      </trkpt>
      <trkpt lat="44.76702" lon="4.80522">
        <ele>119</ele>
        <time>2012-09-08T16:10:29Z</time>
      </trkpt>
      <trkpt lat="44.76702" lon="4.80462">
        <ele>118</ele>
        <time>2012-09-08T16:10:38Z</time>
      </trkpt>
      <trkpt lat="44.76707" lon="4.80383">
        <ele>118</ele>
        <time>2012-09-08T16:10:50Z</time>
      </trkpt>
      <trkpt lat="44.76716" lon="4.80317">
        <ele>118</ele>
        <time>2012-09-08T16:11:00Z</time>
      </trkpt>
      <trkpt lat="44.76724" lon="4.80262">
        <ele>118</ele>
        <time>2012-09-08T16:11:09Z</time>
      </trkpt>
      <trkpt lat="44.76734" lon="4.80196">
        <ele>117</ele>
        <time>2012-09-08T16:11:20Z</time>
      </trkpt>
      <trkpt lat="44.7674" lon="4.80159">
        <ele>117</ele>
        <time>2012-09-08T16:11:26Z</time>
      </trkpt>
      <trkpt lat="44.76741" lon="4.80153">
        <ele>117</ele>
        <time>2012-09-08T16:11:27Z</time>
      </trkpt>
      <trkpt lat="44.76751" lon="4.80091">
        <ele>117</ele>
        <time>2012-09-08T16:11:37Z</time>
      </trkpt>
      <trkpt lat="44.76756" lon="4.80055">
        <ele>117</ele>
        <time>2012-09-08T16:11:43Z</time>
      </trkpt>
      <trkpt lat="44.76757" lon="4.8005">
        <ele>117</ele>
        <time>2012-09-08T16:11:44Z</time>
      </trkpt>
      <trkpt lat="44.76757" lon="4.80032">
        <ele>117</ele>
        <time>2012-09-08T16:11:49Z</time>
      </trkpt>
      <trkpt lat="44.76748" lon="4.8002">
        <ele>115</ele>
        <time>2012-09-08T16:11:55Z</time>
      </trkpt>
      <trkpt lat="44.76749" lon="4.79995">
        <ele>115</ele>
        <time>2012-09-08T16:12:00Z</time>
      </trkpt>
      <trkpt lat="44.76754" lon="4.79959">
        <ele>114</ele>
        <time>2012-09-08T16:12:08Z</time>
      </trkpt>
      <trkpt lat="44.76759" lon="4.79909">
        <ele>114</ele>
        <time>2012-09-08T16:12:18Z</time>
      </trkpt>
      <trkpt lat="44.76768" lon="4.79868">
        <ele>114</ele>
        <time>2012-09-08T16:12:26Z</time>
      </trkpt>
      <trkpt lat="44.76779" lon="4.79852">
        <ele>115</ele>
        <time>2012-09-08T16:12:30Z</time>
      </trkpt>
      <trkpt lat="44.76783" lon="4.79849">
        <ele>115</ele>
        <time>2012-09-08T16:12:31Z</time>
      </trkpt>
      <trkpt lat="44.76786" lon="4.79846">
        <ele>115</ele>
        <time>2012-09-08T16:12:32Z</time>
      </trkpt>
      <trkpt lat="44.76789" lon="4.79843">
        <ele>116</ele>
        <time>2012-09-08T16:12:33Z</time>
      </trkpt>
      <trkpt lat="44.76791" lon="4.79839">
        <ele>116</ele>
        <time>2012-09-08T16:12:34Z</time>
      </trkpt>
      <trkpt lat="44.76793" lon="4.79833">
        <ele>115</ele>
        <time>2012-09-08T16:12:35Z</time>
      </trkpt>
      <trkpt lat="44.76796" lon="4.79827">
        <ele>115</ele>
        <time>2012-09-08T16:12:36Z</time>
      </trkpt>
      <trkpt lat="44.76798" lon="4.79821">
        <ele>115</ele>
        <time>2012-09-08T16:12:37Z</time>
      </trkpt>
      <trkpt lat="44.76799" lon="4.79815">
        <ele>115</ele>
        <time>2012-09-08T16:12:38Z</time>
      </trkpt>
      <trkpt lat="44.76799" lon="4.79809">
        <ele>115</ele>
        <time>2012-09-08T16:12:39Z</time>
      </trkpt>
      <trkpt lat="44.76799" lon="4.79803">
        <ele>115</ele>
        <time>2012-09-08T16:12:40Z</time>
      </trkpt>
      <trkpt lat="44.76803" lon="4.79784">
        <ele>115</ele>
        <time>2012-09-08T16:12:45Z</time>
      </trkpt>
      <trkpt lat="44.76802" lon="4.79783">
        <ele>115</ele>
        <time>2012-09-08T16:12:54Z</time>
      </trkpt>
      <trkpt lat="44.76801" lon="4.7978">
        <ele>116</ele>
        <time>2012-09-08T16:13:09Z</time>
      </trkpt>
      <trkpt lat="44.76798" lon="4.79779">
        <ele>116</ele>
        <time>2012-09-08T16:13:29Z</time>
      </trkpt>
      <trkpt lat="44.76796" lon="4.79777">
        <ele>116</ele>
        <time>2012-09-08T16:13:49Z</time>
      </trkpt>
      <trkpt lat="44.76798" lon="4.79776">
        <ele>116</ele>
        <time>2012-09-08T16:14:05Z</time>
      </trkpt>
      <trkpt lat="44.76797" lon="4.79777">
        <ele>116</ele>
        <time>2012-09-08T16:14:22Z</time>
      </trkpt>
      <trkpt lat="44.76801" lon="4.79769">
        <ele>116</ele>
        <time>2012-09-08T16:14:30Z</time>
      </trkpt>
      <trkpt lat="44.76812" lon="4.79741">
        <ele>116</ele>
        <time>2012-09-08T16:14:36Z</time>
      </trkpt>
      <trkpt lat="44.76816" lon="4.7973">
        <ele>116</ele>
        <time>2012-09-08T16:14:38Z</time>
      </trkpt>
      <trkpt lat="44.76817" lon="4.79724">
        <ele>115</ele>
        <time>2012-09-08T16:14:39Z</time>
      </trkpt>
      <trkpt lat="44.76817" lon="4.79717">
        <ele>115</ele>
        <time>2012-09-08T16:14:40Z</time>
      </trkpt>
      <trkpt lat="44.76818" lon="4.79709">
        <ele>115</ele>
        <time>2012-09-08T16:14:41Z</time>
      </trkpt>
      <trkpt lat="44.76818" lon="4.79702">
        <ele>115</ele>
        <time>2012-09-08T16:14:42Z</time>
      </trkpt>
      <trkpt lat="44.7682" lon="4.79689">
        <ele>115</ele>
        <time>2012-09-08T16:14:44Z</time>
      </trkpt>
      <trkpt lat="44.76822" lon="4.79676">
        <ele>115</ele>
        <time>2012-09-08T16:14:46Z</time>
      </trkpt>
      <trkpt lat="44.76823" lon="4.7967">
        <ele>115</ele>
        <time>2012-09-08T16:14:47Z</time>
      </trkpt>
      <trkpt lat="44.76831" lon="4.79624">
        <ele>115</ele>
        <time>2012-09-08T16:14:54Z</time>
      </trkpt>
      <trkpt lat="44.76833" lon="4.79612">
        <ele>115</ele>
        <time>2012-09-08T16:14:56Z</time>
      </trkpt>
      <trkpt lat="44.76834" lon="4.79606">
        <ele>115</ele>
        <time>2012-09-08T16:14:57Z</time>
      </trkpt>
      <trkpt lat="44.76835" lon="4.796">
        <ele>115</ele>
        <time>2012-09-08T16:14:58Z</time>
      </trkpt>
      <trkpt lat="44.76839" lon="4.7958">
        <ele>115</ele>
        <time>2012-09-08T16:15:01Z</time>
      </trkpt>
      <trkpt lat="44.7684" lon="4.79574">
        <ele>115</ele>
        <time>2012-09-08T16:15:02Z</time>
      </trkpt>
      <trkpt lat="44.76842" lon="4.79567">
        <ele>115</ele>
        <time>2012-09-08T16:15:03Z</time>
      </trkpt>
      <trkpt lat="44.76844" lon="4.79561">
        <ele>115</ele>
        <time>2012-09-08T16:15:04Z</time>
      </trkpt>
      <trkpt lat="44.76845" lon="4.79554">
        <ele>115</ele>
        <time>2012-09-08T16:15:05Z</time>
      </trkpt>
      <trkpt lat="44.76846" lon="4.79548">
        <ele>115</ele>
        <time>2012-09-08T16:15:06Z</time>
      </trkpt>
      <trkpt lat="44.76846" lon="4.79541">
        <ele>115</ele>
        <time>2012-09-08T16:15:07Z</time>
      </trkpt>
      <trkpt lat="44.76846" lon="4.79535">
        <ele>115</ele>
        <time>2012-09-08T16:15:08Z</time>
      </trkpt>
      <trkpt lat="44.76849" lon="4.79513">
        <ele>115</ele>
        <time>2012-09-08T16:15:12Z</time>
      </trkpt>
      <trkpt lat="44.7685" lon="4.79508">
        <ele>115</ele>
        <time>2012-09-08T16:15:13Z</time>
      </trkpt>
      <trkpt lat="44.76851" lon="4.79502">
        <ele>115</ele>
        <time>2012-09-08T16:15:14Z</time>
      </trkpt>
      <trkpt lat="44.7686" lon="4.79461">
        <ele>115</ele>
        <time>2012-09-08T16:15:21Z</time>
      </trkpt>
      <trkpt lat="44.7686" lon="4.79455">
        <ele>115</ele>
        <time>2012-09-08T16:15:22Z</time>
      </trkpt>
      <trkpt lat="44.7686" lon="4.79449">
        <ele>115</ele>
        <time>2012-09-08T16:15:23Z</time>
      </trkpt>
      <trkpt lat="44.76862" lon="4.79442">
        <ele>115</ele>
        <time>2012-09-08T16:15:24Z</time>
      </trkpt>
      <trkpt lat="44.76863" lon="4.79436">
        <ele>115</ele>
        <time>2012-09-08T16:15:25Z</time>
      </trkpt>
      <trkpt lat="44.76871" lon="4.79386">
        <ele>115</ele>
        <time>2012-09-08T16:15:33Z</time>
      </trkpt>
      <trkpt lat="44.76875" lon="4.79349">
        <ele>115</ele>
        <time>2012-09-08T16:15:39Z</time>
      </trkpt>
      <trkpt lat="44.76876" lon="4.79343">
        <ele>115</ele>
        <time>2012-09-08T16:15:40Z</time>
      </trkpt>
      <trkpt lat="44.76877" lon="4.79336">
        <ele>115</ele>
        <time>2012-09-08T16:15:41Z</time>
      </trkpt>
      <trkpt lat="44.76882" lon="4.79318">
        <ele>115</ele>
        <time>2012-09-08T16:15:44Z</time>
      </trkpt>
      <trkpt lat="44.76883" lon="4.79312">
        <ele>115</ele>
        <time>2012-09-08T16:15:45Z</time>
      </trkpt>
      <trkpt lat="44.76892" lon="4.79253">
        <ele>115</ele>
        <time>2012-09-08T16:15:54Z</time>
      </trkpt>
      <trkpt lat="44.76903" lon="4.79194">
        <ele>114</ele>
        <time>2012-09-08T16:16:03Z</time>
      </trkpt>
      <trkpt lat="44.76909" lon="4.79155">
        <ele>114</ele>
        <time>2012-09-08T16:16:09Z</time>
      </trkpt>
      <trkpt lat="44.76911" lon="4.79142">
        <ele>114</ele>
        <time>2012-09-08T16:16:11Z</time>
      </trkpt>
      <trkpt lat="44.76913" lon="4.79136">
        <ele>114</ele>
        <time>2012-09-08T16:16:12Z</time>
      </trkpt>
      <trkpt lat="44.76913" lon="4.7913">
        <ele>113</ele>
        <time>2012-09-08T16:16:13Z</time>
      </trkpt>
      <trkpt lat="44.76919" lon="4.79075">
        <ele>113</ele>
        <time>2012-09-08T16:16:21Z</time>
      </trkpt>
      <trkpt lat="44.76925" lon="4.7904">
        <ele>113</ele>
        <time>2012-09-08T16:16:26Z</time>
      </trkpt>
      <trkpt lat="44.76929" lon="4.79004">
        <ele>114</ele>
        <time>2012-09-08T16:16:31Z</time>
      </trkpt>
      <trkpt lat="44.7693" lon="4.78997">
        <ele>113</ele>
        <time>2012-09-08T16:16:32Z</time>
      </trkpt>
      <trkpt lat="44.76932" lon="4.78991">
        <ele>113</ele>
        <time>2012-09-08T16:16:33Z</time>
      </trkpt>
      <trkpt lat="44.76934" lon="4.78977">
        <ele>114</ele>
        <time>2012-09-08T16:16:35Z</time>
      </trkpt>
      <trkpt lat="44.76943" lon="4.78917">
        <ele>113</ele>
        <time>2012-09-08T16:16:44Z</time>
      </trkpt>
      <trkpt lat="44.76951" lon="4.78864">
        <ele>112</ele>
        <time>2012-09-08T16:16:52Z</time>
      </trkpt>
      <trkpt lat="44.76961" lon="4.78802">
        <ele>112</ele>
        <time>2012-09-08T16:17:02Z</time>
      </trkpt>
      <trkpt lat="44.76968" lon="4.78772">
        <ele>112</ele>
        <time>2012-09-08T16:17:09Z</time>
      </trkpt>
      <trkpt lat="44.76971" lon="4.78745">
        <ele>112</ele>
        <time>2012-09-08T16:17:18Z</time>
      </trkpt>
      <trkpt lat="44.76972" lon="4.7874">
        <ele>111</ele>
        <time>2012-09-08T16:17:25Z</time>
      </trkpt>
      <trkpt lat="44.76971" lon="4.78741">
        <ele>111</ele>
        <time>2012-09-08T16:17:26Z</time>
      </trkpt>
      <trkpt lat="44.76971" lon="4.78742">
        <ele>112</ele>
        <time>2012-09-08T16:17:27Z</time>
      </trkpt>
      <trkpt lat="44.76971" lon="4.78744">
        <ele>111</ele>
        <time>2012-09-08T16:17:28Z</time>
      </trkpt>
      <trkpt lat="44.76971" lon="4.78748">
        <ele>112</ele>
        <time>2012-09-08T16:17:34Z</time>
      </trkpt>
      <trkpt lat="44.76969" lon="4.7877">
        <ele>113</ele>
        <time>2012-09-08T16:17:40Z</time>
      </trkpt>
      <trkpt lat="44.76969" lon="4.78781">
        <ele>112</ele>
        <time>2012-09-08T16:17:42Z</time>
      </trkpt>
      <trkpt lat="44.7697" lon="4.78787">
        <ele>112</ele>
        <time>2012-09-08T16:17:43Z</time>
      </trkpt>
      <trkpt lat="44.76972" lon="4.78791">
        <ele>112</ele>
        <time>2012-09-08T16:17:44Z</time>
      </trkpt>
      <trkpt lat="44.76975" lon="4.78795">
        <ele>112</ele>
        <time>2012-09-08T16:17:45Z</time>
      </trkpt>
      <trkpt lat="44.76984" lon="4.78801">
        <ele>111</ele>
        <time>2012-09-08T16:17:47Z</time>
      </trkpt>
      <trkpt lat="44.77015" lon="4.78809">
        <ele>110</ele>
        <time>2012-09-08T16:17:53Z</time>
      </trkpt>
      <trkpt lat="44.77043" lon="4.78816">
        <ele>110</ele>
        <time>2012-09-08T16:17:59Z</time>
      </trkpt>
      <trkpt lat="44.77062" lon="4.78804">
        <ele>110</ele>
        <time>2012-09-08T16:18:04Z</time>
      </trkpt>
      <trkpt lat="44.77069" lon="4.7878">
        <ele>109</ele>
        <time>2012-09-08T16:18:08Z</time>
      </trkpt>
      <trkpt lat="44.77067" lon="4.78751">
        <ele>109</ele>
        <time>2012-09-08T16:18:12Z</time>
      </trkpt>
      <trkpt lat="44.77058" lon="4.78727">
        <ele>109</ele>
        <time>2012-09-08T16:18:16Z</time>
      </trkpt>
      <trkpt lat="44.77032" lon="4.78689">
        <ele>110</ele>
        <time>2012-09-08T16:18:25Z</time>
      </trkpt>
      <trkpt lat="44.77022" lon="4.78663">
        <ele>110</ele>
        <time>2012-09-08T16:18:31Z</time>
      </trkpt>
      <trkpt lat="44.7701" lon="4.78654">
        <ele>110</ele>
        <time>2012-09-08T16:18:37Z</time>
      </trkpt>
      <trkpt lat="44.77014" lon="4.78647">
        <ele>110</ele>
        <time>2012-09-08T16:18:43Z</time>
      </trkpt>
      <trkpt lat="44.77018" lon="4.78649">
        <ele>110</ele>
        <time>2012-09-08T16:18:45Z</time>
      </trkpt>
      <trkpt lat="44.7702" lon="4.7865">
        <ele>110</ele>
        <time>2012-09-08T16:18:46Z</time>
      </trkpt>
      <trkpt lat="44.77023" lon="4.7865">
        <ele>110</ele>
        <time>2012-09-08T16:18:47Z</time>
      </trkpt>
      <trkpt lat="44.77025" lon="4.7865">
        <ele>110</ele>
        <time>2012-09-08T16:18:48Z</time>
      </trkpt>
      <trkpt lat="44.77028" lon="4.78649">
        <ele>111</ele>
        <time>2012-09-08T16:18:49Z</time>
      </trkpt>
      <trkpt lat="44.77032" lon="4.78647">
        <ele>110</ele>
        <time>2012-09-08T16:18:50Z</time>
      </trkpt>
      <trkpt lat="44.77056" lon="4.78628">
        <ele>110</ele>
        <time>2012-09-08T16:18:57Z</time>
      </trkpt>
      <trkpt lat="44.7708" lon="4.78597">
        <ele>109</ele>
        <time>2012-09-08T16:19:05Z</time>
      </trkpt>
      <trkpt lat="44.77094" lon="4.78584">
        <ele>110</ele>
        <time>2012-09-08T16:19:09Z</time>
      </trkpt>
      <trkpt lat="44.77098" lon="4.78582">
        <ele>109</ele>
        <time>2012-09-08T16:19:10Z</time>
      </trkpt>
      <trkpt lat="44.77123" lon="4.78566">
        <ele>109</ele>
        <time>2012-09-08T16:19:16Z</time>
      </trkpt>
      <trkpt lat="44.77127" lon="4.78564">
        <ele>109</ele>
        <time>2012-09-08T16:19:17Z</time>
      </trkpt>
      <trkpt lat="44.77132" lon="4.78562">
        <ele>109</ele>
        <time>2012-09-08T16:19:18Z</time>
      </trkpt>
      <trkpt lat="44.77166" lon="4.78561">
        <ele>110</ele>
        <time>2012-09-08T16:19:25Z</time>
      </trkpt>
      <trkpt lat="44.77206" lon="4.78561">
        <ele>109</ele>
        <time>2012-09-08T16:19:33Z</time>
      </trkpt>
      <trkpt lat="44.77239" lon="4.78563">
        <ele>109</ele>
        <time>2012-09-08T16:19:40Z</time>
      </trkpt>
      <trkpt lat="44.77244" lon="4.78564">
        <ele>109</ele>
        <time>2012-09-08T16:19:41Z</time>
      </trkpt>
      <trkpt lat="44.77248" lon="4.78566">
        <ele>109</ele>
        <time>2012-09-08T16:19:42Z</time>
      </trkpt>
      <trkpt lat="44.77252" lon="4.78568">
        <ele>110</ele>
        <time>2012-09-08T16:19:43Z</time>
      </trkpt>
      <trkpt lat="44.77256" lon="4.78571">
        <ele>110</ele>
        <time>2012-09-08T16:19:44Z</time>
      </trkpt>
      <trkpt lat="44.77259" lon="4.78575">
        <ele>110</ele>
        <time>2012-09-08T16:19:45Z</time>
      </trkpt>
      <trkpt lat="44.77262" lon="4.78579">
        <ele>110</ele>
        <time>2012-09-08T16:19:46Z</time>
      </trkpt>
      <trkpt lat="44.77264" lon="4.78584">
        <ele>110</ele>
        <time>2012-09-08T16:19:47Z</time>
      </trkpt>
      <trkpt lat="44.77266" lon="4.78589">
        <ele>110</ele>
        <time>2012-09-08T16:19:48Z</time>
      </trkpt>
      <trkpt lat="44.77268" lon="4.78595">
        <ele>110</ele>
        <time>2012-09-08T16:19:49Z</time>
      </trkpt>
      <trkpt lat="44.77271" lon="4.786">
        <ele>110</ele>
        <time>2012-09-08T16:19:50Z</time>
      </trkpt>
      <trkpt lat="44.77273" lon="4.78606">
        <ele>110</ele>
        <time>2012-09-08T16:19:51Z</time>
      </trkpt>
      <trkpt lat="44.77292" lon="4.78655">
        <ele>109</ele>
        <time>2012-09-08T16:19:59Z</time>
      </trkpt>
      <trkpt lat="44.77307" lon="4.78684">
        <ele>109</ele>
        <time>2012-09-08T16:20:04Z</time>
      </trkpt>
      <trkpt lat="44.77344" lon="4.78721">
        <ele>109</ele>
        <time>2012-09-08T16:20:13Z</time>
      </trkpt>
      <trkpt lat="44.77388" lon="4.78753">
        <ele>109</ele>
        <time>2012-09-08T16:20:23Z</time>
      </trkpt>
      <trkpt lat="44.77407" lon="4.78759">
        <ele>109</ele>
        <time>2012-09-08T16:20:27Z</time>
      </trkpt>
      <trkpt lat="44.77419" lon="4.78758">
        <ele>108</ele>
        <time>2012-09-08T16:20:30Z</time>
      </trkpt>
      <trkpt lat="44.77421" lon="4.78754">
        <ele>108</ele>
        <time>2012-09-08T16:20:31Z</time>
      </trkpt>
      <trkpt lat="44.77423" lon="4.78749">
        <ele>108</ele>
        <time>2012-09-08T16:20:32Z</time>
      </trkpt>
      <trkpt lat="44.77438" lon="4.78715">
        <ele>107</ele>
        <time>2012-09-08T16:20:38Z</time>
      </trkpt>
      <trkpt lat="44.77449" lon="4.78703">
        <ele>108</ele>
        <time>2012-09-08T16:20:41Z</time>
      </trkpt>
      <trkpt lat="44.77481" lon="4.7866">
        <ele>108</ele>
        <time>2012-09-08T16:20:50Z</time>
      </trkpt>
      <trkpt lat="44.77512" lon="4.78621">
        <ele>108</ele>
        <time>2012-09-08T16:20:58Z</time>
      </trkpt>
      <trkpt lat="44.77534" lon="4.78562">
        <ele>107</ele>
        <time>2012-09-08T16:21:07Z</time>
      </trkpt>
      <trkpt lat="44.77554" lon="4.7848">
        <ele>107</ele>
        <time>2012-09-08T16:21:18Z</time>
      </trkpt>
      <trkpt lat="44.77572" lon="4.78407">
        <ele>107</ele>
        <time>2012-09-08T16:21:28Z</time>
      </trkpt>
      <trkpt lat="44.77592" lon="4.78331">
        <ele>107</ele>
        <time>2012-09-08T16:21:39Z</time>
      </trkpt>
      <trkpt lat="44.77609" lon="4.78267">
        <ele>107</ele>
        <time>2012-09-08T16:21:48Z</time>
      </trkpt>
      <trkpt lat="44.77623" lon="4.78193">
        <ele>106</ele>
        <time>2012-09-08T16:21:58Z</time>
      </trkpt>
      <trkpt lat="44.7764" lon="4.78127">
        <ele>106</ele>
        <time>2012-09-08T16:22:07Z</time>
      </trkpt>
      <trkpt lat="44.77655" lon="4.78055">
        <ele>106</ele>
        <time>2012-09-08T16:22:17Z</time>
      </trkpt>
      <trkpt lat="44.77666" lon="4.77997">
        <ele>106</ele>
        <time>2012-09-08T16:22:26Z</time>
      </trkpt>
      <trkpt lat="44.7768" lon="4.77922">
        <ele>106</ele>
        <time>2012-09-08T16:22:36Z</time>
      </trkpt>
      <trkpt lat="44.77691" lon="4.77869">
        <ele>106</ele>
        <time>2012-09-08T16:22:43Z</time>
      </trkpt>
      <trkpt lat="44.77691" lon="4.77861">
        <ele>105</ele>
        <time>2012-09-08T16:22:44Z</time>
      </trkpt>
      <trkpt lat="44.77695" lon="4.77774">
        <ele>106</ele>
        <time>2012-09-08T16:22:55Z</time>
      </trkpt>
      <trkpt lat="44.77696" lon="4.77759">
        <ele>105</ele>
        <time>2012-09-08T16:22:57Z</time>
      </trkpt>
      <trkpt lat="44.77698" lon="4.77751">
        <ele>105</ele>
        <time>2012-09-08T16:22:58Z</time>
      </trkpt>
      <trkpt lat="44.777" lon="4.77744">
        <ele>105</ele>
        <time>2012-09-08T16:22:59Z</time>
      </trkpt>
      <trkpt lat="44.77703" lon="4.77737">
        <ele>105</ele>
        <time>2012-09-08T16:23:00Z</time>
      </trkpt>
      <trkpt lat="44.77707" lon="4.77731">
        <ele>106</ele>
        <time>2012-09-08T16:23:01Z</time>
      </trkpt>
      <trkpt lat="44.77711" lon="4.77725">
        <ele>106</ele>
        <time>2012-09-08T16:23:02Z</time>
      </trkpt>
      <trkpt lat="44.77715" lon="4.7772">
        <ele>105</ele>
        <time>2012-09-08T16:23:03Z</time>
      </trkpt>
      <trkpt lat="44.77752" lon="4.77686">
        <ele>105</ele>
        <time>2012-09-08T16:23:11Z</time>
      </trkpt>
      <trkpt lat="44.77757" lon="4.77682">
        <ele>105</ele>
        <time>2012-09-08T16:23:12Z</time>
      </trkpt>
      <trkpt lat="44.77762" lon="4.77681">
        <ele>105</ele>
        <time>2012-09-08T16:23:13Z</time>
      </trkpt>
      <trkpt lat="44.77768" lon="4.77681">
        <ele>105</ele>
        <time>2012-09-08T16:23:14Z</time>
      </trkpt>
      <trkpt lat="44.77774" lon="4.77682">
        <ele>105</ele>
        <time>2012-09-08T16:23:15Z</time>
      </trkpt>
      <trkpt lat="44.77779" lon="4.77685">
        <ele>106</ele>
        <time>2012-09-08T16:23:16Z</time>
      </trkpt>
      <trkpt lat="44.77784" lon="4.77688">
        <ele>105</ele>
        <time>2012-09-08T16:23:17Z</time>
      </trkpt>
      <trkpt lat="44.77799" lon="4.77698">
        <ele>105</ele>
        <time>2012-09-08T16:23:20Z</time>
      </trkpt>
      <trkpt lat="44.77837" lon="4.77719">
        <ele>105</ele>
        <time>2012-09-08T16:23:28Z</time>
      </trkpt>
      <trkpt lat="44.77884" lon="4.77744">
        <ele>105</ele>
        <time>2012-09-08T16:23:37Z</time>
      </trkpt>
      <trkpt lat="44.77889" lon="4.77745">
        <ele>104</ele>
        <time>2012-09-08T16:23:38Z</time>
      </trkpt>
      <trkpt lat="44.77895" lon="4.77744">
        <ele>105</ele>
        <time>2012-09-08T16:23:39Z</time>
      </trkpt>
      <trkpt lat="44.779" lon="4.77741">
        <ele>105</ele>
        <time>2012-09-08T16:23:40Z</time>
      </trkpt>
      <trkpt lat="44.77904" lon="4.77737">
        <ele>105</ele>
        <time>2012-09-08T16:23:41Z</time>
      </trkpt>
      <trkpt lat="44.77907" lon="4.77731">
        <ele>105</ele>
        <time>2012-09-08T16:23:42Z</time>
      </trkpt>
      <trkpt lat="44.7791" lon="4.77725">
        <ele>105</ele>
        <time>2012-09-08T16:23:43Z</time>
      </trkpt>
      <trkpt lat="44.77912" lon="4.77718">
        <ele>105</ele>
        <time>2012-09-08T16:23:44Z</time>
      </trkpt>
      <trkpt lat="44.77914" lon="4.77711">
        <ele>105</ele>
        <time>2012-09-08T16:23:45Z</time>
      </trkpt>
      <trkpt lat="44.77925" lon="4.77678">
        <ele>104</ele>
        <time>2012-09-08T16:23:50Z</time>
      </trkpt>
      <trkpt lat="44.77951" lon="4.77604">
        <ele>104</ele>
        <time>2012-09-08T16:24:01Z</time>
      </trkpt>
      <trkpt lat="44.77979" lon="4.77541">
        <ele>104</ele>
        <time>2012-09-08T16:24:11Z</time>
      </trkpt>
      <trkpt lat="44.78001" lon="4.77481">
        <ele>104</ele>
        <time>2012-09-08T16:24:20Z</time>
      </trkpt>
      <trkpt lat="44.78019" lon="4.77437">
        <ele>104</ele>
        <time>2012-09-08T16:24:27Z</time>
      </trkpt>
      <trkpt lat="44.78022" lon="4.77432">
        <ele>104</ele>
        <time>2012-09-08T16:24:28Z</time>
      </trkpt>
      <trkpt lat="44.78026" lon="4.77428">
        <ele>104</ele>
        <time>2012-09-08T16:24:29Z</time>
      </trkpt>
      <trkpt lat="44.7803" lon="4.77424">
        <ele>104</ele>
        <time>2012-09-08T16:24:30Z</time>
      </trkpt>
      <trkpt lat="44.78034" lon="4.77423">
        <ele>103</ele>
        <time>2012-09-08T16:24:31Z</time>
      </trkpt>
      <trkpt lat="44.78039" lon="4.77423">
        <ele>104</ele>
        <time>2012-09-08T16:24:32Z</time>
      </trkpt>
      <trkpt lat="44.78044" lon="4.77423">
        <ele>104</ele>
        <time>2012-09-08T16:24:33Z</time>
      </trkpt>
      <trkpt lat="44.78049" lon="4.77424">
        <ele>104</ele>
        <time>2012-09-08T16:24:34Z</time>
      </trkpt>
      <trkpt lat="44.78054" lon="4.77425">
        <ele>104</ele>
        <time>2012-09-08T16:24:35Z</time>
      </trkpt>
      <trkpt lat="44.78058" lon="4.77426">
        <ele>104</ele>
        <time>2012-09-08T16:24:36Z</time>
      </trkpt>
      <trkpt lat="44.78062" lon="4.77428">
        <ele>104</ele>
        <time>2012-09-08T16:24:37Z</time>
      </trkpt>
      <trkpt lat="44.78096" lon="4.7744">
        <ele>103</ele>
        <time>2012-09-08T16:24:45Z</time>
      </trkpt>
      <trkpt lat="44.78101" lon="4.7744">
        <ele>104</ele>
        <time>2012-09-08T16:24:46Z</time>
      </trkpt>
      <trkpt lat="44.78105" lon="4.77438">
        <ele>104</ele>
        <time>2012-09-08T16:24:47Z</time>
      </trkpt>
      <trkpt lat="44.78109" lon="4.77436">
        <ele>103</ele>
        <time>2012-09-08T16:24:48Z</time>
      </trkpt>
      <trkpt lat="44.78112" lon="4.77433">
        <ele>104</ele>
        <time>2012-09-08T16:24:49Z</time>
      </trkpt>
      <trkpt lat="44.78115" lon="4.77429">
        <ele>104</ele>
        <time>2012-09-08T16:24:50Z</time>
      </trkpt>
      <trkpt lat="44.78135" lon="4.77416">
        <ele>104</ele>
        <time>2012-09-08T16:24:56Z</time>
      </trkpt>
      <trkpt lat="44.78139" lon="4.77418">
        <ele>104</ele>
        <time>2012-09-08T16:24:57Z</time>
      </trkpt>
      <trkpt lat="44.78142" lon="4.7742">
        <ele>104</ele>
        <time>2012-09-08T16:24:58Z</time>
      </trkpt>
      <trkpt lat="44.78155" lon="4.77425">
        <ele>104</ele>
        <time>2012-09-08T16:25:02Z</time>
      </trkpt>
      <trkpt lat="44.78157" lon="4.77422">
        <ele>103</ele>
        <time>2012-09-08T16:25:03Z</time>
      </trkpt>
      <trkpt lat="44.78158" lon="4.77418">
        <ele>104</ele>
        <time>2012-09-08T16:25:04Z</time>
      </trkpt>
      <trkpt lat="44.78158" lon="4.77413">
        <ele>104</ele>
        <time>2012-09-08T16:25:05Z</time>
      </trkpt>
      <trkpt lat="44.78157" lon="4.77408">
        <ele>103</ele>
        <time>2012-09-08T16:25:06Z</time>
      </trkpt>
      <trkpt lat="44.78155" lon="4.77403">
        <ele>103</ele>
        <time>2012-09-08T16:25:07Z</time>
      </trkpt>
      <trkpt lat="44.78153" lon="4.77396">
        <ele>103</ele>
        <time>2012-09-08T16:25:08Z</time>
      </trkpt>
      <trkpt lat="44.78152" lon="4.77388">
        <ele>103</ele>
        <time>2012-09-08T16:25:09Z</time>
      </trkpt>
      <trkpt lat="44.78153" lon="4.77379">
        <ele>103</ele>
        <time>2012-09-08T16:25:10Z</time>
      </trkpt>
      <trkpt lat="44.78155" lon="4.77371">
        <ele>102</ele>
        <time>2012-09-08T16:25:11Z</time>
      </trkpt>
      <trkpt lat="44.78158" lon="4.77365">
        <ele>102</ele>
        <time>2012-09-08T16:25:12Z</time>
      </trkpt>
      <trkpt lat="44.78162" lon="4.77362">
        <ele>102</ele>
        <time>2012-09-08T16:25:13Z</time>
      </trkpt>
      <trkpt lat="44.78166" lon="4.77362">
        <ele>102</ele>
        <time>2012-09-08T16:25:14Z</time>
      </trkpt>
      <trkpt lat="44.78173" lon="4.77368">
        <ele>102</ele>
        <time>2012-09-08T16:25:15Z</time>
      </trkpt>
      <trkpt lat="44.78178" lon="4.77374">
        <ele>103</ele>
        <time>2012-09-08T16:25:16Z</time>
      </trkpt>
      <trkpt lat="44.78182" lon="4.77379">
        <ele>103</ele>
        <time>2012-09-08T16:25:17Z</time>
      </trkpt>
      <trkpt lat="44.78186" lon="4.77383">
        <ele>103</ele>
        <time>2012-09-08T16:25:18Z</time>
      </trkpt>
      <trkpt lat="44.78201" lon="4.77395">
        <ele>104</ele>
        <time>2012-09-08T16:25:23Z</time>
      </trkpt>
      <trkpt lat="44.78217" lon="4.77412">
        <ele>104</ele>
        <time>2012-09-08T16:25:28Z</time>
      </trkpt>
      <trkpt lat="44.78234" lon="4.77421">
        <ele>104</ele>
        <time>2012-09-08T16:25:33Z</time>
      </trkpt>
      <trkpt lat="44.78264" lon="4.77431">
        <ele>103</ele>
        <time>2012-09-08T16:25:40Z</time>
      </trkpt>
      <trkpt lat="44.78273" lon="4.77435">
        <ele>104</ele>
        <time>2012-09-08T16:25:42Z</time>
      </trkpt>
      <trkpt lat="44.78278" lon="4.77437">
        <ele>103</ele>
        <time>2012-09-08T16:25:43Z</time>
      </trkpt>
      <trkpt lat="44.78283" lon="4.77439">
        <ele>103</ele>
        <time>2012-09-08T16:25:44Z</time>
      </trkpt>
      <trkpt lat="44.78287" lon="4.7744">
        <ele>104</ele>
        <time>2012-09-08T16:25:45Z</time>
      </trkpt>
      <trkpt lat="44.7829" lon="4.77442">
        <ele>104</ele>
        <time>2012-09-08T16:25:46Z</time>
      </trkpt>
      <trkpt lat="44.78307" lon="4.7745">
        <ele>104</ele>
        <time>2012-09-08T16:25:52Z</time>
      </trkpt>
      <trkpt lat="44.78316" lon="4.77452">
        <ele>103</ele>
        <time>2012-09-08T16:25:54Z</time>
      </trkpt>
      <trkpt lat="44.7832" lon="4.77454">
        <ele>104</ele>
        <time>2012-09-08T16:25:55Z</time>
      </trkpt>
      <trkpt lat="44.78324" lon="4.77456">
        <ele>103</ele>
        <time>2012-09-08T16:25:56Z</time>
      </trkpt>
      <trkpt lat="44.78368" lon="4.77472">
        <ele>104</ele>
        <time>2012-09-08T16:26:05Z</time>
      </trkpt>
      <trkpt lat="44.78411" lon="4.77489">
        <ele>104</ele>
        <time>2012-09-08T16:26:14Z</time>
      </trkpt>
      <trkpt lat="44.78452" lon="4.77505">
        <ele>104</ele>
        <time>2012-09-08T16:26:21Z</time>
      </trkpt>
      <trkpt lat="44.7851" lon="4.77522">
        <ele>104</ele>
        <time>2012-09-08T16:26:31Z</time>
      </trkpt>
      <trkpt lat="44.78564" lon="4.77539">
        <ele>104</ele>
        <time>2012-09-08T16:26:41Z</time>
      </trkpt>
      <trkpt lat="44.78615" lon="4.77565">
        <ele>104</ele>
        <time>2012-09-08T16:26:51Z</time>
      </trkpt>
      <trkpt lat="44.78664" lon="4.776">
        <ele>104</ele>
        <time>2012-09-08T16:27:01Z</time>
      </trkpt>
      <trkpt lat="44.78729" lon="4.7764">
        <ele>104</ele>
        <time>2012-09-08T16:27:13Z</time>
      </trkpt>
      <trkpt lat="44.78769" lon="4.77665">
        <ele>105</ele>
        <time>2012-09-08T16:27:21Z</time>
      </trkpt>
      <trkpt lat="44.78819" lon="4.77704">
        <ele>105</ele>
        <time>2012-09-08T16:27:31Z</time>
      </trkpt>
      <trkpt lat="44.78869" lon="4.77746">
        <ele>105</ele>
        <time>2012-09-08T16:27:41Z</time>
      </trkpt>
      <trkpt lat="44.7893" lon="4.77799">
        <ele>105</ele>
        <time>2012-09-08T16:27:53Z</time>
      </trkpt>
      <trkpt lat="44.78986" lon="4.77851">
        <ele>105</ele>
        <time>2012-09-08T16:28:04Z</time>
      </trkpt>
      <trkpt lat="44.79047" lon="4.77907">
        <ele>105</ele>
        <time>2012-09-08T16:28:16Z</time>
      </trkpt>
      <trkpt lat="44.79095" lon="4.77947">
        <ele>105</ele>
        <time>2012-09-08T16:28:25Z</time>
      </trkpt>
      <trkpt lat="44.7915" lon="4.77991">
        <ele>105</ele>
        <time>2012-09-08T16:28:35Z</time>
      </trkpt>
      <trkpt lat="44.7921" lon="4.78043">
        <ele>104</ele>
        <time>2012-09-08T16:28:46Z</time>
      </trkpt>
      <trkpt lat="44.79228" lon="4.78056">
        <ele>104</ele>
        <time>2012-09-08T16:28:49Z</time>
      </trkpt>
      <trkpt lat="44.79234" lon="4.78061">
        <ele>104</ele>
        <time>2012-09-08T16:28:50Z</time>
      </trkpt>
      <trkpt lat="44.7924" lon="4.78065">
        <ele>105</ele>
        <time>2012-09-08T16:28:51Z</time>
      </trkpt>
      <trkpt lat="44.79257" lon="4.78077">
        <ele>104</ele>
        <time>2012-09-08T16:28:54Z</time>
      </trkpt>
      <trkpt lat="44.79303" lon="4.78105">
        <ele>105</ele>
        <time>2012-09-08T16:29:02Z</time>
      </trkpt>
      <trkpt lat="44.79342" lon="4.78144">
        <ele>105</ele>
        <time>2012-09-08T16:29:10Z</time>
      </trkpt>
      <trkpt lat="44.79364" lon="4.78161">
        <ele>106</ele>
        <time>2012-09-08T16:29:16Z</time>
      </trkpt>
      <trkpt lat="44.79399" lon="4.78179">
        <ele>106</ele>
        <time>2012-09-08T16:29:25Z</time>
      </trkpt>
      <trkpt lat="44.79424" lon="4.78194">
        <ele>106</ele>
        <time>2012-09-08T16:29:31Z</time>
      </trkpt>
      <trkpt lat="44.79428" lon="4.78197">
        <ele>106</ele>
        <time>2012-09-08T16:29:32Z</time>
      </trkpt>
      <trkpt lat="44.79444" lon="4.78211">
        <ele>106</ele>
        <time>2012-09-08T16:29:36Z</time>
      </trkpt>
      <trkpt lat="44.79481" lon="4.78256">
        <ele>105</ele>
        <time>2012-09-08T16:29:46Z</time>
      </trkpt>
      <trkpt lat="44.79512" lon="4.78284">
        <ele>104</ele>
        <time>2012-09-08T16:29:53Z</time>
      </trkpt>
      <trkpt lat="44.7956" lon="4.78312">
        <ele>105</ele>
        <time>2012-09-08T16:30:03Z</time>
      </trkpt>
      <trkpt lat="44.79602" lon="4.78336">
        <ele>105</ele>
        <time>2012-09-08T16:30:12Z</time>
      </trkpt>
      <trkpt lat="44.79639" lon="4.78358">
        <ele>104</ele>
        <time>2012-09-08T16:30:20Z</time>
      </trkpt>
      <trkpt lat="44.7968" lon="4.7839">
        <ele>105</ele>
        <time>2012-09-08T16:30:29Z</time>
      </trkpt>
      <trkpt lat="44.79727" lon="4.78429">
        <ele>104</ele>
        <time>2012-09-08T16:30:39Z</time>
      </trkpt>
      <trkpt lat="44.79779" lon="4.78473">
        <ele>105</ele>
        <time>2012-09-08T16:30:50Z</time>
      </trkpt>
      <trkpt lat="44.79826" lon="4.78518">
        <ele>105</ele>
        <time>2012-09-08T16:31:00Z</time>
      </trkpt>
      <trkpt lat="44.79867" lon="4.78554">
        <ele>106</ele>
        <time>2012-09-08T16:31:09Z</time>
      </trkpt>
      <trkpt lat="44.79881" lon="4.78565">
        <ele>107</ele>
        <time>2012-09-08T16:31:14Z</time>
      </trkpt>
      <trkpt lat="44.79883" lon="4.78571">
        <ele>107</ele>
        <time>2012-09-08T16:31:19Z</time>
      </trkpt>
      <trkpt lat="44.79882" lon="4.78572">
        <ele>107</ele>
        <time>2012-09-08T16:31:20Z</time>
      </trkpt>
      <trkpt lat="44.79882" lon="4.78577">
        <ele>107</ele>
        <time>2012-09-08T16:31:23Z</time>
      </trkpt>
      <trkpt lat="44.79884" lon="4.78578">
        <ele>107</ele>
        <time>2012-09-08T16:31:24Z</time>
      </trkpt>
      <trkpt lat="44.79887" lon="4.78577">
        <ele>107</ele>
        <time>2012-09-08T16:31:25Z</time>
      </trkpt>
      <trkpt lat="44.7989" lon="4.78575">
        <ele>108</ele>
        <time>2012-09-08T16:31:26Z</time>
      </trkpt>
      <trkpt lat="44.79892" lon="4.78571">
        <ele>107</ele>
        <time>2012-09-08T16:31:27Z</time>
      </trkpt>
      <trkpt lat="44.79894" lon="4.78568">
        <ele>107</ele>
        <time>2012-09-08T16:31:28Z</time>
      </trkpt>
      <trkpt lat="44.79912" lon="4.78548">
        <ele>109</ele>
        <time>2012-09-08T16:31:35Z</time>
      </trkpt>
      <trkpt lat="44.79937" lon="4.7852">
        <ele>111</ele>
        <time>2012-09-08T16:31:44Z</time>
      </trkpt>
      <trkpt lat="44.79965" lon="4.78493">
        <ele>111</ele>
        <time>2012-09-08T16:31:53Z</time>
      </trkpt>
      <trkpt lat="44.80013" lon="4.78444">
        <ele>111</ele>
        <time>2012-09-08T16:32:06Z</time>
      </trkpt>
      <trkpt lat="44.80061" lon="4.78393">
        <ele>111</ele>
        <time>2012-09-08T16:32:18Z</time>
      </trkpt>
      <trkpt lat="44.80089" lon="4.78362">
        <ele>110</ele>
        <time>2012-09-08T16:32:25Z</time>
      </trkpt>
      <trkpt lat="44.80119" lon="4.78331">
        <ele>108</ele>
        <time>2012-09-08T16:32:32Z</time>
      </trkpt>
      <trkpt lat="44.80123" lon="4.78333">
        <ele>107</ele>
        <time>2012-09-08T16:32:33Z</time>
      </trkpt>
      <trkpt lat="44.80127" lon="4.78338">
        <ele>107</ele>
        <time>2012-09-08T16:32:34Z</time>
      </trkpt>
      <trkpt lat="44.8013" lon="4.78344">
        <ele>107</ele>
        <time>2012-09-08T16:32:35Z</time>
      </trkpt>
      <trkpt lat="44.80133" lon="4.78349">
        <ele>107</ele>
        <time>2012-09-08T16:32:36Z</time>
      </trkpt>
      <trkpt lat="44.80136" lon="4.78355">
        <ele>107</ele>
        <time>2012-09-08T16:32:37Z</time>
      </trkpt>
      <trkpt lat="44.80167" lon="4.78405">
        <ele>107</ele>
        <time>2012-09-08T16:32:46Z</time>
      </trkpt>
      <trkpt lat="44.80201" lon="4.7846">
        <ele>106</ele>
        <time>2012-09-08T16:32:56Z</time>
      </trkpt>
      <trkpt lat="44.80208" lon="4.78471">
        <ele>106</ele>
        <time>2012-09-08T16:32:58Z</time>
      </trkpt>
      <trkpt lat="44.80257" lon="4.78546">
        <ele>107</ele>
        <time>2012-09-08T16:33:12Z</time>
      </trkpt>
      <trkpt lat="44.80292" lon="4.78602">
        <ele>107</ele>
        <time>2012-09-08T16:33:22Z</time>
      </trkpt>
      <trkpt lat="44.80325" lon="4.78653">
        <ele>107</ele>
        <time>2012-09-08T16:33:31Z</time>
      </trkpt>
      <trkpt lat="44.80366" lon="4.78714">
        <ele>107</ele>
        <time>2012-09-08T16:33:42Z</time>
      </trkpt>
      <trkpt lat="44.80395" lon="4.78755">
        <ele>107</ele>
        <time>2012-09-08T16:33:50Z</time>
      </trkpt>
      <trkpt lat="44.804" lon="4.78759">
        <ele>107</ele>
        <time>2012-09-08T16:33:51Z</time>
      </trkpt>
      <trkpt lat="44.80404" lon="4.78763">
        <ele>108</ele>
        <time>2012-09-08T16:33:52Z</time>
      </trkpt>
      <trkpt lat="44.8045" lon="4.78802">
        <ele>107</ele>
        <time>2012-09-08T16:34:02Z</time>
      </trkpt>
      <trkpt lat="44.80493" lon="4.78839">
        <ele>107</ele>
        <time>2012-09-08T16:34:11Z</time>
      </trkpt>
      <trkpt lat="44.80532" lon="4.78879">
        <ele>108</ele>
        <time>2012-09-08T16:34:20Z</time>
      </trkpt>
      <trkpt lat="44.80558" lon="4.78917">
        <ele>108</ele>
        <time>2012-09-08T16:34:27Z</time>
      </trkpt>
      <trkpt lat="44.80567" lon="4.78926">
        <ele>108</ele>
        <time>2012-09-08T16:34:29Z</time>
      </trkpt>
      <trkpt lat="44.80601" lon="4.78965">
        <ele>108</ele>
        <time>2012-09-08T16:34:37Z</time>
      </trkpt>
      <trkpt lat="44.8063" lon="4.79003">
        <ele>108</ele>
        <time>2012-09-08T16:34:45Z</time>
      </trkpt>
      <trkpt lat="44.80656" lon="4.79035">
        <ele>108</ele>
        <time>2012-09-08T16:34:52Z</time>
      </trkpt>
      <trkpt lat="44.8066" lon="4.79038">
        <ele>108</ele>
        <time>2012-09-08T16:34:53Z</time>
      </trkpt>
      <trkpt lat="44.80665" lon="4.7904">
        <ele>108</ele>
        <time>2012-09-08T16:34:54Z</time>
      </trkpt>
      <trkpt lat="44.80669" lon="4.7904">
        <ele>108</ele>
        <time>2012-09-08T16:34:55Z</time>
      </trkpt>
      <trkpt lat="44.80674" lon="4.7904">
        <ele>108</ele>
        <time>2012-09-08T16:34:56Z</time>
      </trkpt>
      <trkpt lat="44.80679" lon="4.7904">
        <ele>108</ele>
        <time>2012-09-08T16:34:57Z</time>
      </trkpt>
      <trkpt lat="44.80684" lon="4.79037">
        <ele>108</ele>
        <time>2012-09-08T16:34:58Z</time>
      </trkpt>
      <trkpt lat="44.80688" lon="4.79034">
        <ele>108</ele>
        <time>2012-09-08T16:34:59Z</time>
      </trkpt>
      <trkpt lat="44.80693" lon="4.7903">
        <ele>108</ele>
        <time>2012-09-08T16:35:00Z</time>
      </trkpt>
      <trkpt lat="44.80721" lon="4.79008">
        <ele>108</ele>
        <time>2012-09-08T16:35:06Z</time>
      </trkpt>
      <trkpt lat="44.80727" lon="4.79006">
        <ele>108</ele>
        <time>2012-09-08T16:35:07Z</time>
      </trkpt>
      <trkpt lat="44.80732" lon="4.79005">
        <ele>108</ele>
        <time>2012-09-08T16:35:08Z</time>
      </trkpt>
      <trkpt lat="44.80737" lon="4.79006">
        <ele>108</ele>
        <time>2012-09-08T16:35:09Z</time>
      </trkpt>
      <trkpt lat="44.80743" lon="4.79007">
        <ele>108</ele>
        <time>2012-09-08T16:35:10Z</time>
      </trkpt>
      <trkpt lat="44.80748" lon="4.7901">
        <ele>109</ele>
        <time>2012-09-08T16:35:11Z</time>
      </trkpt>
      <trkpt lat="44.80753" lon="4.79013">
        <ele>108</ele>
        <time>2012-09-08T16:35:12Z</time>
      </trkpt>
      <trkpt lat="44.80758" lon="4.79018">
        <ele>108</ele>
        <time>2012-09-08T16:35:13Z</time>
      </trkpt>
      <trkpt lat="44.80762" lon="4.79023">
        <ele>108</ele>
        <time>2012-09-08T16:35:14Z</time>
      </trkpt>
      <trkpt lat="44.80766" lon="4.79028">
        <ele>108</ele>
        <time>2012-09-08T16:35:15Z</time>
      </trkpt>
      <trkpt lat="44.8077" lon="4.79034">
        <ele>108</ele>
        <time>2012-09-08T16:35:16Z</time>
      </trkpt>
      <trkpt lat="44.80808" lon="4.7909">
        <ele>108</ele>
        <time>2012-09-08T16:35:26Z</time>
      </trkpt>
      <trkpt lat="44.80841" lon="4.79138">
        <ele>108</ele>
        <time>2012-09-08T16:35:35Z</time>
      </trkpt>
      <trkpt lat="44.80874" lon="4.79185">
        <ele>108</ele>
        <time>2012-09-08T16:35:44Z</time>
      </trkpt>
      <trkpt lat="44.80907" lon="4.79236">
        <ele>108</ele>
        <time>2012-09-08T16:35:53Z</time>
      </trkpt>
      <trkpt lat="44.8091" lon="4.79242">
        <ele>108</ele>
        <time>2012-09-08T16:35:54Z</time>
      </trkpt>
      <trkpt lat="44.80912" lon="4.79249">
        <ele>108</ele>
        <time>2012-09-08T16:35:55Z</time>
      </trkpt>
      <trkpt lat="44.80914" lon="4.79256">
        <ele>108</ele>
        <time>2012-09-08T16:35:56Z</time>
      </trkpt>
      <trkpt lat="44.80914" lon="4.79264">
        <ele>108</ele>
        <time>2012-09-08T16:35:57Z</time>
      </trkpt>
      <trkpt lat="44.80914" lon="4.79272">
        <ele>108</ele>
        <time>2012-09-08T16:35:58Z</time>
      </trkpt>
      <trkpt lat="44.80914" lon="4.7928">
        <ele>108</ele>
        <time>2012-09-08T16:35:59Z</time>
      </trkpt>
      <trkpt lat="44.80912" lon="4.79287">
        <ele>108</ele>
        <time>2012-09-08T16:36:00Z</time>
      </trkpt>
      <trkpt lat="44.8091" lon="4.79294">
        <ele>108</ele>
        <time>2012-09-08T16:36:01Z</time>
      </trkpt>
      <trkpt lat="44.80906" lon="4.79301">
        <ele>108</ele>
        <time>2012-09-08T16:36:02Z</time>
      </trkpt>
      <trkpt lat="44.80903" lon="4.79307">
        <ele>108</ele>
        <time>2012-09-08T16:36:03Z</time>
      </trkpt>
      <trkpt lat="44.80899" lon="4.79313">
        <ele>108</ele>
        <time>2012-09-08T16:36:04Z</time>
      </trkpt>
      <trkpt lat="44.80856" lon="4.79372">
        <ele>108</ele>
        <time>2012-09-08T16:36:15Z</time>
      </trkpt>
      <trkpt lat="44.80818" lon="4.79425">
        <ele>108</ele>
        <time>2012-09-08T16:36:25Z</time>
      </trkpt>
      <trkpt lat="44.80816" lon="4.7943">
        <ele>108</ele>
        <time>2012-09-08T16:36:26Z</time>
      </trkpt>
      <trkpt lat="44.80813" lon="4.79437">
        <ele>108</ele>
        <time>2012-09-08T16:36:27Z</time>
      </trkpt>
      <trkpt lat="44.80811" lon="4.79443">
        <ele>107</ele>
        <time>2012-09-08T16:36:28Z</time>
      </trkpt>
      <trkpt lat="44.8081" lon="4.79451">
        <ele>108</ele>
        <time>2012-09-08T16:36:29Z</time>
      </trkpt>
      <trkpt lat="44.80809" lon="4.79458">
        <ele>108</ele>
        <time>2012-09-08T16:36:30Z</time>
      </trkpt>
      <trkpt lat="44.80809" lon="4.79466">
        <ele>108</ele>
        <time>2012-09-08T16:36:31Z</time>
      </trkpt>
      <trkpt lat="44.8081" lon="4.79474">
        <ele>108</ele>
        <time>2012-09-08T16:36:32Z</time>
      </trkpt>
      <trkpt lat="44.80812" lon="4.79481">
        <ele>107</ele>
        <time>2012-09-08T16:36:33Z</time>
      </trkpt>
      <trkpt lat="44.80814" lon="4.79488">
        <ele>107</ele>
        <time>2012-09-08T16:36:34Z</time>
      </trkpt>
      <trkpt lat="44.80817" lon="4.79494">
        <ele>107</ele>
        <time>2012-09-08T16:36:35Z</time>
      </trkpt>
      <trkpt lat="44.80821" lon="4.79501">
        <ele>107</ele>
        <time>2012-09-08T16:36:36Z</time>
      </trkpt>
      <trkpt lat="44.80861" lon="4.7955">
        <ele>107</ele>
        <time>2012-09-08T16:36:45Z</time>
      </trkpt>
      <trkpt lat="44.80897" lon="4.7959">
        <ele>107</ele>
        <time>2012-09-08T16:36:54Z</time>
      </trkpt>
      <trkpt lat="44.80898" lon="4.79596">
        <ele>107</ele>
        <time>2012-09-08T16:36:55Z</time>
      </trkpt>
      <trkpt lat="44.809" lon="4.79601">
        <ele>107</ele>
        <time>2012-09-08T16:36:56Z</time>
      </trkpt>
      <trkpt lat="44.80902" lon="4.79606">
        <ele>107</ele>
        <time>2012-09-08T16:36:57Z</time>
      </trkpt>
      <trkpt lat="44.80906" lon="4.79609">
        <ele>107</ele>
        <time>2012-09-08T16:36:58Z</time>
      </trkpt>
      <trkpt lat="44.8091" lon="4.79613">
        <ele>107</ele>
        <time>2012-09-08T16:36:59Z</time>
      </trkpt>
      <trkpt lat="44.80915" lon="4.79616">
        <ele>107</ele>
        <time>2012-09-08T16:37:00Z</time>
      </trkpt>
      <trkpt lat="44.80955" lon="4.79652">
        <ele>107</ele>
        <time>2012-09-08T16:37:09Z</time>
      </trkpt>
      <trkpt lat="44.81005" lon="4.79686">
        <ele>107</ele>
        <time>2012-09-08T16:37:19Z</time>
      </trkpt>
      <trkpt lat="44.81076" lon="4.7973">
        <ele>107</ele>
        <time>2012-09-08T16:37:33Z</time>
      </trkpt>
      <trkpt lat="44.81128" lon="4.79764">
        <ele>108</ele>
        <time>2012-09-08T16:37:43Z</time>
      </trkpt>
      <trkpt lat="44.81173" lon="4.79777">
        <ele>108</ele>
        <time>2012-09-08T16:37:51Z</time>
      </trkpt>
      <trkpt lat="44.81231" lon="4.79788">
        <ele>106</ele>
        <time>2012-09-08T16:38:01Z</time>
      </trkpt>
      <trkpt lat="44.81281" lon="4.79801">
        <ele>108</ele>
        <time>2012-09-08T16:38:11Z</time>
      </trkpt>
      <trkpt lat="44.8129" lon="4.79804">
        <ele>108</ele>
        <time>2012-09-08T16:38:13Z</time>
      </trkpt>
      <trkpt lat="44.81294" lon="4.79806">
        <ele>108</ele>
        <time>2012-09-08T16:38:14Z</time>
      </trkpt>
      <trkpt lat="44.81297" lon="4.79808">
        <ele>109</ele>
        <time>2012-09-08T16:38:15Z</time>
      </trkpt>
      <trkpt lat="44.81323" lon="4.79835">
        <ele>107</ele>
        <time>2012-09-08T16:38:22Z</time>
      </trkpt>
      <trkpt lat="44.81362" lon="4.79859">
        <ele>107</ele>
        <time>2012-09-08T16:38:31Z</time>
      </trkpt>
      <trkpt lat="44.814" lon="4.79872">
        <ele>108</ele>
        <time>2012-09-08T16:38:39Z</time>
      </trkpt>
      <trkpt lat="44.8141" lon="4.79874">
        <ele>108</ele>
        <time>2012-09-08T16:38:41Z</time>
      </trkpt>
      <trkpt lat="44.81439" lon="4.79884">
        <ele>108</ele>
        <time>2012-09-08T16:38:47Z</time>
      </trkpt>
      <trkpt lat="44.81459" lon="4.79887">
        <ele>108</ele>
        <time>2012-09-08T16:38:51Z</time>
      </trkpt>
      <trkpt lat="44.81464" lon="4.79888">
        <ele>108</ele>
        <time>2012-09-08T16:38:52Z</time>
      </trkpt>
      <trkpt lat="44.81488" lon="4.79895">
        <ele>108</ele>
        <time>2012-09-08T16:38:57Z</time>
      </trkpt>
      <trkpt lat="44.81492" lon="4.79896">
        <ele>107</ele>
        <time>2012-09-08T16:38:58Z</time>
      </trkpt>
      <trkpt lat="44.81497" lon="4.79896">
        <ele>107</ele>
        <time>2012-09-08T16:38:59Z</time>
      </trkpt>
      <trkpt lat="44.81516" lon="4.79897">
        <ele>107</ele>
        <time>2012-09-08T16:39:03Z</time>
      </trkpt>
      <trkpt lat="44.81531" lon="4.79895">
        <ele>106</ele>
        <time>2012-09-08T16:39:08Z</time>
      </trkpt>
      <trkpt lat="44.81529" lon="4.79896">
        <ele>107</ele>
        <time>2012-09-08T16:39:14Z</time>
      </trkpt>
      <trkpt lat="44.81526" lon="4.79896">
        <ele>107</ele>
        <time>2012-09-08T16:39:16Z</time>
      </trkpt>
      <trkpt lat="44.81524" lon="4.79896">
        <ele>107</ele>
        <time>2012-09-08T16:39:17Z</time>
      </trkpt>
      <trkpt lat="44.81522" lon="4.79897">
        <ele>107</ele>
        <time>2012-09-08T16:39:18Z</time>
      </trkpt>
      <trkpt lat="44.81519" lon="4.79897">
        <ele>107</ele>
        <time>2012-09-08T16:39:19Z</time>
      </trkpt>
      <trkpt lat="44.81516" lon="4.79896">
        <ele>107</ele>
        <time>2012-09-08T16:39:20Z</time>
      </trkpt>
      <trkpt lat="44.81513" lon="4.79896">
        <ele>107</ele>
        <time>2012-09-08T16:39:21Z</time>
      </trkpt>
      <trkpt lat="44.8151" lon="4.79896">
        <ele>107</ele>
        <time>2012-09-08T16:39:22Z</time>
      </trkpt>
      <trkpt lat="44.81507" lon="4.79896">
        <ele>107</ele>
        <time>2012-09-08T16:39:23Z</time>
      </trkpt>
      <trkpt lat="44.81505" lon="4.79897">
        <ele>107</ele>
        <time>2012-09-08T16:39:24Z</time>
      </trkpt>
      <trkpt lat="44.81503" lon="4.79898">
        <ele>107</ele>
        <time>2012-09-08T16:39:25Z</time>
      </trkpt>
      <trkpt lat="44.81501" lon="4.79897">
        <ele>107</ele>
        <time>2012-09-08T16:39:26Z</time>
      </trkpt>
      <trkpt lat="44.815" lon="4.79895">
        <ele>107</ele>
        <time>2012-09-08T16:39:27Z</time>
      </trkpt>
      <trkpt lat="44.81503" lon="4.79894">
        <ele>107</ele>
        <time>2012-09-08T16:39:29Z</time>
      </trkpt>
      <trkpt lat="44.81506" lon="4.79894">
        <ele>107</ele>
        <time>2012-09-08T16:39:30Z</time>
      </trkpt>
      <trkpt lat="44.81517" lon="4.79898">
        <ele>107</ele>
        <time>2012-09-08T16:39:34Z</time>
      </trkpt>
      <trkpt lat="44.81522" lon="4.79908">
        <ele>105</ele>
        <time>2012-09-08T16:39:36Z</time>
      </trkpt>
      <trkpt lat="44.81525" lon="4.79914">
        <ele>104</ele>
        <time>2012-09-08T16:39:37Z</time>
      </trkpt>
      <trkpt lat="44.81529" lon="4.7992">
        <ele>104</ele>
        <time>2012-09-08T16:39:38Z</time>
      </trkpt>
      <trkpt lat="44.81533" lon="4.79924">
        <ele>103</ele>
        <time>2012-09-08T16:39:39Z</time>
      </trkpt>
      <trkpt lat="44.81537" lon="4.79929">
        <ele>103</ele>
        <time>2012-09-08T16:39:40Z</time>
      </trkpt>
      <trkpt lat="44.81541" lon="4.79934">
        <ele>103</ele>
        <time>2012-09-08T16:39:41Z</time>
      </trkpt>
      <trkpt lat="44.81543" lon="4.79939">
        <ele>103</ele>
        <time>2012-09-08T16:39:42Z</time>
      </trkpt>
      <trkpt lat="44.81544" lon="4.79943">
        <ele>103</ele>
        <time>2012-09-08T16:39:43Z</time>
      </trkpt>
      <trkpt lat="44.81546" lon="4.79946">
        <ele>104</ele>
        <time>2012-09-08T16:39:44Z</time>
      </trkpt>
      <trkpt lat="44.81547" lon="4.79949">
        <ele>103</ele>
        <time>2012-09-08T16:39:45Z</time>
      </trkpt>
      <trkpt lat="44.81559" lon="4.79963">
        <ele>103</ele>
        <time>2012-09-08T16:39:51Z</time>
      </trkpt>
      <trkpt lat="44.81572" lon="4.79985">
        <ele>104</ele>
        <time>2012-09-08T16:39:57Z</time>
      </trkpt>
      <trkpt lat="44.81592" lon="4.80017">
        <ele>104</ele>
        <time>2012-09-08T16:40:04Z</time>
      </trkpt>
      <trkpt lat="44.81612" lon="4.80049">
        <ele>104</ele>
        <time>2012-09-08T16:40:11Z</time>
      </trkpt>
      <trkpt lat="44.81635" lon="4.80091">
        <ele>105</ele>
        <time>2012-09-08T16:40:20Z</time>
      </trkpt>
      <trkpt lat="44.81655" lon="4.80123">
        <ele>105</ele>
        <time>2012-09-08T16:40:28Z</time>
      </trkpt>
      <trkpt lat="44.8167" lon="4.80144">
        <ele>106</ele>
        <time>2012-09-08T16:40:35Z</time>
      </trkpt>
      <trkpt lat="44.81674" lon="4.80147">
        <ele>106</ele>
        <time>2012-09-08T16:40:37Z</time>
      </trkpt>
      <trkpt lat="44.81677" lon="4.80148">
        <ele>105</ele>
        <time>2012-09-08T16:40:38Z</time>
      </trkpt>
      <trkpt lat="44.81681" lon="4.80148">
        <ele>105</ele>
        <time>2012-09-08T16:40:39Z</time>
      </trkpt>
      <trkpt lat="44.81685" lon="4.80148">
        <ele>105</ele>
        <time>2012-09-08T16:40:40Z</time>
      </trkpt>
      <trkpt lat="44.81689" lon="4.80149">
        <ele>105</ele>
        <time>2012-09-08T16:40:41Z</time>
      </trkpt>
      <trkpt lat="44.81721" lon="4.8015">
        <ele>106</ele>
        <time>2012-09-08T16:40:49Z</time>
      </trkpt>
      <trkpt lat="44.81754" lon="4.80146">
        <ele>106</ele>
        <time>2012-09-08T16:40:57Z</time>
      </trkpt>
      <trkpt lat="44.81762" lon="4.80145">
        <ele>106</ele>
        <time>2012-09-08T16:40:59Z</time>
      </trkpt>
      <trkpt lat="44.818" lon="4.80143">
        <ele>106</ele>
        <time>2012-09-08T16:41:08Z</time>
      </trkpt>
      <trkpt lat="44.81805" lon="4.80142">
        <ele>106</ele>
        <time>2012-09-08T16:41:09Z</time>
      </trkpt>
      <trkpt lat="44.81809" lon="4.80141">
        <ele>106</ele>
        <time>2012-09-08T16:41:10Z</time>
      </trkpt>
      <trkpt lat="44.81848" lon="4.80133">
        <ele>105</ele>
        <time>2012-09-08T16:41:18Z</time>
      </trkpt>
      <trkpt lat="44.81876" lon="4.80127">
        <ele>105</ele>
        <time>2012-09-08T16:41:24Z</time>
      </trkpt>
      <trkpt lat="44.81881" lon="4.80128">
        <ele>105</ele>
        <time>2012-09-08T16:41:25Z</time>
      </trkpt>
      <trkpt lat="44.81886" lon="4.80129">
        <ele>105</ele>
        <time>2012-09-08T16:41:26Z</time>
      </trkpt>
      <trkpt lat="44.8189" lon="4.80129">
        <ele>106</ele>
        <time>2012-09-08T16:41:27Z</time>
      </trkpt>
      <trkpt lat="44.81895" lon="4.80128">
        <ele>105</ele>
        <time>2012-09-08T16:41:28Z</time>
      </trkpt>
      <trkpt lat="44.81899" lon="4.80128">
        <ele>105</ele>
        <time>2012-09-08T16:41:29Z</time>
      </trkpt>
      <trkpt lat="44.81931" lon="4.8012">
        <ele>105</ele>
        <time>2012-09-08T16:41:36Z</time>
      </trkpt>
      <trkpt lat="44.8195" lon="4.80115">
        <ele>105</ele>
        <time>2012-09-08T16:41:40Z</time>
      </trkpt>
      <trkpt lat="44.81955" lon="4.80115">
        <ele>105</ele>
        <time>2012-09-08T16:41:41Z</time>
      </trkpt>
      <trkpt lat="44.81959" lon="4.80116">
        <ele>105</ele>
        <time>2012-09-08T16:41:42Z</time>
      </trkpt>
      <trkpt lat="44.81968" lon="4.80118">
        <ele>105</ele>
        <time>2012-09-08T16:41:44Z</time>
      </trkpt>
      <trkpt lat="44.81973" lon="4.80119">
        <ele>105</ele>
        <time>2012-09-08T16:41:45Z</time>
      </trkpt>
      <trkpt lat="44.81982" lon="4.80117">
        <ele>105</ele>
        <time>2012-09-08T16:41:47Z</time>
      </trkpt>
      <trkpt lat="44.81987" lon="4.80116">
        <ele>105</ele>
        <time>2012-09-08T16:41:48Z</time>
      </trkpt>
      <trkpt lat="44.81991" lon="4.80117">
        <ele>105</ele>
        <time>2012-09-08T16:41:49Z</time>
      </trkpt>
      <trkpt lat="44.81996" lon="4.80117">
        <ele>105</ele>
        <time>2012-09-08T16:41:50Z</time>
      </trkpt>
      <trkpt lat="44.82001" lon="4.80117">
        <ele>105</ele>
        <time>2012-09-08T16:41:51Z</time>
      </trkpt>
      <trkpt lat="44.82005" lon="4.80116">
        <ele>105</ele>
        <time>2012-09-08T16:41:52Z</time>
      </trkpt>
      <trkpt lat="44.82014" lon="4.80114">
        <ele>105</ele>
        <time>2012-09-08T16:41:54Z</time>
      </trkpt>
      <trkpt lat="44.82019" lon="4.80112">
        <ele>105</ele>
        <time>2012-09-08T16:41:55Z</time>
      </trkpt>
      <trkpt lat="44.82023" lon="4.8011">
        <ele>105</ele>
        <time>2012-09-08T16:41:56Z</time>
      </trkpt>
      <trkpt lat="44.82028" lon="4.80108">
        <ele>105</ele>
        <time>2012-09-08T16:41:57Z</time>
      </trkpt>
      <trkpt lat="44.82033" lon="4.80107">
        <ele>105</ele>
        <time>2012-09-08T16:41:58Z</time>
      </trkpt>
      <trkpt lat="44.82037" lon="4.80107">
        <ele>105</ele>
        <time>2012-09-08T16:41:59Z</time>
      </trkpt>
      <trkpt lat="44.82042" lon="4.80107">
        <ele>105</ele>
        <time>2012-09-08T16:42:00Z</time>
      </trkpt>
      <trkpt lat="44.82046" lon="4.80107">
        <ele>105</ele>
        <time>2012-09-08T16:42:01Z</time>
      </trkpt>
      <trkpt lat="44.8205" lon="4.80108">
        <ele>105</ele>
        <time>2012-09-08T16:42:02Z</time>
      </trkpt>
      <trkpt lat="44.82059" lon="4.80107">
        <ele>105</ele>
        <time>2012-09-08T16:42:04Z</time>
      </trkpt>
      <trkpt lat="44.82077" lon="4.80102">
        <ele>106</ele>
        <time>2012-09-08T16:42:08Z</time>
      </trkpt>
      <trkpt lat="44.82111" lon="4.80095">
        <ele>106</ele>
        <time>2012-09-08T16:42:16Z</time>
      </trkpt>
      <trkpt lat="44.82145" lon="4.80079">
        <ele>106</ele>
        <time>2012-09-08T16:42:25Z</time>
      </trkpt>
      <trkpt lat="44.82178" lon="4.80058">
        <ele>106</ele>
        <time>2012-09-08T16:42:34Z</time>
      </trkpt>
      <trkpt lat="44.82182" lon="4.80055">
        <ele>106</ele>
        <time>2012-09-08T16:42:35Z</time>
      </trkpt>
      <trkpt lat="44.82185" lon="4.80052">
        <ele>106</ele>
        <time>2012-09-08T16:42:36Z</time>
      </trkpt>
      <trkpt lat="44.82189" lon="4.80048">
        <ele>106</ele>
        <time>2012-09-08T16:42:37Z</time>
      </trkpt>
      <trkpt lat="44.82192" lon="4.80043">
        <ele>107</ele>
        <time>2012-09-08T16:42:38Z</time>
      </trkpt>
      <trkpt lat="44.82195" lon="4.80039">
        <ele>106</ele>
        <time>2012-09-08T16:42:39Z</time>
      </trkpt>
      <trkpt lat="44.82197" lon="4.80034">
        <ele>106</ele>
        <time>2012-09-08T16:42:40Z</time>
      </trkpt>
      <trkpt lat="44.82201" lon="4.80031">
        <ele>106</ele>
        <time>2012-09-08T16:42:41Z</time>
      </trkpt>
      <trkpt lat="44.82204" lon="4.80027">
        <ele>106</ele>
        <time>2012-09-08T16:42:42Z</time>
      </trkpt>
      <trkpt lat="44.82231" lon="4.80004">
        <ele>106</ele>
        <time>2012-09-08T16:42:50Z</time>
      </trkpt>
      <trkpt lat="44.82262" lon="4.79981">
        <ele>106</ele>
        <time>2012-09-08T16:42:58Z</time>
      </trkpt>
      <trkpt lat="44.82279" lon="4.79962">
        <ele>106</ele>
        <time>2012-09-08T16:43:04Z</time>
      </trkpt>
      <trkpt lat="44.82296" lon="4.79949">
        <ele>106</ele>
        <time>2012-09-08T16:43:10Z</time>
      </trkpt>
      <trkpt lat="44.82316" lon="4.79931">
        <ele>106</ele>
        <time>2012-09-08T16:43:17Z</time>
      </trkpt>
      <trkpt lat="44.82337" lon="4.79902">
        <ele>107</ele>
        <time>2012-09-08T16:43:25Z</time>
      </trkpt>
      <trkpt lat="44.82351" lon="4.79879">
        <ele>108</ele>
        <time>2012-09-08T16:43:32Z</time>
      </trkpt>
      <trkpt lat="44.82364" lon="4.79852">
        <ele>110</ele>
        <time>2012-09-08T16:43:41Z</time>
      </trkpt>
      <trkpt lat="44.8237" lon="4.79829">
        <ele>111</ele>
        <time>2012-09-08T16:43:48Z</time>
      </trkpt>
      <trkpt lat="44.82376" lon="4.79805">
        <ele>111</ele>
        <time>2012-09-08T16:43:55Z</time>
      </trkpt>
      <trkpt lat="44.82377" lon="4.79802">
        <ele>111</ele>
        <time>2012-09-08T16:43:56Z</time>
      </trkpt>
      <trkpt lat="44.82379" lon="4.79802">
        <ele>111</ele>
        <time>2012-09-08T16:43:57Z</time>
      </trkpt>
      <trkpt lat="44.82381" lon="4.79803">
        <ele>111</ele>
        <time>2012-09-08T16:43:58Z</time>
      </trkpt>
      <trkpt lat="44.82383" lon="4.79805">
        <ele>111</ele>
        <time>2012-09-08T16:43:59Z</time>
      </trkpt>
      <trkpt lat="44.82385" lon="4.79809">
        <ele>112</ele>
        <time>2012-09-08T16:44:00Z</time>
      </trkpt>
      <trkpt lat="44.82387" lon="4.79812">
        <ele>111</ele>
        <time>2012-09-08T16:44:01Z</time>
      </trkpt>
      <trkpt lat="44.82405" lon="4.79847">
        <ele>112</ele>
        <time>2012-09-08T16:44:10Z</time>
      </trkpt>
      <trkpt lat="44.82437" lon="4.79911">
        <ele>112</ele>
        <time>2012-09-08T16:44:24Z</time>
      </trkpt>
      <trkpt lat="44.82463" lon="4.79961">
        <ele>112</ele>
        <time>2012-09-08T16:44:35Z</time>
      </trkpt>
      <trkpt lat="44.82488" lon="4.80008">
        <ele>111</ele>
        <time>2012-09-08T16:44:46Z</time>
      </trkpt>
      <trkpt lat="44.82503" lon="4.80043">
        <ele>110</ele>
        <time>2012-09-08T16:44:52Z</time>
      </trkpt>
      <trkpt lat="44.82506" lon="4.80049">
        <ele>110</ele>
        <time>2012-09-08T16:44:53Z</time>
      </trkpt>
      <trkpt lat="44.8251" lon="4.80054">
        <ele>111</ele>
        <time>2012-09-08T16:44:54Z</time>
      </trkpt>
      <trkpt lat="44.82513" lon="4.8006">
        <ele>110</ele>
        <time>2012-09-08T16:44:55Z</time>
      </trkpt>
      <trkpt lat="44.82516" lon="4.80066">
        <ele>110</ele>
        <time>2012-09-08T16:44:56Z</time>
      </trkpt>
      <trkpt lat="44.82546" lon="4.80116">
        <ele>109</ele>
        <time>2012-09-08T16:45:05Z</time>
      </trkpt>
      <trkpt lat="44.82549" lon="4.80121">
        <ele>109</ele>
        <time>2012-09-08T16:45:06Z</time>
      </trkpt>
      <trkpt lat="44.82574" lon="4.80175">
        <ele>109</ele>
        <time>2012-09-08T16:45:16Z</time>
      </trkpt>
      <trkpt lat="44.82609" lon="4.80242">
        <ele>109</ele>
        <time>2012-09-08T16:45:28Z</time>
      </trkpt>
      <trkpt lat="44.82628" lon="4.80285">
        <ele>109</ele>
        <time>2012-09-08T16:45:36Z</time>
      </trkpt>
      <trkpt lat="44.8263" lon="4.80286">
        <ele>109</ele>
        <time>2012-09-08T16:45:40Z</time>
      </trkpt>
      <trkpt lat="44.8263" lon="4.80285">
        <ele>109</ele>
        <time>2012-09-08T16:45:50Z</time>
      </trkpt>
      <trkpt lat="44.82628" lon="4.80284">
        <ele>108</ele>
        <time>2012-09-08T16:45:51Z</time>
      </trkpt>
      <trkpt lat="44.82626" lon="4.80282">
        <ele>108</ele>
        <time>2012-09-08T16:45:52Z</time>
      </trkpt>
      <trkpt lat="44.82622" lon="4.80281">
        <ele>108</ele>
        <time>2012-09-08T16:45:53Z</time>
      </trkpt>
      <trkpt lat="44.82617" lon="4.80279">
        <ele>108</ele>
        <time>2012-09-08T16:45:54Z</time>
      </trkpt>
      <trkpt lat="44.82612" lon="4.80277">
        <ele>108</ele>
        <time>2012-09-08T16:45:55Z</time>
      </trkpt>
      <trkpt lat="44.82606" lon="4.80277">
        <ele>108</ele>
        <time>2012-09-08T16:45:56Z</time>
      </trkpt>
      <trkpt lat="44.82601" lon="4.80279">
        <ele>108</ele>
        <time>2012-09-08T16:45:57Z</time>
      </trkpt>
      <trkpt lat="44.82597" lon="4.80284">
        <ele>107</ele>
        <time>2012-09-08T16:45:58Z</time>
      </trkpt>
      <trkpt lat="44.82592" lon="4.80289">
        <ele>107</ele>
        <time>2012-09-08T16:45:59Z</time>
      </trkpt>
      <trkpt lat="44.82588" lon="4.80296">
        <ele>107</ele>
        <time>2012-09-08T16:46:00Z</time>
      </trkpt>
      <trkpt lat="44.82583" lon="4.80302">
        <ele>107</ele>
        <time>2012-09-08T16:46:01Z</time>
      </trkpt>
      <trkpt lat="44.82573" lon="4.80313">
        <ele>107</ele>
        <time>2012-09-08T16:46:03Z</time>
      </trkpt>
      <trkpt lat="44.8257" lon="4.8032">
        <ele>107</ele>
        <time>2012-09-08T16:46:04Z</time>
      </trkpt>
      <trkpt lat="44.82567" lon="4.80327">
        <ele>106</ele>
        <time>2012-09-08T16:46:05Z</time>
      </trkpt>
      <trkpt lat="44.82565" lon="4.80334">
        <ele>107</ele>
        <time>2012-09-08T16:46:06Z</time>
      </trkpt>
      <trkpt lat="44.82562" lon="4.80341">
        <ele>107</ele>
        <time>2012-09-08T16:46:07Z</time>
      </trkpt>
      <trkpt lat="44.82545" lon="4.804">
        <ele>107</ele>
        <time>2012-09-08T16:46:16Z</time>
      </trkpt>
      <trkpt lat="44.82525" lon="4.80468">
        <ele>107</ele>
        <time>2012-09-08T16:46:26Z</time>
      </trkpt>
      <trkpt lat="44.82507" lon="4.80521">
        <ele>107</ele>
        <time>2012-09-08T16:46:34Z</time>
      </trkpt>
      <trkpt lat="44.82503" lon="4.80526">
        <ele>107</ele>
        <time>2012-09-08T16:46:35Z</time>
      </trkpt>
      <trkpt lat="44.8247" lon="4.80566">
        <ele>108</ele>
        <time>2012-09-08T16:46:43Z</time>
      </trkpt>
      <trkpt lat="44.82456" lon="4.80587">
        <ele>108</ele>
        <time>2012-09-08T16:46:47Z</time>
      </trkpt>
      <trkpt lat="44.82448" lon="4.80605">
        <ele>108</ele>
        <time>2012-09-08T16:46:50Z</time>
      </trkpt>
      <trkpt lat="44.82445" lon="4.80612">
        <ele>108</ele>
        <time>2012-09-08T16:46:51Z</time>
      </trkpt>
      <trkpt lat="44.82434" lon="4.80667">
        <ele>108</ele>
        <time>2012-09-08T16:46:59Z</time>
      </trkpt>
      <trkpt lat="44.82417" lon="4.80753">
        <ele>108</ele>
        <time>2012-09-08T16:47:11Z</time>
      </trkpt>
      <trkpt lat="44.82402" lon="4.80826">
        <ele>107</ele>
        <time>2012-09-08T16:47:20Z</time>
      </trkpt>
      <trkpt lat="44.82397" lon="4.80856">
        <ele>106</ele>
        <time>2012-09-08T16:47:24Z</time>
      </trkpt>
      <trkpt lat="44.82395" lon="4.80862">
        <ele>107</ele>
        <time>2012-09-08T16:47:25Z</time>
      </trkpt>
      <trkpt lat="44.82394" lon="4.80868">
        <ele>108</ele>
        <time>2012-09-08T16:47:26Z</time>
      </trkpt>
      <trkpt lat="44.8239" lon="4.80907">
        <ele>111</ele>
        <time>2012-09-08T16:47:33Z</time>
      </trkpt>
      <trkpt lat="44.82376" lon="4.80978">
        <ele>112</ele>
        <time>2012-09-08T16:47:43Z</time>
      </trkpt>
      <trkpt lat="44.82365" lon="4.81033">
        <ele>111</ele>
        <time>2012-09-08T16:47:51Z</time>
      </trkpt>
      <trkpt lat="44.82349" lon="4.81119">
        <ele>110</ele>
        <time>2012-09-08T16:48:03Z</time>
      </trkpt>
      <trkpt lat="44.82334" lon="4.81195">
        <ele>111</ele>
        <time>2012-09-08T16:48:13Z</time>
      </trkpt>
      <trkpt lat="44.8232" lon="4.81273">
        <ele>111</ele>
        <time>2012-09-08T16:48:23Z</time>
      </trkpt>
      <trkpt lat="44.82319" lon="4.81281">
        <ele>111</ele>
        <time>2012-09-08T16:48:24Z</time>
      </trkpt>
      <trkpt lat="44.82317" lon="4.81305">
        <ele>112</ele>
        <time>2012-09-08T16:48:27Z</time>
      </trkpt>
      <trkpt lat="44.8231" lon="4.81357">
        <ele>112</ele>
        <time>2012-09-08T16:48:35Z</time>
      </trkpt>
      <trkpt lat="44.82319" lon="4.81371">
        <ele>111</ele>
        <time>2012-09-08T16:48:39Z</time>
      </trkpt>
      <trkpt lat="44.82329" lon="4.81367">
        <ele>111</ele>
        <time>2012-09-08T16:48:42Z</time>
      </trkpt>
      <trkpt lat="44.82331" lon="4.81364">
        <ele>111</ele>
        <time>2012-09-08T16:48:43Z</time>
      </trkpt>
      <trkpt lat="44.82332" lon="4.8136">
        <ele>111</ele>
        <time>2012-09-08T16:48:44Z</time>
      </trkpt>
      <trkpt lat="44.82338" lon="4.81343">
        <ele>112</ele>
        <time>2012-09-08T16:48:50Z</time>
      </trkpt>
      <trkpt lat="44.82349" lon="4.81311">
        <ele>114</ele>
        <time>2012-09-08T16:48:58Z</time>
      </trkpt>
      <trkpt lat="44.82364" lon="4.81292">
        <ele>115</ele>
        <time>2012-09-08T16:49:05Z</time>
      </trkpt>
      <trkpt lat="44.82388" lon="4.81299">
        <ele>115</ele>
        <time>2012-09-08T16:49:12Z</time>
      </trkpt>
      <trkpt lat="44.82399" lon="4.81301">
        <ele>115</ele>
        <time>2012-09-08T16:49:16Z</time>
      </trkpt>
      <trkpt lat="44.82402" lon="4.81303">
        <ele>115</ele>
        <time>2012-09-08T16:49:17Z</time>
      </trkpt>
      <trkpt lat="44.82424" lon="4.81318">
        <ele>115</ele>
        <time>2012-09-08T16:49:24Z</time>
      </trkpt>
      <trkpt lat="44.82435" lon="4.81324">
        <ele>115</ele>
        <time>2012-09-08T16:49:27Z</time>
      </trkpt>
      <trkpt lat="44.82439" lon="4.81327">
        <ele>115</ele>
        <time>2012-09-08T16:49:28Z</time>
      </trkpt>
      <trkpt lat="44.82475" lon="4.81343">
        <ele>115</ele>
        <time>2012-09-08T16:49:37Z</time>
      </trkpt>
      <trkpt lat="44.8252" lon="4.81364">
        <ele>115</ele>
        <time>2012-09-08T16:49:48Z</time>
      </trkpt>
      <trkpt lat="44.82565" lon="4.81384">
        <ele>115</ele>
        <time>2012-09-08T16:49:58Z</time>
      </trkpt>
      <trkpt lat="44.8261" lon="4.81405">
        <ele>115</ele>
        <time>2012-09-08T16:50:08Z</time>
      </trkpt>
      <trkpt lat="44.82656" lon="4.81425">
        <ele>115</ele>
        <time>2012-09-08T16:50:18Z</time>
      </trkpt>
      <trkpt lat="44.82705" lon="4.81447">
        <ele>115</ele>
        <time>2012-09-08T16:50:29Z</time>
      </trkpt>
      <trkpt lat="44.82764" lon="4.81474">
        <ele>115</ele>
        <time>2012-09-08T16:50:42Z</time>
      </trkpt>
      <trkpt lat="44.82819" lon="4.81499">
        <ele>115</ele>
        <time>2012-09-08T16:50:54Z</time>
      </trkpt>
      <trkpt lat="44.82864" lon="4.81519">
        <ele>115</ele>
        <time>2012-09-08T16:51:04Z</time>
      </trkpt>
      <trkpt lat="44.8293" lon="4.81548">
        <ele>115</ele>
        <time>2012-09-08T16:51:18Z</time>
      </trkpt>
      <trkpt lat="44.82986" lon="4.81572">
        <ele>115</ele>
        <time>2012-09-08T16:51:30Z</time>
      </trkpt>
      <trkpt lat="44.83023" lon="4.81589">
        <ele>114</ele>
        <time>2012-09-08T16:51:38Z</time>
      </trkpt>
      <trkpt lat="44.83027" lon="4.8159">
        <ele>115</ele>
        <time>2012-09-08T16:51:39Z</time>
      </trkpt>
      <trkpt lat="44.83032" lon="4.81591">
        <ele>115</ele>
        <time>2012-09-08T16:51:40Z</time>
      </trkpt>
      <trkpt lat="44.83086" lon="4.81616">
        <ele>115</ele>
        <time>2012-09-08T16:51:52Z</time>
      </trkpt>
      <trkpt lat="44.83145" lon="4.81644">
        <ele>115</ele>
        <time>2012-09-08T16:52:05Z</time>
      </trkpt>
      <trkpt lat="44.83197" lon="4.81668">
        <ele>115</ele>
        <time>2012-09-08T16:52:16Z</time>
      </trkpt>
      <trkpt lat="44.83265" lon="4.81699">
        <ele>115</ele>
        <time>2012-09-08T16:52:30Z</time>
      </trkpt>
      <trkpt lat="44.83344" lon="4.81734">
        <ele>115</ele>
        <time>2012-09-08T16:52:46Z</time>
      </trkpt>
      <trkpt lat="44.83408" lon="4.81762">
        <ele>115</ele>
        <time>2012-09-08T16:52:59Z</time>
      </trkpt>
      <trkpt lat="44.83443" lon="4.81777">
        <ele>114</ele>
        <time>2012-09-08T16:53:08Z</time>
      </trkpt>
      <trkpt lat="44.83445" lon="4.8178">
        <ele>115</ele>
        <time>2012-09-08T16:53:09Z</time>
      </trkpt>
      <trkpt lat="44.83446" lon="4.81785">
        <ele>114</ele>
        <time>2012-09-08T16:53:10Z</time>
      </trkpt>
      <trkpt lat="44.83446" lon="4.81809">
        <ele>111</ele>
        <time>2012-09-08T16:53:15Z</time>
      </trkpt>
      <trkpt lat="44.83445" lon="4.81839">
        <ele>110</ele>
        <time>2012-09-08T16:53:21Z</time>
      </trkpt>
      <trkpt lat="44.83444" lon="4.81845">
        <ele>109</ele>
        <time>2012-09-08T16:53:22Z</time>
      </trkpt>
      <trkpt lat="44.83443" lon="4.81851">
        <ele>110</ele>
        <time>2012-09-08T16:53:23Z</time>
      </trkpt>
      <trkpt lat="44.83441" lon="4.81863">
        <ele>109</ele>
        <time>2012-09-08T16:53:25Z</time>
      </trkpt>
      <trkpt lat="44.83442" lon="4.81869">
        <ele>109</ele>
        <time>2012-09-08T16:53:26Z</time>
      </trkpt>
      <trkpt lat="44.83444" lon="4.81874">
        <ele>109</ele>
        <time>2012-09-08T16:53:27Z</time>
      </trkpt>
      <trkpt lat="44.83448" lon="4.81877">
        <ele>109</ele>
        <time>2012-09-08T16:53:28Z</time>
      </trkpt>
      <trkpt lat="44.83451" lon="4.81879">
        <ele>108</ele>
        <time>2012-09-08T16:53:29Z</time>
      </trkpt>
      <trkpt lat="44.83455" lon="4.81879">
        <ele>108</ele>
        <time>2012-09-08T16:53:30Z</time>
      </trkpt>
      <trkpt lat="44.83459" lon="4.81879">
        <ele>108</ele>
        <time>2012-09-08T16:53:31Z</time>
      </trkpt>
      <trkpt lat="44.83463" lon="4.81878">
        <ele>109</ele>
        <time>2012-09-08T16:53:32Z</time>
      </trkpt>
      <trkpt lat="44.83471" lon="4.81877">
        <ele>109</ele>
        <time>2012-09-08T16:53:34Z</time>
      </trkpt>
      <trkpt lat="44.83475" lon="4.81876">
        <ele>109</ele>
        <time>2012-09-08T16:53:35Z</time>
      </trkpt>
      <trkpt lat="44.83496" lon="4.81874">
        <ele>109</ele>
        <time>2012-09-08T16:53:40Z</time>
      </trkpt>
      <trkpt lat="44.83513" lon="4.81877">
        <ele>109</ele>
        <time>2012-09-08T16:53:44Z</time>
      </trkpt>
      <trkpt lat="44.83517" lon="4.81877">
        <ele>109</ele>
        <time>2012-09-08T16:53:45Z</time>
      </trkpt>
      <trkpt lat="44.83539" lon="4.81882">
        <ele>109</ele>
        <time>2012-09-08T16:53:50Z</time>
      </trkpt>
      <trkpt lat="44.83548" lon="4.81883">
        <ele>109</ele>
        <time>2012-09-08T16:53:52Z</time>
      </trkpt>
      <trkpt lat="44.83553" lon="4.81884">
        <ele>109</ele>
        <time>2012-09-08T16:53:53Z</time>
      </trkpt>
      <trkpt lat="44.83566" lon="4.8189">
        <ele>109</ele>
        <time>2012-09-08T16:53:56Z</time>
      </trkpt>
      <trkpt lat="44.83575" lon="4.81892">
        <ele>109</ele>
        <time>2012-09-08T16:53:58Z</time>
      </trkpt>
      <trkpt lat="44.83616" lon="4.81902">
        <ele>109</ele>
        <time>2012-09-08T16:54:07Z</time>
      </trkpt>
      <trkpt lat="44.8367" lon="4.81924">
        <ele>109</ele>
        <time>2012-09-08T16:54:19Z</time>
      </trkpt>
      <trkpt lat="44.83718" lon="4.8195">
        <ele>109</ele>
        <time>2012-09-08T16:54:30Z</time>
      </trkpt>
      <trkpt lat="44.83731" lon="4.81956">
        <ele>109</ele>
        <time>2012-09-08T16:54:33Z</time>
      </trkpt>
      <trkpt lat="44.83735" lon="4.81957">
        <ele>108</ele>
        <time>2012-09-08T16:54:34Z</time>
      </trkpt>
      <trkpt lat="44.83775" lon="4.81977">
        <ele>109</ele>
        <time>2012-09-08T16:54:43Z</time>
      </trkpt>
      <trkpt lat="44.83819" lon="4.81999">
        <ele>110</ele>
        <time>2012-09-08T16:54:53Z</time>
      </trkpt>
      <trkpt lat="44.83832" lon="4.82006">
        <ele>109</ele>
        <time>2012-09-08T16:54:56Z</time>
      </trkpt>
      <trkpt lat="44.83836" lon="4.8201">
        <ele>109</ele>
        <time>2012-09-08T16:54:57Z</time>
      </trkpt>
      <trkpt lat="44.8384" lon="4.82013">
        <ele>109</ele>
        <time>2012-09-08T16:54:58Z</time>
      </trkpt>
      <trkpt lat="44.83871" lon="4.82029">
        <ele>109</ele>
        <time>2012-09-08T16:55:05Z</time>
      </trkpt>
      <trkpt lat="44.8392" lon="4.82056">
        <ele>109</ele>
        <time>2012-09-08T16:55:16Z</time>
      </trkpt>
      <trkpt lat="44.83954" lon="4.82082">
        <ele>109</ele>
        <time>2012-09-08T16:55:24Z</time>
      </trkpt>
      <trkpt lat="44.83992" lon="4.82122">
        <ele>108</ele>
        <time>2012-09-08T16:55:34Z</time>
      </trkpt>
      <trkpt lat="44.84044" lon="4.82183">
        <ele>109</ele>
        <time>2012-09-08T16:55:48Z</time>
      </trkpt>
      <trkpt lat="44.84092" lon="4.8224">
        <ele>109</ele>
        <time>2012-09-08T16:56:01Z</time>
      </trkpt>
      <trkpt lat="44.84124" lon="4.82292">
        <ele>109</ele>
        <time>2012-09-08T16:56:11Z</time>
      </trkpt>
      <trkpt lat="44.84162" lon="4.82355">
        <ele>108</ele>
        <time>2012-09-08T16:56:23Z</time>
      </trkpt>
      <trkpt lat="44.84192" lon="4.82407">
        <ele>108</ele>
        <time>2012-09-08T16:56:33Z</time>
      </trkpt>
      <trkpt lat="44.84222" lon="4.8246">
        <ele>108</ele>
        <time>2012-09-08T16:56:43Z</time>
      </trkpt>
      <trkpt lat="44.84226" lon="4.82465">
        <ele>109</ele>
        <time>2012-09-08T16:56:44Z</time>
      </trkpt>
      <trkpt lat="44.84241" lon="4.82484">
        <ele>108</ele>
        <time>2012-09-08T16:56:48Z</time>
      </trkpt>
      <trkpt lat="44.84258" lon="4.82506">
        <ele>108</ele>
        <time>2012-09-08T16:56:53Z</time>
      </trkpt>
      <trkpt lat="44.84284" lon="4.82557">
        <ele>108</ele>
        <time>2012-09-08T16:57:02Z</time>
      </trkpt>
      <trkpt lat="44.84318" lon="4.82615">
        <ele>108</ele>
        <time>2012-09-08T16:57:13Z</time>
      </trkpt>
      <trkpt lat="44.84352" lon="4.82671">
        <ele>108</ele>
        <time>2012-09-08T16:57:24Z</time>
      </trkpt>
      <trkpt lat="44.84367" lon="4.82694">
        <ele>108</ele>
        <time>2012-09-08T16:57:29Z</time>
      </trkpt>
      <trkpt lat="44.84379" lon="4.82713">
        <ele>108</ele>
        <time>2012-09-08T16:57:33Z</time>
      </trkpt>
      <trkpt lat="44.84408" lon="4.82761">
        <ele>108</ele>
        <time>2012-09-08T16:57:43Z</time>
      </trkpt>
      <trkpt lat="44.84436" lon="4.82807">
        <ele>108</ele>
        <time>2012-09-08T16:57:53Z</time>
      </trkpt>
      <trkpt lat="44.84466" lon="4.82854">
        <ele>108</ele>
        <time>2012-09-08T16:58:03Z</time>
      </trkpt>
      <trkpt lat="44.84477" lon="4.82872">
        <ele>108</ele>
        <time>2012-09-08T16:58:07Z</time>
      </trkpt>
      <trkpt lat="44.84481" lon="4.82876">
        <ele>108</ele>
        <time>2012-09-08T16:58:08Z</time>
      </trkpt>
      <trkpt lat="44.84484" lon="4.8288">
        <ele>108</ele>
        <time>2012-09-08T16:58:09Z</time>
      </trkpt>
      <trkpt lat="44.84487" lon="4.82885">
        <ele>108</ele>
        <time>2012-09-08T16:58:10Z</time>
      </trkpt>
      <trkpt lat="44.8449" lon="4.8289">
        <ele>108</ele>
        <time>2012-09-08T16:58:11Z</time>
      </trkpt>
      <trkpt lat="44.84499" lon="4.82904">
        <ele>108</ele>
        <time>2012-09-08T16:58:14Z</time>
      </trkpt>
      <trkpt lat="44.84502" lon="4.82909">
        <ele>108</ele>
        <time>2012-09-08T16:58:15Z</time>
      </trkpt>
      <trkpt lat="44.84532" lon="4.82958">
        <ele>108</ele>
        <time>2012-09-08T16:58:25Z</time>
      </trkpt>
      <trkpt lat="44.8457" lon="4.83019">
        <ele>108</ele>
        <time>2012-09-08T16:58:37Z</time>
      </trkpt>
      <trkpt lat="44.84602" lon="4.8307">
        <ele>109</ele>
        <time>2012-09-08T16:58:47Z</time>
      </trkpt>
      <trkpt lat="44.84638" lon="4.83126">
        <ele>108</ele>
        <time>2012-09-08T16:58:58Z</time>
      </trkpt>
      <trkpt lat="44.84679" lon="4.83192">
        <ele>109</ele>
        <time>2012-09-08T16:59:11Z</time>
      </trkpt>
      <trkpt lat="44.84709" lon="4.83241">
        <ele>108</ele>
        <time>2012-09-08T16:59:21Z</time>
      </trkpt>
      <trkpt lat="44.84733" lon="4.83279">
        <ele>108</ele>
        <time>2012-09-08T16:59:29Z</time>
      </trkpt>
      <trkpt lat="44.84757" lon="4.83316">
        <ele>109</ele>
        <time>2012-09-08T16:59:37Z</time>
      </trkpt>
      <trkpt lat="44.8476" lon="4.83321">
        <ele>109</ele>
        <time>2012-09-08T16:59:38Z</time>
      </trkpt>
      <trkpt lat="44.84794" lon="4.83377">
        <ele>109</ele>
        <time>2012-09-08T16:59:49Z</time>
      </trkpt>
      <trkpt lat="44.84822" lon="4.83422">
        <ele>109</ele>
        <time>2012-09-08T16:59:58Z</time>
      </trkpt>
      <trkpt lat="44.84838" lon="4.83447">
        <ele>109</ele>
        <time>2012-09-08T17:00:05Z</time>
      </trkpt>
      <trkpt lat="44.84838" lon="4.83447">
        <ele>108</ele>
        <time>2012-09-08T17:00:11Z</time>
      </trkpt>
      <trkpt lat="44.8484" lon="4.83448">
        <ele>108</ele>
        <time>2012-09-08T17:00:27Z</time>
      </trkpt>
      <trkpt lat="44.84838" lon="4.83447">
        <ele>108</ele>
        <time>2012-09-08T17:00:45Z</time>
      </trkpt>
      <trkpt lat="44.84837" lon="4.83448">
        <ele>108</ele>
        <time>2012-09-08T17:00:57Z</time>
      </trkpt>
      <trkpt lat="44.8484" lon="4.83451">
        <ele>108</ele>
        <time>2012-09-08T17:01:06Z</time>
      </trkpt>
      <trkpt lat="44.84853" lon="4.8347">
        <ele>108</ele>
        <time>2012-09-08T17:01:12Z</time>
      </trkpt>
      <trkpt lat="44.84874" lon="4.83504">
        <ele>109</ele>
        <time>2012-09-08T17:01:20Z</time>
      </trkpt>
      <trkpt lat="44.849" lon="4.83544">
        <ele>108</ele>
        <time>2012-09-08T17:01:29Z</time>
      </trkpt>
      <trkpt lat="44.84929" lon="4.83592">
        <ele>108</ele>
        <time>2012-09-08T17:01:39Z</time>
      </trkpt>
      <trkpt lat="44.84966" lon="4.83651">
        <ele>108</ele>
        <time>2012-09-08T17:01:51Z</time>
      </trkpt>
      <trkpt lat="44.84993" lon="4.83693">
        <ele>109</ele>
        <time>2012-09-08T17:02:00Z</time>
      </trkpt>
      <trkpt lat="44.85027" lon="4.83746">
        <ele>109</ele>
        <time>2012-09-08T17:02:11Z</time>
      </trkpt>
      <trkpt lat="44.85057" lon="4.83792">
        <ele>109</ele>
        <time>2012-09-08T17:02:21Z</time>
      </trkpt>
      <trkpt lat="44.85082" lon="4.8383">
        <ele>109</ele>
        <time>2012-09-08T17:02:30Z</time>
      </trkpt>
      <trkpt lat="44.85101" lon="4.83872">
        <ele>109</ele>
        <time>2012-09-08T17:02:38Z</time>
      </trkpt>
      <trkpt lat="44.85104" lon="4.83877">
        <ele>109</ele>
        <time>2012-09-08T17:02:39Z</time>
      </trkpt>
      <trkpt lat="44.85106" lon="4.83882">
        <ele>109</ele>
        <time>2012-09-08T17:02:40Z</time>
      </trkpt>
      <trkpt lat="44.85109" lon="4.83887">
        <ele>109</ele>
        <time>2012-09-08T17:02:41Z</time>
      </trkpt>
      <trkpt lat="44.85112" lon="4.83892">
        <ele>108</ele>
        <time>2012-09-08T17:02:42Z</time>
      </trkpt>
      <trkpt lat="44.85136" lon="4.83928">
        <ele>109</ele>
        <time>2012-09-08T17:02:50Z</time>
      </trkpt>
      <trkpt lat="44.85168" lon="4.83961">
        <ele>109</ele>
        <time>2012-09-08T17:02:59Z</time>
      </trkpt>
      <trkpt lat="44.85198" lon="4.83995">
        <ele>110</ele>
        <time>2012-09-08T17:03:09Z</time>
      </trkpt>
      <trkpt lat="44.85229" lon="4.84032">
        <ele>112</ele>
        <time>2012-09-08T17:03:21Z</time>
      </trkpt>
      <trkpt lat="44.8525" lon="4.84059">
        <ele>114</ele>
        <time>2012-09-08T17:03:30Z</time>
      </trkpt>
      <trkpt lat="44.85266" lon="4.84081">
        <ele>114</ele>
        <time>2012-09-08T17:03:37Z</time>
      </trkpt>
      <trkpt lat="44.85284" lon="4.84103">
        <ele>115</ele>
        <time>2012-09-08T17:03:45Z</time>
      </trkpt>
      <trkpt lat="44.85285" lon="4.84107">
        <ele>115</ele>
        <time>2012-09-08T17:03:46Z</time>
      </trkpt>
      <trkpt lat="44.85298" lon="4.84132">
        <ele>116</ele>
        <time>2012-09-08T17:03:54Z</time>
      </trkpt>
      <trkpt lat="44.85303" lon="4.8414">
        <ele>116</ele>
        <time>2012-09-08T17:04:00Z</time>
      </trkpt>
      <trkpt lat="44.85309" lon="4.84145">
        <ele>117</ele>
        <time>2012-09-08T17:04:06Z</time>
      </trkpt>
      <trkpt lat="44.85311" lon="4.84144">
        <ele>117</ele>
        <time>2012-09-08T17:04:07Z</time>
      </trkpt>
      <trkpt lat="44.85313" lon="4.84141">
        <ele>116</ele>
        <time>2012-09-08T17:04:08Z</time>
      </trkpt>
      <trkpt lat="44.85319" lon="4.84133">
        <ele>117</ele>
        <time>2012-09-08T17:04:11Z</time>
      </trkpt>
      <trkpt lat="44.85321" lon="4.84132">
        <ele>117</ele>
        <time>2012-09-08T17:04:12Z</time>
      </trkpt>
      <trkpt lat="44.85323" lon="4.84131">
        <ele>117</ele>
        <time>2012-09-08T17:04:13Z</time>
      </trkpt>
      <trkpt lat="44.85324" lon="4.84129">
        <ele>117</ele>
        <time>2012-09-08T17:04:14Z</time>
      </trkpt>
      <trkpt lat="44.85325" lon="4.84126">
        <ele>117</ele>
        <time>2012-09-08T17:04:15Z</time>
      </trkpt>
      <trkpt lat="44.85326" lon="4.84122">
        <ele>117</ele>
        <time>2012-09-08T17:04:16Z</time>
      </trkpt>
      <trkpt lat="44.85327" lon="4.84119">
        <ele>117</ele>
        <time>2012-09-08T17:04:17Z</time>
      </trkpt>
      <trkpt lat="44.85329" lon="4.84113">
        <ele>118</ele>
        <time>2012-09-08T17:04:24Z</time>
      </trkpt>
      <trkpt lat="44.85331" lon="4.84107">
        <ele>118</ele>
        <time>2012-09-08T17:04:35Z</time>
      </trkpt>
      <trkpt lat="44.85332" lon="4.84103">
        <ele>118</ele>
        <time>2012-09-08T17:04:42Z</time>
      </trkpt>
      <trkpt lat="44.85333" lon="4.84098">
        <ele>118</ele>
        <time>2012-09-08T17:04:51Z</time>
      </trkpt>
      <trkpt lat="44.85337" lon="4.84089">
        <ele>118</ele>
        <time>2012-09-08T17:04:56Z</time>
      </trkpt>
      <trkpt lat="44.85353" lon="4.84058">
        <ele>120</ele>
        <time>2012-09-08T17:05:01Z</time>
      </trkpt>
      <trkpt lat="44.85388" lon="4.83988">
        <ele>122</ele>
        <time>2012-09-08T17:05:09Z</time>
      </trkpt>
      <trkpt lat="44.85429" lon="4.83906">
        <ele>123</ele>
        <time>2012-09-08T17:05:17Z</time>
      </trkpt>
      <trkpt lat="44.8545" lon="4.83864">
        <ele>121</ele>
        <time>2012-09-08T17:05:21Z</time>
      </trkpt>
      <trkpt lat="44.85454" lon="4.83858">
        <ele>120</ele>
        <time>2012-09-08T17:05:22Z</time>
      </trkpt>
      <trkpt lat="44.85458" lon="4.83856">
        <ele>119</ele>
        <time>2012-09-08T17:05:23Z</time>
      </trkpt>
      <trkpt lat="44.85461" lon="4.83858">
        <ele>118</ele>
        <time>2012-09-08T17:05:24Z</time>
      </trkpt>
      <trkpt lat="44.85465" lon="4.83861">
        <ele>118</ele>
        <time>2012-09-08T17:05:25Z</time>
      </trkpt>
      <trkpt lat="44.85468" lon="4.83866">
        <ele>117</ele>
        <time>2012-09-08T17:05:26Z</time>
      </trkpt>
      <trkpt lat="44.85479" lon="4.83879">
        <ele>117</ele>
        <time>2012-09-08T17:05:29Z</time>
      </trkpt>
      <trkpt lat="44.85511" lon="4.83921">
        <ele>115</ele>
        <time>2012-09-08T17:05:37Z</time>
      </trkpt>
      <trkpt lat="44.85553" lon="4.83981">
        <ele>113</ele>
        <time>2012-09-08T17:05:48Z</time>
      </trkpt>
      <trkpt lat="44.85566" lon="4.83997">
        <ele>113</ele>
        <time>2012-09-08T17:05:52Z</time>
      </trkpt>
      <trkpt lat="44.85583" lon="4.84014">
        <ele>113</ele>
        <time>2012-09-08T17:05:57Z</time>
      </trkpt>
      <trkpt lat="44.8562" lon="4.84051">
        <ele>112</ele>
        <time>2012-09-08T17:06:07Z</time>
      </trkpt>
      <trkpt lat="44.85653" lon="4.84083">
        <ele>112</ele>
        <time>2012-09-08T17:06:16Z</time>
      </trkpt>
      <trkpt lat="44.85693" lon="4.84122">
        <ele>113</ele>
        <time>2012-09-08T17:06:27Z</time>
      </trkpt>
      <trkpt lat="44.85696" lon="4.84126">
        <ele>112</ele>
        <time>2012-09-08T17:06:28Z</time>
      </trkpt>
      <trkpt lat="44.85704" lon="4.84134">
        <ele>112</ele>
        <time>2012-09-08T17:06:30Z</time>
      </trkpt>
      <trkpt lat="44.85745" lon="4.84175">
        <ele>113</ele>
        <time>2012-09-08T17:06:41Z</time>
      </trkpt>
      <trkpt lat="44.85788" lon="4.84216">
        <ele>113</ele>
        <time>2012-09-08T17:06:52Z</time>
      </trkpt>
      <trkpt lat="44.85796" lon="4.84222">
        <ele>113</ele>
        <time>2012-09-08T17:06:54Z</time>
      </trkpt>
      <trkpt lat="44.8583" lon="4.84254">
        <ele>113</ele>
        <time>2012-09-08T17:07:03Z</time>
      </trkpt>
      <trkpt lat="44.85873" lon="4.84291">
        <ele>112</ele>
        <time>2012-09-08T17:07:14Z</time>
      </trkpt>
      <trkpt lat="44.85878" lon="4.84293">
        <ele>112</ele>
        <time>2012-09-08T17:07:15Z</time>
      </trkpt>
      <trkpt lat="44.85882" lon="4.84297">
        <ele>113</ele>
        <time>2012-09-08T17:07:16Z</time>
      </trkpt>
      <trkpt lat="44.85886" lon="4.84299">
        <ele>113</ele>
        <time>2012-09-08T17:07:17Z</time>
      </trkpt>
      <trkpt lat="44.8589" lon="4.84302">
        <ele>113</ele>
        <time>2012-09-08T17:07:18Z</time>
      </trkpt>
      <trkpt lat="44.85894" lon="4.84305">
        <ele>112</ele>
        <time>2012-09-08T17:07:19Z</time>
      </trkpt>
      <trkpt lat="44.85907" lon="4.84314">
        <ele>112</ele>
        <time>2012-09-08T17:07:22Z</time>
      </trkpt>
      <trkpt lat="44.85911" lon="4.84317">
        <ele>113</ele>
        <time>2012-09-08T17:07:23Z</time>
      </trkpt>
      <trkpt lat="44.85915" lon="4.8432">
        <ele>113</ele>
        <time>2012-09-08T17:07:24Z</time>
      </trkpt>
      <trkpt lat="44.85959" lon="4.84353">
        <ele>112</ele>
        <time>2012-09-08T17:07:35Z</time>
      </trkpt>
      <trkpt lat="44.85988" lon="4.84375">
        <ele>112</ele>
        <time>2012-09-08T17:07:42Z</time>
      </trkpt>
      <trkpt lat="44.85996" lon="4.8438">
        <ele>112</ele>
        <time>2012-09-08T17:07:44Z</time>
      </trkpt>
      <trkpt lat="44.86" lon="4.84383">
        <ele>113</ele>
        <time>2012-09-08T17:07:45Z</time>
      </trkpt>
      <trkpt lat="44.86035" lon="4.84408">
        <ele>112</ele>
        <time>2012-09-08T17:07:54Z</time>
      </trkpt>
      <trkpt lat="44.86073" lon="4.84434">
        <ele>112</ele>
        <time>2012-09-08T17:08:03Z</time>
      </trkpt>
      <trkpt lat="44.86111" lon="4.84463">
        <ele>113</ele>
        <time>2012-09-08T17:08:12Z</time>
      </trkpt>
      <trkpt lat="44.86115" lon="4.84467">
        <ele>112</ele>
        <time>2012-09-08T17:08:13Z</time>
      </trkpt>
      <trkpt lat="44.86162" lon="4.84501">
        <ele>112</ele>
        <time>2012-09-08T17:08:24Z</time>
      </trkpt>
      <trkpt lat="44.86182" lon="4.84516">
        <ele>112</ele>
        <time>2012-09-08T17:08:29Z</time>
      </trkpt>
      <trkpt lat="44.86185" lon="4.84518">
        <ele>112</ele>
        <time>2012-09-08T17:08:30Z</time>
      </trkpt>
      <trkpt lat="44.86198" lon="4.84527">
        <ele>112</ele>
        <time>2012-09-08T17:08:33Z</time>
      </trkpt>
      <trkpt lat="44.86202" lon="4.8453">
        <ele>112</ele>
        <time>2012-09-08T17:08:34Z</time>
      </trkpt>
      <trkpt lat="44.86224" lon="4.84546">
        <ele>112</ele>
        <time>2012-09-08T17:08:39Z</time>
      </trkpt>
      <trkpt lat="44.86228" lon="4.84548">
        <ele>112</ele>
        <time>2012-09-08T17:08:40Z</time>
      </trkpt>
      <trkpt lat="44.86232" lon="4.8455">
        <ele>112</ele>
        <time>2012-09-08T17:08:41Z</time>
      </trkpt>
      <trkpt lat="44.86237" lon="4.84553">
        <ele>112</ele>
        <time>2012-09-08T17:08:42Z</time>
      </trkpt>
      <trkpt lat="44.86241" lon="4.84556">
        <ele>112</ele>
        <time>2012-09-08T17:08:43Z</time>
      </trkpt>
      <trkpt lat="44.86268" lon="4.84576">
        <ele>112</ele>
        <time>2012-09-08T17:08:51Z</time>
      </trkpt>
      <trkpt lat="44.8627" lon="4.84577">
        <ele>112</ele>
        <time>2012-09-08T17:08:55Z</time>
      </trkpt>
      <trkpt lat="44.8627" lon="4.84576">
        <ele>112</ele>
        <time>2012-09-08T17:09:02Z</time>
      </trkpt>
      <trkpt lat="44.86268" lon="4.84572">
        <ele>112</ele>
        <time>2012-09-08T17:09:18Z</time>
      </trkpt>
      <trkpt lat="44.86265" lon="4.8457">
        <ele>112</ele>
        <time>2012-09-08T17:09:37Z</time>
      </trkpt>
      <trkpt lat="44.86265" lon="4.84571">
        <ele>112</ele>
        <time>2012-09-08T17:09:51Z</time>
      </trkpt>
      <trkpt lat="44.86266" lon="4.84573">
        <ele>112</ele>
        <time>2012-09-08T17:10:09Z</time>
      </trkpt>
      <trkpt lat="44.86267" lon="4.84573">
        <ele>112</ele>
        <time>2012-09-08T17:10:33Z</time>
      </trkpt>
      <trkpt lat="44.86268" lon="4.84575">
        <ele>111</ele>
        <time>2012-09-08T17:10:58Z</time>
      </trkpt>
      <trkpt lat="44.86271" lon="4.84575">
        <ele>112</ele>
        <time>2012-09-08T17:11:21Z</time>
      </trkpt>
      <trkpt lat="44.86272" lon="4.84575">
        <ele>112</ele>
        <time>2012-09-08T17:11:38Z</time>
      </trkpt>
      <trkpt lat="44.86271" lon="4.84574">
        <ele>112</ele>
        <time>2012-09-08T17:11:57Z</time>
      </trkpt>
      <trkpt lat="44.86269" lon="4.84575">
        <ele>112</ele>
        <time>2012-09-08T17:12:19Z</time>
      </trkpt>
      <trkpt lat="44.86268" lon="4.84573">
        <ele>112</ele>
        <time>2012-09-08T17:12:45Z</time>
      </trkpt>
      <trkpt lat="44.86269" lon="4.84573">
        <ele>112</ele>
        <time>2012-09-08T17:13:05Z</time>
      </trkpt>
      <trkpt lat="44.8627" lon="4.84575">
        <ele>112</ele>
        <time>2012-09-08T17:13:24Z</time>
      </trkpt>
      <trkpt lat="44.86273" lon="4.8458">
        <ele>112</ele>
        <time>2012-09-08T17:13:32Z</time>
      </trkpt>
      <trkpt lat="44.86275" lon="4.84581">
        <ele>112</ele>
        <time>2012-09-08T17:13:33Z</time>
      </trkpt>
      <trkpt lat="44.86278" lon="4.84583">
        <ele>112</ele>
        <time>2012-09-08T17:13:34Z</time>
      </trkpt>
      <trkpt lat="44.86282" lon="4.84586">
        <ele>112</ele>
        <time>2012-09-08T17:13:35Z</time>
      </trkpt>
      <trkpt lat="44.86287" lon="4.84589">
        <ele>112</ele>
        <time>2012-09-08T17:13:36Z</time>
      </trkpt>
      <trkpt lat="44.86291" lon="4.84592">
        <ele>112</ele>
        <time>2012-09-08T17:13:37Z</time>
      </trkpt>
      <trkpt lat="44.86315" lon="4.8461">
        <ele>112</ele>
        <time>2012-09-08T17:13:43Z</time>
      </trkpt>
      <trkpt lat="44.86319" lon="4.84612">
        <ele>112</ele>
        <time>2012-09-08T17:13:44Z</time>
      </trkpt>
      <trkpt lat="44.86353" lon="4.84638">
        <ele>113</ele>
        <time>2012-09-08T17:13:53Z</time>
      </trkpt>
      <trkpt lat="44.86357" lon="4.84641">
        <ele>112</ele>
        <time>2012-09-08T17:13:54Z</time>
      </trkpt>
      <trkpt lat="44.86397" lon="4.8467">
        <ele>113</ele>
        <time>2012-09-08T17:14:04Z</time>
      </trkpt>
      <trkpt lat="44.86448" lon="4.84704">
        <ele>112</ele>
        <time>2012-09-08T17:14:16Z</time>
      </trkpt>
      <trkpt lat="44.86482" lon="4.84724">
        <ele>112</ele>
        <time>2012-09-08T17:14:24Z</time>
      </trkpt>
      <trkpt lat="44.8653" lon="4.84748">
        <ele>112</ele>
        <time>2012-09-08T17:14:35Z</time>
      </trkpt>
      <trkpt lat="44.86573" lon="4.84774">
        <ele>112</ele>
        <time>2012-09-08T17:14:45Z</time>
      </trkpt>
      <trkpt lat="44.86594" lon="4.8479">
        <ele>112</ele>
        <time>2012-09-08T17:14:50Z</time>
      </trkpt>
      <trkpt lat="44.86624" lon="4.84819">
        <ele>112</ele>
        <time>2012-09-08T17:14:58Z</time>
      </trkpt>
      <trkpt lat="44.86662" lon="4.84866">
        <ele>112</ele>
        <time>2012-09-08T17:15:09Z</time>
      </trkpt>
      <trkpt lat="44.86672" lon="4.84882">
        <ele>112</ele>
        <time>2012-09-08T17:15:15Z</time>
      </trkpt>
      <trkpt lat="44.86674" lon="4.84883">
        <ele>112</ele>
        <time>2012-09-08T17:15:16Z</time>
      </trkpt>
      <trkpt lat="44.86675" lon="4.84883">
        <ele>112</ele>
        <time>2012-09-08T17:15:17Z</time>
      </trkpt>
      <trkpt lat="44.86678" lon="4.84882">
        <ele>112</ele>
        <time>2012-09-08T17:15:18Z</time>
      </trkpt>
      <trkpt lat="44.86681" lon="4.84882">
        <ele>111</ele>
        <time>2012-09-08T17:15:19Z</time>
      </trkpt>
      <trkpt lat="44.86684" lon="4.84882">
        <ele>110</ele>
        <time>2012-09-08T17:15:20Z</time>
      </trkpt>
      <trkpt lat="44.86686" lon="4.84883">
        <ele>110</ele>
        <time>2012-09-08T17:15:21Z</time>
      </trkpt>
      <trkpt lat="44.86689" lon="4.84883">
        <ele>109</ele>
        <time>2012-09-08T17:15:22Z</time>
      </trkpt>
      <trkpt lat="44.86692" lon="4.84884">
        <ele>108</ele>
        <time>2012-09-08T17:15:23Z</time>
      </trkpt>
      <trkpt lat="44.86694" lon="4.84884">
        <ele>107</ele>
        <time>2012-09-08T17:15:24Z</time>
      </trkpt>
      <trkpt lat="44.86696" lon="4.84883">
        <ele>106</ele>
        <time>2012-09-08T17:15:25Z</time>
      </trkpt>
      <trkpt lat="44.86698" lon="4.84882">
        <ele>106</ele>
        <time>2012-09-08T17:15:26Z</time>
      </trkpt>
      <trkpt lat="44.86701" lon="4.8488">
        <ele>105</ele>
        <time>2012-09-08T17:15:32Z</time>
      </trkpt>
      <trkpt lat="44.86702" lon="4.84878">
        <ele>105</ele>
        <time>2012-09-08T17:15:40Z</time>
      </trkpt>
      <trkpt lat="44.8671" lon="4.8487">
        <ele>105</ele>
        <time>2012-09-08T17:15:50Z</time>
      </trkpt>
      <trkpt lat="44.8671" lon="4.84869">
        <ele>104</ele>
        <time>2012-09-08T17:15:51Z</time>
      </trkpt>
      <trkpt lat="44.86715" lon="4.84871">
        <ele>106</ele>
        <time>2012-09-08T17:15:58Z</time>
      </trkpt>
      <trkpt lat="44.86717" lon="4.84871">
        <ele>106</ele>
        <time>2012-09-08T17:15:59Z</time>
      </trkpt>
      <trkpt lat="44.86718" lon="4.84872">
        <ele>106</ele>
        <time>2012-09-08T17:16:00Z</time>
      </trkpt>
      <trkpt lat="44.86732" lon="4.84879">
        <ele>106</ele>
        <time>2012-09-08T17:16:05Z</time>
      </trkpt>
      <trkpt lat="44.86748" lon="4.84883">
        <ele>106</ele>
        <time>2012-09-08T17:16:11Z</time>
      </trkpt>
      <trkpt lat="44.86766" lon="4.84886">
        <ele>108</ele>
        <time>2012-09-08T17:16:18Z</time>
      </trkpt>
      <trkpt lat="44.86787" lon="4.84888">
        <ele>110</ele>
        <time>2012-09-08T17:16:26Z</time>
      </trkpt>
      <trkpt lat="44.8681" lon="4.84891">
        <ele>112</ele>
        <time>2012-09-08T17:16:34Z</time>
      </trkpt>
      <trkpt lat="44.86831" lon="4.8491">
        <ele>112</ele>
        <time>2012-09-08T17:16:41Z</time>
      </trkpt>
      <trkpt lat="44.86868" lon="4.84941">
        <ele>112</ele>
        <time>2012-09-08T17:16:51Z</time>
      </trkpt>
      <trkpt lat="44.86896" lon="4.8496">
        <ele>112</ele>
        <time>2012-09-08T17:16:58Z</time>
      </trkpt>
      <trkpt lat="44.869" lon="4.84962">
        <ele>112</ele>
        <time>2012-09-08T17:16:59Z</time>
      </trkpt>
      <trkpt lat="44.86904" lon="4.84962">
        <ele>112</ele>
        <time>2012-09-08T17:17:00Z</time>
      </trkpt>
      <trkpt lat="44.86908" lon="4.84962">
        <ele>112</ele>
        <time>2012-09-08T17:17:01Z</time>
      </trkpt>
      <trkpt lat="44.86913" lon="4.8496">
        <ele>112</ele>
        <time>2012-09-08T17:17:02Z</time>
      </trkpt>
      <trkpt lat="44.86917" lon="4.84958">
        <ele>112</ele>
        <time>2012-09-08T17:17:03Z</time>
      </trkpt>
      <trkpt lat="44.86941" lon="4.84946">
        <ele>111</ele>
        <time>2012-09-08T17:17:10Z</time>
      </trkpt>
      <trkpt lat="44.86942" lon="4.84946">
        <ele>111</ele>
        <time>2012-09-08T17:17:16Z</time>
      </trkpt>
      <trkpt lat="44.86941" lon="4.84946">
        <ele>111</ele>
        <time>2012-09-08T17:17:31Z</time>
      </trkpt>
      <trkpt lat="44.86941" lon="4.84946">
        <ele>111</ele>
        <time>2012-09-08T17:17:49Z</time>
      </trkpt>
      <trkpt lat="44.86947" lon="4.84942">
        <ele>111</ele>
        <time>2012-09-08T17:17:57Z</time>
      </trkpt>
      <trkpt lat="44.8697" lon="4.84929">
        <ele>110</ele>
        <time>2012-09-08T17:18:03Z</time>
      </trkpt>
      <trkpt lat="44.86999" lon="4.84911">
        <ele>108</ele>
        <time>2012-09-08T17:18:08Z</time>
      </trkpt>
      <trkpt lat="44.87006" lon="4.84909">
        <ele>107</ele>
        <time>2012-09-08T17:18:09Z</time>
      </trkpt>
      <trkpt lat="44.87013" lon="4.84909">
        <ele>107</ele>
        <time>2012-09-08T17:18:10Z</time>
      </trkpt>
      <trkpt lat="44.8702" lon="4.8491">
        <ele>106</ele>
        <time>2012-09-08T17:18:11Z</time>
      </trkpt>
      <trkpt lat="44.87026" lon="4.84912">
        <ele>107</ele>
        <time>2012-09-08T17:18:12Z</time>
      </trkpt>
      <trkpt lat="44.87031" lon="4.84915">
        <ele>107</ele>
        <time>2012-09-08T17:18:13Z</time>
      </trkpt>
      <trkpt lat="44.87066" lon="4.84925">
        <ele>107</ele>
        <time>2012-09-08T17:18:19Z</time>
      </trkpt>
      <trkpt lat="44.87078" lon="4.84928">
        <ele>107</ele>
        <time>2012-09-08T17:18:21Z</time>
      </trkpt>
      <trkpt lat="44.87084" lon="4.8493">
        <ele>107</ele>
        <time>2012-09-08T17:18:22Z</time>
      </trkpt>
      <trkpt lat="44.87108" lon="4.84935">
        <ele>107</ele>
        <time>2012-09-08T17:18:26Z</time>
      </trkpt>
      <trkpt lat="44.8713" lon="4.84938">
        <ele>107</ele>
        <time>2012-09-08T17:18:30Z</time>
      </trkpt>
      <trkpt lat="44.87136" lon="4.8494">
        <ele>107</ele>
        <time>2012-09-08T17:18:31Z</time>
      </trkpt>
      <trkpt lat="44.87142" lon="4.84942">
        <ele>107</ele>
        <time>2012-09-08T17:18:32Z</time>
      </trkpt>
      <trkpt lat="44.87187" lon="4.84957">
        <ele>107</ele>
        <time>2012-09-08T17:18:39Z</time>
      </trkpt>
      <trkpt lat="44.87206" lon="4.84962">
        <ele>107</ele>
        <time>2012-09-08T17:18:42Z</time>
      </trkpt>
      <trkpt lat="44.87242" lon="4.84973">
        <ele>107</ele>
        <time>2012-09-08T17:18:48Z</time>
      </trkpt>
      <trkpt lat="44.87249" lon="4.84975">
        <ele>107</ele>
        <time>2012-09-08T17:18:49Z</time>
      </trkpt>
      <trkpt lat="44.87255" lon="4.84977">
        <ele>107</ele>
        <time>2012-09-08T17:18:50Z</time>
      </trkpt>
      <trkpt lat="44.87262" lon="4.84979">
        <ele>107</ele>
        <time>2012-09-08T17:18:51Z</time>
      </trkpt>
      <trkpt lat="44.87268" lon="4.84982">
        <ele>108</ele>
        <time>2012-09-08T17:18:52Z</time>
      </trkpt>
      <trkpt lat="44.87274" lon="4.84986">
        <ele>107</ele>
        <time>2012-09-08T17:18:53Z</time>
      </trkpt>
      <trkpt lat="44.87305" lon="4.8501">
        <ele>106</ele>
        <time>2012-09-08T17:18:58Z</time>
      </trkpt>
      <trkpt lat="44.87338" lon="4.85028">
        <ele>107</ele>
        <time>2012-09-08T17:19:03Z</time>
      </trkpt>
      <trkpt lat="44.87343" lon="4.8503">
        <ele>107</ele>
        <time>2012-09-08T17:19:04Z</time>
      </trkpt>
      <trkpt lat="44.87348" lon="4.85033">
        <ele>107</ele>
        <time>2012-09-08T17:19:05Z</time>
      </trkpt>
      <trkpt lat="44.87352" lon="4.85038">
        <ele>107</ele>
        <time>2012-09-08T17:19:06Z</time>
      </trkpt>
      <trkpt lat="44.87357" lon="4.85043">
        <ele>106</ele>
        <time>2012-09-08T17:19:07Z</time>
      </trkpt>
      <trkpt lat="44.87365" lon="4.85057">
        <ele>106</ele>
        <time>2012-09-08T17:19:09Z</time>
      </trkpt>
      <trkpt lat="44.87392" lon="4.85091">
        <ele>106</ele>
        <time>2012-09-08T17:19:15Z</time>
      </trkpt>
      <trkpt lat="44.87417" lon="4.85128">
        <ele>106</ele>
        <time>2012-09-08T17:19:21Z</time>
      </trkpt>
      <trkpt lat="44.87446" lon="4.85178">
        <ele>106</ele>
        <time>2012-09-08T17:19:29Z</time>
      </trkpt>
      <trkpt lat="44.87468" lon="4.85206">
        <ele>106</ele>
        <time>2012-09-08T17:19:36Z</time>
      </trkpt>
      <trkpt lat="44.87469" lon="4.8521">
        <ele>106</ele>
        <time>2012-09-08T17:19:37Z</time>
      </trkpt>
      <trkpt lat="44.87467" lon="4.85215">
        <ele>106</ele>
        <time>2012-09-08T17:19:38Z</time>
      </trkpt>
      <trkpt lat="44.87462" lon="4.8524">
        <ele>106</ele>
        <time>2012-09-08T17:19:43Z</time>
      </trkpt>
      <trkpt lat="44.87466" lon="4.85256">
        <ele>107</ele>
        <time>2012-09-08T17:19:46Z</time>
      </trkpt>
      <trkpt lat="44.87479" lon="4.85289">
        <ele>107</ele>
        <time>2012-09-08T17:19:51Z</time>
      </trkpt>
      <trkpt lat="44.87484" lon="4.85302">
        <ele>107</ele>
        <time>2012-09-08T17:19:53Z</time>
      </trkpt>
      <trkpt lat="44.87486" lon="4.85309">
        <ele>106</ele>
        <time>2012-09-08T17:19:54Z</time>
      </trkpt>
      <trkpt lat="44.87488" lon="4.85315">
        <ele>106</ele>
        <time>2012-09-08T17:19:55Z</time>
      </trkpt>
      <trkpt lat="44.87491" lon="4.8532">
        <ele>107</ele>
        <time>2012-09-08T17:19:56Z</time>
      </trkpt>
      <trkpt lat="44.87493" lon="4.85326">
        <ele>107</ele>
        <time>2012-09-08T17:19:57Z</time>
      </trkpt>
      <trkpt lat="44.87495" lon="4.85332">
        <ele>107</ele>
        <time>2012-09-08T17:19:58Z</time>
      </trkpt>
      <trkpt lat="44.87505" lon="4.85358">
        <ele>107</ele>
        <time>2012-09-08T17:20:02Z</time>
      </trkpt>
      <trkpt lat="44.87523" lon="4.85395">
        <ele>107</ele>
        <time>2012-09-08T17:20:08Z</time>
      </trkpt>
      <trkpt lat="44.87539" lon="4.85423">
        <ele>107</ele>
        <time>2012-09-08T17:20:13Z</time>
      </trkpt>
      <trkpt lat="44.87543" lon="4.85427">
        <ele>106</ele>
        <time>2012-09-08T17:20:14Z</time>
      </trkpt>
      <trkpt lat="44.87547" lon="4.85429">
        <ele>106</ele>
        <time>2012-09-08T17:20:15Z</time>
      </trkpt>
      <trkpt lat="44.87553" lon="4.85429">
        <ele>105</ele>
        <time>2012-09-08T17:20:16Z</time>
      </trkpt>
      <trkpt lat="44.87558" lon="4.85429">
        <ele>105</ele>
        <time>2012-09-08T17:20:17Z</time>
      </trkpt>
      <trkpt lat="44.87564" lon="4.85427">
        <ele>105</ele>
        <time>2012-09-08T17:20:18Z</time>
      </trkpt>
      <trkpt lat="44.87569" lon="4.85425">
        <ele>105</ele>
        <time>2012-09-08T17:20:19Z</time>
      </trkpt>
      <trkpt lat="44.87612" lon="4.854">
        <ele>105</ele>
        <time>2012-09-08T17:20:27Z</time>
      </trkpt>
      <trkpt lat="44.87617" lon="4.85399">
        <ele>105</ele>
        <time>2012-09-08T17:20:28Z</time>
      </trkpt>
      <trkpt lat="44.87669" lon="4.8539">
        <ele>105</ele>
        <time>2012-09-08T17:20:37Z</time>
      </trkpt>
      <trkpt lat="44.87693" lon="4.85385">
        <ele>105</ele>
        <time>2012-09-08T17:20:41Z</time>
      </trkpt>
      <trkpt lat="44.87699" lon="4.85383">
        <ele>105</ele>
        <time>2012-09-08T17:20:42Z</time>
      </trkpt>
      <trkpt lat="44.87704" lon="4.85381">
        <ele>105</ele>
        <time>2012-09-08T17:20:43Z</time>
      </trkpt>
      <trkpt lat="44.87714" lon="4.85376">
        <ele>105</ele>
        <time>2012-09-08T17:20:45Z</time>
      </trkpt>
      <trkpt lat="44.87721" lon="4.85369">
        <ele>106</ele>
        <time>2012-09-08T17:20:47Z</time>
      </trkpt>
      <trkpt lat="44.87725" lon="4.85364">
        <ele>105</ele>
        <time>2012-09-08T17:20:48Z</time>
      </trkpt>
      <trkpt lat="44.87728" lon="4.85358">
        <ele>106</ele>
        <time>2012-09-08T17:20:49Z</time>
      </trkpt>
      <trkpt lat="44.8773" lon="4.85352">
        <ele>106</ele>
        <time>2012-09-08T17:20:50Z</time>
      </trkpt>
      <trkpt lat="44.87731" lon="4.85345">
        <ele>106</ele>
        <time>2012-09-08T17:20:51Z</time>
      </trkpt>
      <trkpt lat="44.87734" lon="4.8534">
        <ele>106</ele>
        <time>2012-09-08T17:20:52Z</time>
      </trkpt>
      <trkpt lat="44.87737" lon="4.85336">
        <ele>106</ele>
        <time>2012-09-08T17:20:53Z</time>
      </trkpt>
      <trkpt lat="44.87742" lon="4.85334">
        <ele>106</ele>
        <time>2012-09-08T17:20:54Z</time>
      </trkpt>
      <trkpt lat="44.87746" lon="4.85332">
        <ele>106</ele>
        <time>2012-09-08T17:20:55Z</time>
      </trkpt>
      <trkpt lat="44.87756" lon="4.85328">
        <ele>106</ele>
        <time>2012-09-08T17:20:57Z</time>
      </trkpt>
      <trkpt lat="44.87771" lon="4.85323">
        <ele>105</ele>
        <time>2012-09-08T17:21:00Z</time>
      </trkpt>
      <trkpt lat="44.87798" lon="4.85313">
        <ele>106</ele>
        <time>2012-09-08T17:21:05Z</time>
      </trkpt>
      <trkpt lat="44.87803" lon="4.85313">
        <ele>106</ele>
        <time>2012-09-08T17:21:06Z</time>
      </trkpt>
      <trkpt lat="44.87809" lon="4.85316">
        <ele>106</ele>
        <time>2012-09-08T17:21:07Z</time>
      </trkpt>
      <trkpt lat="44.87814" lon="4.85319">
        <ele>106</ele>
        <time>2012-09-08T17:21:08Z</time>
      </trkpt>
      <trkpt lat="44.8782" lon="4.85321">
        <ele>106</ele>
        <time>2012-09-08T17:21:09Z</time>
      </trkpt>
      <trkpt lat="44.87826" lon="4.85321">
        <ele>106</ele>
        <time>2012-09-08T17:21:10Z</time>
      </trkpt>
      <trkpt lat="44.87832" lon="4.85319">
        <ele>106</ele>
        <time>2012-09-08T17:21:11Z</time>
      </trkpt>
      <trkpt lat="44.87838" lon="4.85317">
        <ele>106</ele>
        <time>2012-09-08T17:21:12Z</time>
      </trkpt>
      <trkpt lat="44.87872" lon="4.85304">
        <ele>105</ele>
        <time>2012-09-08T17:21:18Z</time>
      </trkpt>
      <trkpt lat="44.87922" lon="4.85284">
        <ele>105</ele>
        <time>2012-09-08T17:21:27Z</time>
      </trkpt>
      <trkpt lat="44.87938" lon="4.85279">
        <ele>105</ele>
        <time>2012-09-08T17:21:30Z</time>
      </trkpt>
      <trkpt lat="44.87943" lon="4.85277">
        <ele>105</ele>
        <time>2012-09-08T17:21:31Z</time>
      </trkpt>
      <trkpt lat="44.87958" lon="4.85266">
        <ele>105</ele>
        <time>2012-09-08T17:21:36Z</time>
      </trkpt>
      <trkpt lat="44.8796" lon="4.85266">
        <ele>106</ele>
        <time>2012-09-08T17:21:37Z</time>
      </trkpt>
      <trkpt lat="44.87961" lon="4.85266">
        <ele>106</ele>
        <time>2012-09-08T17:21:38Z</time>
      </trkpt>
      <trkpt lat="44.87964" lon="4.85265">
        <ele>105</ele>
        <time>2012-09-08T17:21:39Z</time>
      </trkpt>
      <trkpt lat="44.87967" lon="4.85264">
        <ele>106</ele>
        <time>2012-09-08T17:21:40Z</time>
      </trkpt>
      <trkpt lat="44.8797" lon="4.85262">
        <ele>105</ele>
        <time>2012-09-08T17:21:41Z</time>
      </trkpt>
      <trkpt lat="44.87978" lon="4.85257">
        <ele>106</ele>
        <time>2012-09-08T17:21:43Z</time>
      </trkpt>
      <trkpt lat="44.8799" lon="4.85246">
        <ele>106</ele>
        <time>2012-09-08T17:21:46Z</time>
      </trkpt>
      <trkpt lat="44.87994" lon="4.85245">
        <ele>106</ele>
        <time>2012-09-08T17:21:47Z</time>
      </trkpt>
      <trkpt lat="44.87999" lon="4.85244">
        <ele>106</ele>
        <time>2012-09-08T17:21:48Z</time>
      </trkpt>
      <trkpt lat="44.88003" lon="4.85245">
        <ele>106</ele>
        <time>2012-09-08T17:21:49Z</time>
      </trkpt>
      <trkpt lat="44.88007" lon="4.85248">
        <ele>106</ele>
        <time>2012-09-08T17:21:50Z</time>
      </trkpt>
      <trkpt lat="44.88011" lon="4.85251">
        <ele>106</ele>
        <time>2012-09-08T17:21:51Z</time>
      </trkpt>
      <trkpt lat="44.88014" lon="4.85253">
        <ele>106</ele>
        <time>2012-09-08T17:21:52Z</time>
      </trkpt>
      <trkpt lat="44.88019" lon="4.85253">
        <ele>106</ele>
        <time>2012-09-08T17:21:54Z</time>
      </trkpt>
      <trkpt lat="44.88021" lon="4.85251">
        <ele>106</ele>
        <time>2012-09-08T17:21:55Z</time>
      </trkpt>
      <trkpt lat="44.88022" lon="4.85248">
        <ele>106</ele>
        <time>2012-09-08T17:21:56Z</time>
      </trkpt>
      <trkpt lat="44.88024" lon="4.85246">
        <ele>106</ele>
        <time>2012-09-08T17:21:57Z</time>
      </trkpt>
      <trkpt lat="44.88027" lon="4.85243">
        <ele>106</ele>
        <time>2012-09-08T17:21:58Z</time>
      </trkpt>
      <trkpt lat="44.88031" lon="4.85241">
        <ele>106</ele>
        <time>2012-09-08T17:21:59Z</time>
      </trkpt>
      <trkpt lat="44.88034" lon="4.8524">
        <ele>106</ele>
        <time>2012-09-08T17:22:00Z</time>
      </trkpt>
      <trkpt lat="44.88037" lon="4.85239">
        <ele>106</ele>
        <time>2012-09-08T17:22:01Z</time>
      </trkpt>
      <trkpt lat="44.88053" lon="4.85235">
        <ele>106</ele>
        <time>2012-09-08T17:22:07Z</time>
      </trkpt>
      <trkpt lat="44.88058" lon="4.85234">
        <ele>106</ele>
        <time>2012-09-08T17:22:09Z</time>
      </trkpt>
      <trkpt lat="44.8806" lon="4.85232">
        <ele>105</ele>
        <time>2012-09-08T17:22:10Z</time>
      </trkpt>
      <trkpt lat="44.88062" lon="4.85232">
        <ele>107</ele>
        <time>2012-09-08T17:22:11Z</time>
      </trkpt>
      <trkpt lat="44.88065" lon="4.85231">
        <ele>106</ele>
        <time>2012-09-08T17:22:12Z</time>
      </trkpt>
      <trkpt lat="44.88067" lon="4.8523">
        <ele>106</ele>
        <time>2012-09-08T17:22:13Z</time>
      </trkpt>
      <trkpt lat="44.8807" lon="4.8523">
        <ele>106</ele>
        <time>2012-09-08T17:22:14Z</time>
      </trkpt>
      <trkpt lat="44.88074" lon="4.8523">
        <ele>107</ele>
        <time>2012-09-08T17:22:15Z</time>
      </trkpt>
      <trkpt lat="44.88077" lon="4.8523">
        <ele>106</ele>
        <time>2012-09-08T17:22:16Z</time>
      </trkpt>
      <trkpt lat="44.88102" lon="4.85227">
        <ele>106</ele>
        <time>2012-09-08T17:22:22Z</time>
      </trkpt>
      <trkpt lat="44.88129" lon="4.85213">
        <ele>106</ele>
        <time>2012-09-08T17:22:28Z</time>
      </trkpt>
      <trkpt lat="44.88133" lon="4.85209">
        <ele>106</ele>
        <time>2012-09-08T17:22:29Z</time>
      </trkpt>
      <trkpt lat="44.88151" lon="4.8519">
        <ele>107</ele>
        <time>2012-09-08T17:22:33Z</time>
      </trkpt>
      <trkpt lat="44.88193" lon="4.8516">
        <ele>106</ele>
        <time>2012-09-08T17:22:42Z</time>
      </trkpt>
      <trkpt lat="44.88198" lon="4.85158">
        <ele>106</ele>
        <time>2012-09-08T17:22:43Z</time>
      </trkpt>
      <trkpt lat="44.88213" lon="4.85155">
        <ele>106</ele>
        <time>2012-09-08T17:22:46Z</time>
      </trkpt>
      <trkpt lat="44.88217" lon="4.85154">
        <ele>106</ele>
        <time>2012-09-08T17:22:47Z</time>
      </trkpt>
      <trkpt lat="44.88227" lon="4.85154">
        <ele>106</ele>
        <time>2012-09-08T17:22:49Z</time>
      </trkpt>
      <trkpt lat="44.88263" lon="4.85157">
        <ele>106</ele>
        <time>2012-09-08T17:22:57Z</time>
      </trkpt>
      <trkpt lat="44.88298" lon="4.85159">
        <ele>106</ele>
        <time>2012-09-08T17:23:04Z</time>
      </trkpt>
      <trkpt lat="44.88303" lon="4.8516">
        <ele>106</ele>
        <time>2012-09-08T17:23:05Z</time>
      </trkpt>
      <trkpt lat="44.88331" lon="4.85163">
        <ele>106</ele>
        <time>2012-09-08T17:23:12Z</time>
      </trkpt>
      <trkpt lat="44.88344" lon="4.85166">
        <ele>106</ele>
        <time>2012-09-08T17:23:18Z</time>
      </trkpt>
      <trkpt lat="44.88363" lon="4.85173">
        <ele>106</ele>
        <time>2012-09-08T17:23:23Z</time>
      </trkpt>
      <trkpt lat="44.88369" lon="4.85174">
        <ele>106</ele>
        <time>2012-09-08T17:23:24Z</time>
      </trkpt>
      <trkpt lat="44.88373" lon="4.85175">
        <ele>106</ele>
        <time>2012-09-08T17:23:25Z</time>
      </trkpt>
      <trkpt lat="44.8839" lon="4.85178">
        <ele>105</ele>
        <time>2012-09-08T17:23:31Z</time>
      </trkpt>
      <trkpt lat="44.88407" lon="4.8518">
        <ele>106</ele>
        <time>2012-09-08T17:23:35Z</time>
      </trkpt>
      <trkpt lat="44.88455" lon="4.85179">
        <ele>106</ele>
        <time>2012-09-08T17:23:42Z</time>
      </trkpt>
      <trkpt lat="44.88482" lon="4.85179">
        <ele>106</ele>
        <time>2012-09-08T17:23:47Z</time>
      </trkpt>
      <trkpt lat="44.88525" lon="4.85188">
        <ele>106</ele>
        <time>2012-09-08T17:23:56Z</time>
      </trkpt>
      <trkpt lat="44.88566" lon="4.85192">
        <ele>107</ele>
        <time>2012-09-08T17:24:04Z</time>
      </trkpt>
      <trkpt lat="44.8859" lon="4.85194">
        <ele>107</ele>
        <time>2012-09-08T17:24:09Z</time>
      </trkpt>
      <trkpt lat="44.88621" lon="4.85193">
        <ele>107</ele>
        <time>2012-09-08T17:24:15Z</time>
      </trkpt>
      <trkpt lat="44.88626" lon="4.85193">
        <ele>107</ele>
        <time>2012-09-08T17:24:16Z</time>
      </trkpt>
      <trkpt lat="44.88666" lon="4.85192">
        <ele>106</ele>
        <time>2012-09-08T17:24:24Z</time>
      </trkpt>
      <trkpt lat="44.88669" lon="4.85192">
        <ele>107</ele>
        <time>2012-09-08T17:24:25Z</time>
      </trkpt>
      <trkpt lat="44.88672" lon="4.85191">
        <ele>107</ele>
        <time>2012-09-08T17:24:26Z</time>
      </trkpt>
      <trkpt lat="44.88694" lon="4.85189">
        <ele>107</ele>
        <time>2012-09-08T17:24:32Z</time>
      </trkpt>
      <trkpt lat="44.88699" lon="4.85186">
        <ele>107</ele>
        <time>2012-09-08T17:24:34Z</time>
      </trkpt>
      <trkpt lat="44.88703" lon="4.85179">
        <ele>107</ele>
        <time>2012-09-08T17:24:39Z</time>
      </trkpt>
      <trkpt lat="44.88718" lon="4.85172">
        <ele>107</ele>
        <time>2012-09-08T17:24:46Z</time>
      </trkpt>
      <trkpt lat="44.88747" lon="4.85164">
        <ele>107</ele>
        <time>2012-09-08T17:24:53Z</time>
      </trkpt>
      <trkpt lat="44.88775" lon="4.85161">
        <ele>107</ele>
        <time>2012-09-08T17:25:00Z</time>
      </trkpt>
      <trkpt lat="44.88812" lon="4.8516">
        <ele>108</ele>
        <time>2012-09-08T17:25:08Z</time>
      </trkpt>
      <trkpt lat="44.8883" lon="4.85157">
        <ele>109</ele>
        <time>2012-09-08T17:25:12Z</time>
      </trkpt>
      <trkpt lat="44.88876" lon="4.85152">
        <ele>109</ele>
        <time>2012-09-08T17:25:22Z</time>
      </trkpt>
      <trkpt lat="44.88909" lon="4.85147">
        <ele>109</ele>
        <time>2012-09-08T17:25:29Z</time>
      </trkpt>
      <trkpt lat="44.88917" lon="4.85146">
        <ele>110</ele>
        <time>2012-09-08T17:25:31Z</time>
      </trkpt>
      <trkpt lat="44.88954" lon="4.85148">
        <ele>111</ele>
        <time>2012-09-08T17:25:40Z</time>
      </trkpt>
      <trkpt lat="44.88984" lon="4.85145">
        <ele>112</ele>
        <time>2012-09-08T17:25:48Z</time>
      </trkpt>
      <trkpt lat="44.88988" lon="4.85137">
        <ele>112</ele>
        <time>2012-09-08T17:25:51Z</time>
      </trkpt>
      <trkpt lat="44.88988" lon="4.85133">
        <ele>112</ele>
        <time>2012-09-08T17:25:52Z</time>
      </trkpt>
      <trkpt lat="44.88988" lon="4.85128">
        <ele>113</ele>
        <time>2012-09-08T17:25:53Z</time>
      </trkpt>
      <trkpt lat="44.88987" lon="4.85099">
        <ele>112</ele>
        <time>2012-09-08T17:26:00Z</time>
      </trkpt>
      <trkpt lat="44.88986" lon="4.8508">
        <ele>111</ele>
        <time>2012-09-08T17:26:05Z</time>
      </trkpt>
      <trkpt lat="44.88984" lon="4.85079">
        <ele>111</ele>
        <time>2012-09-08T17:26:06Z</time>
      </trkpt>
      <trkpt lat="44.88982" lon="4.85079">
        <ele>111</ele>
        <time>2012-09-08T17:26:07Z</time>
      </trkpt>
      <trkpt lat="44.88979" lon="4.8508">
        <ele>111</ele>
        <time>2012-09-08T17:26:08Z</time>
      </trkpt>
      <trkpt lat="44.88975" lon="4.8508">
        <ele>111</ele>
        <time>2012-09-08T17:26:09Z</time>
      </trkpt>
      <trkpt lat="44.8897" lon="4.85078">
        <ele>111</ele>
        <time>2012-09-08T17:26:10Z</time>
      </trkpt>
      <trkpt lat="44.88964" lon="4.85078">
        <ele>111</ele>
        <time>2012-09-08T17:26:11Z</time>
      </trkpt>
      <trkpt lat="44.88959" lon="4.85079">
        <ele>111</ele>
        <time>2012-09-08T17:26:12Z</time>
      </trkpt>
      <trkpt lat="44.88954" lon="4.8508">
        <ele>111</ele>
        <time>2012-09-08T17:26:13Z</time>
      </trkpt>
      <trkpt lat="44.88949" lon="4.85081">
        <ele>112</ele>
        <time>2012-09-08T17:26:14Z</time>
      </trkpt>
      <trkpt lat="44.88945" lon="4.85083">
        <ele>111</ele>
        <time>2012-09-08T17:26:15Z</time>
      </trkpt>
      <trkpt lat="44.8894" lon="4.85083">
        <ele>111</ele>
        <time>2012-09-08T17:26:17Z</time>
      </trkpt>
      <trkpt lat="44.88939" lon="4.8508">
        <ele>111</ele>
        <time>2012-09-08T17:26:18Z</time>
      </trkpt>
      <trkpt lat="44.88938" lon="4.85076">
        <ele>111</ele>
        <time>2012-09-08T17:26:19Z</time>
      </trkpt>
      <trkpt lat="44.88937" lon="4.85071">
        <ele>111</ele>
        <time>2012-09-08T17:26:20Z</time>
      </trkpt>
      <trkpt lat="44.88937" lon="4.85066">
        <ele>111</ele>
        <time>2012-09-08T17:26:21Z</time>
      </trkpt>
      <trkpt lat="44.88937" lon="4.8506">
        <ele>111</ele>
        <time>2012-09-08T17:26:22Z</time>
      </trkpt>
      <trkpt lat="44.88937" lon="4.85039">
        <ele>110</ele>
        <time>2012-09-08T17:26:27Z</time>
      </trkpt>
      <trkpt lat="44.88923" lon="4.85018">
        <ele>111</ele>
        <time>2012-09-08T17:26:33Z</time>
      </trkpt>
      <trkpt lat="44.88894" lon="4.85001">
        <ele>112</ele>
        <time>2012-09-08T17:26:42Z</time>
      </trkpt>
      <trkpt lat="44.88871" lon="4.84992">
        <ele>115</ele>
        <time>2012-09-08T17:26:51Z</time>
      </trkpt>
      <trkpt lat="44.88862" lon="4.84987">
        <ele>115</ele>
        <time>2012-09-08T17:26:57Z</time>
      </trkpt>
      <trkpt lat="44.88852" lon="4.84981">
        <ele>116</ele>
        <time>2012-09-08T17:27:03Z</time>
      </trkpt>
      <trkpt lat="44.88841" lon="4.84977">
        <ele>119</ele>
        <time>2012-09-08T17:27:09Z</time>
      </trkpt>
      <trkpt lat="44.88829" lon="4.84977">
        <ele>120</ele>
        <time>2012-09-08T17:27:15Z</time>
      </trkpt>
      <trkpt lat="44.88829" lon="4.84975">
        <ele>121</ele>
        <time>2012-09-08T17:27:16Z</time>
      </trkpt>
      <trkpt lat="44.88829" lon="4.84972">
        <ele>121</ele>
        <time>2012-09-08T17:27:17Z</time>
      </trkpt>
      <trkpt lat="44.88829" lon="4.84969">
        <ele>121</ele>
        <time>2012-09-08T17:27:18Z</time>
      </trkpt>
      <trkpt lat="44.88829" lon="4.84966">
        <ele>121</ele>
        <time>2012-09-08T17:27:19Z</time>
      </trkpt>
      <trkpt lat="44.88832" lon="4.84947">
        <ele>124</ele>
        <time>2012-09-08T17:27:26Z</time>
      </trkpt>
      <trkpt lat="44.88833" lon="4.84945">
        <ele>123</ele>
        <time>2012-09-08T17:27:27Z</time>
      </trkpt>
      <trkpt lat="44.88841" lon="4.84919">
        <ele>125</ele>
        <time>2012-09-08T17:27:37Z</time>
      </trkpt>
      <trkpt lat="44.88847" lon="4.84896">
        <ele>126</ele>
        <time>2012-09-08T17:27:46Z</time>
      </trkpt>
      <trkpt lat="44.88849" lon="4.84869">
        <ele>127</ele>
        <time>2012-09-08T17:27:55Z</time>
      </trkpt>
      <trkpt lat="44.88855" lon="4.84836">
        <ele>128</ele>
        <time>2012-09-08T17:28:05Z</time>
      </trkpt>
      <trkpt lat="44.88852" lon="4.84807">
        <ele>129</ele>
        <time>2012-09-08T17:28:13Z</time>
      </trkpt>
      <trkpt lat="44.88841" lon="4.84779">
        <ele>130</ele>
        <time>2012-09-08T17:28:21Z</time>
      </trkpt>
      <trkpt lat="44.88825" lon="4.84772">
        <ele>131</ele>
        <time>2012-09-08T17:28:27Z</time>
      </trkpt>
      <trkpt lat="44.88813" lon="4.84751">
        <ele>132</ele>
        <time>2012-09-08T17:28:34Z</time>
      </trkpt>
      <trkpt lat="44.88807" lon="4.84733">
        <ele>133</ele>
        <time>2012-09-08T17:28:40Z</time>
      </trkpt>
      <trkpt lat="44.88806" lon="4.8473">
        <ele>133</ele>
        <time>2012-09-08T17:28:41Z</time>
      </trkpt>
      <trkpt lat="44.88799" lon="4.84716">
        <ele>135</ele>
        <time>2012-09-08T17:28:47Z</time>
      </trkpt>
      <trkpt lat="44.88791" lon="4.847">
        <ele>136</ele>
        <time>2012-09-08T17:28:54Z</time>
      </trkpt>
      <trkpt lat="44.8878" lon="4.84686">
        <ele>139</ele>
        <time>2012-09-08T17:29:02Z</time>
      </trkpt>
      <trkpt lat="44.88768" lon="4.84674">
        <ele>140</ele>
        <time>2012-09-08T17:29:10Z</time>
      </trkpt>
      <trkpt lat="44.88757" lon="4.84664">
        <ele>142</ele>
        <time>2012-09-08T17:29:18Z</time>
      </trkpt>
      <trkpt lat="44.88749" lon="4.84656">
        <ele>143</ele>
        <time>2012-09-08T17:29:24Z</time>
      </trkpt>
      <trkpt lat="44.88742" lon="4.84646">
        <ele>145</ele>
        <time>2012-09-08T17:29:30Z</time>
      </trkpt>
      <trkpt lat="44.88732" lon="4.8463">
        <ele>147</ele>
        <time>2012-09-08T17:29:38Z</time>
      </trkpt>
      <trkpt lat="44.88732" lon="4.84629">
        <ele>147</ele>
        <time>2012-09-08T17:29:39Z</time>
      </trkpt>
      <trkpt lat="44.8873" lon="4.84627">
        <ele>148</ele>
        <time>2012-09-08T17:29:40Z</time>
      </trkpt>
      <trkpt lat="44.88729" lon="4.84624">
        <ele>147</ele>
        <time>2012-09-08T17:29:41Z</time>
      </trkpt>
      <trkpt lat="44.88728" lon="4.84622">
        <ele>148</ele>
        <time>2012-09-08T17:29:42Z</time>
      </trkpt>
      <trkpt lat="44.88727" lon="4.84618">
        <ele>148</ele>
        <time>2012-09-08T17:29:44Z</time>
      </trkpt>
      <trkpt lat="44.88725" lon="4.84616">
        <ele>148</ele>
        <time>2012-09-08T17:29:45Z</time>
      </trkpt>
      <trkpt lat="44.88718" lon="4.84601">
        <ele>150</ele>
        <time>2012-09-08T17:29:52Z</time>
      </trkpt>
      <trkpt lat="44.8871" lon="4.84587">
        <ele>152</ele>
        <time>2012-09-08T17:30:00Z</time>
      </trkpt>
      <trkpt lat="44.88704" lon="4.84574">
        <ele>153</ele>
        <time>2012-09-08T17:30:07Z</time>
      </trkpt>
      <trkpt lat="44.88701" lon="4.84569">
        <ele>154</ele>
        <time>2012-09-08T17:30:10Z</time>
      </trkpt>
      <trkpt lat="44.88693" lon="4.84553">
        <ele>157</ele>
        <time>2012-09-08T17:30:19Z</time>
      </trkpt>
      <trkpt lat="44.88689" lon="4.84542">
        <ele>158</ele>
        <time>2012-09-08T17:30:25Z</time>
      </trkpt>
      <trkpt lat="44.88684" lon="4.84534">
        <ele>159</ele>
        <time>2012-09-08T17:30:30Z</time>
      </trkpt>
      <trkpt lat="44.88683" lon="4.84532">
        <ele>160</ele>
        <time>2012-09-08T17:30:31Z</time>
      </trkpt>
      <trkpt lat="44.88683" lon="4.8453">
        <ele>160</ele>
        <time>2012-09-08T17:30:32Z</time>
      </trkpt>
      <trkpt lat="44.88682" lon="4.84528">
        <ele>160</ele>
        <time>2012-09-08T17:30:33Z</time>
      </trkpt>
      <trkpt lat="44.88681" lon="4.84522">
        <ele>161</ele>
        <time>2012-09-08T17:30:36Z</time>
      </trkpt>
      <trkpt lat="44.8868" lon="4.8452">
        <ele>161</ele>
        <time>2012-09-08T17:30:37Z</time>
      </trkpt>
      <trkpt lat="44.88679" lon="4.84518">
        <ele>162</ele>
        <time>2012-09-08T17:30:38Z</time>
      </trkpt>
      <trkpt lat="44.88678" lon="4.84516">
        <ele>161</ele>
        <time>2012-09-08T17:30:39Z</time>
      </trkpt>
      <trkpt lat="44.88675" lon="4.84507">
        <ele>163</ele>
        <time>2012-09-08T17:30:44Z</time>
      </trkpt>
      <trkpt lat="44.88669" lon="4.84493">
        <ele>164</ele>
        <time>2012-09-08T17:30:52Z</time>
      </trkpt>
      <trkpt lat="44.88664" lon="4.84485">
        <ele>165</ele>
        <time>2012-09-08T17:30:57Z</time>
      </trkpt>
      <trkpt lat="44.88658" lon="4.84468">
        <ele>165</ele>
        <time>2012-09-08T17:31:04Z</time>
      </trkpt>
      <trkpt lat="44.88653" lon="4.84457">
        <ele>165</ele>
        <time>2012-09-08T17:31:09Z</time>
      </trkpt>
      <trkpt lat="44.88653" lon="4.84454">
        <ele>165</ele>
        <time>2012-09-08T17:31:10Z</time>
      </trkpt>
      <trkpt lat="44.88653" lon="4.84451">
        <ele>165</ele>
        <time>2012-09-08T17:31:11Z</time>
      </trkpt>
      <trkpt lat="44.88652" lon="4.84448">
        <ele>165</ele>
        <time>2012-09-08T17:31:12Z</time>
      </trkpt>
      <trkpt lat="44.88652" lon="4.84445">
        <ele>165</ele>
        <time>2012-09-08T17:31:13Z</time>
      </trkpt>
      <trkpt lat="44.88651" lon="4.84442">
        <ele>165</ele>
        <time>2012-09-08T17:31:14Z</time>
      </trkpt>
      <trkpt lat="44.88651" lon="4.84439">
        <ele>165</ele>
        <time>2012-09-08T17:31:15Z</time>
      </trkpt>
      <trkpt lat="44.8865" lon="4.84436">
        <ele>166</ele>
        <time>2012-09-08T17:31:16Z</time>
      </trkpt>
      <trkpt lat="44.88649" lon="4.84433">
        <ele>165</ele>
        <time>2012-09-08T17:31:17Z</time>
      </trkpt>
      <trkpt lat="44.88648" lon="4.8443">
        <ele>165</ele>
        <time>2012-09-08T17:31:18Z</time>
      </trkpt>
      <trkpt lat="44.88647" lon="4.84426">
        <ele>165</ele>
        <time>2012-09-08T17:31:19Z</time>
      </trkpt>
      <trkpt lat="44.88639" lon="4.84409">
        <ele>165</ele>
        <time>2012-09-08T17:31:25Z</time>
      </trkpt>
      <trkpt lat="44.88629" lon="4.84387">
        <ele>166</ele>
        <time>2012-09-08T17:31:32Z</time>
      </trkpt>
      <trkpt lat="44.88621" lon="4.84373">
        <ele>166</ele>
        <time>2012-09-08T17:31:37Z</time>
      </trkpt>
      <trkpt lat="44.8862" lon="4.84371">
        <ele>166</ele>
        <time>2012-09-08T17:31:38Z</time>
      </trkpt>
      <trkpt lat="44.88612" lon="4.84358">
        <ele>168</ele>
        <time>2012-09-08T17:31:43Z</time>
      </trkpt>
      <trkpt lat="44.88597" lon="4.84343">
        <ele>170</ele>
        <time>2012-09-08T17:31:51Z</time>
      </trkpt>
      <trkpt lat="44.88584" lon="4.84343">
        <ele>171</ele>
        <time>2012-09-08T17:31:57Z</time>
      </trkpt>
      <trkpt lat="44.88573" lon="4.84335">
        <ele>172</ele>
        <time>2012-09-08T17:32:04Z</time>
      </trkpt>
      <trkpt lat="44.88564" lon="4.84325">
        <ele>173</ele>
        <time>2012-09-08T17:32:11Z</time>
      </trkpt>
      <trkpt lat="44.88558" lon="4.84317">
        <ele>174</ele>
        <time>2012-09-08T17:32:16Z</time>
      </trkpt>
      <trkpt lat="44.88556" lon="4.84314">
        <ele>175</ele>
        <time>2012-09-08T17:32:18Z</time>
      </trkpt>
      <trkpt lat="44.88554" lon="4.84311">
        <ele>175</ele>
        <time>2012-09-08T17:32:19Z</time>
      </trkpt>
      <trkpt lat="44.88553" lon="4.8431">
        <ele>176</ele>
        <time>2012-09-08T17:32:20Z</time>
      </trkpt>
      <trkpt lat="44.88552" lon="4.84307">
        <ele>176</ele>
        <time>2012-09-08T17:32:21Z</time>
      </trkpt>
      <trkpt lat="44.88551" lon="4.84305">
        <ele>176</ele>
        <time>2012-09-08T17:32:22Z</time>
      </trkpt>
      <trkpt lat="44.88549" lon="4.84303">
        <ele>177</ele>
        <time>2012-09-08T17:32:23Z</time>
      </trkpt>
      <trkpt lat="44.8854" lon="4.84288">
        <ele>178</ele>
        <time>2012-09-08T17:32:30Z</time>
      </trkpt>
      <trkpt lat="44.88528" lon="4.84275">
        <ele>180</ele>
        <time>2012-09-08T17:32:38Z</time>
      </trkpt>
      <trkpt lat="44.88517" lon="4.84266">
        <ele>181</ele>
        <time>2012-09-08T17:32:45Z</time>
      </trkpt>
      <trkpt lat="44.88503" lon="4.84255">
        <ele>183</ele>
        <time>2012-09-08T17:32:53Z</time>
      </trkpt>
      <trkpt lat="44.88495" lon="4.8425">
        <ele>183</ele>
        <time>2012-09-08T17:32:58Z</time>
      </trkpt>
      <trkpt lat="44.88493" lon="4.84248">
        <ele>184</ele>
        <time>2012-09-08T17:32:59Z</time>
      </trkpt>
      <trkpt lat="44.88492" lon="4.84246">
        <ele>184</ele>
        <time>2012-09-08T17:33:00Z</time>
      </trkpt>
      <trkpt lat="44.8849" lon="4.84244">
        <ele>184</ele>
        <time>2012-09-08T17:33:01Z</time>
      </trkpt>
      <trkpt lat="44.88488" lon="4.84243">
        <ele>184</ele>
        <time>2012-09-08T17:33:02Z</time>
      </trkpt>
      <trkpt lat="44.88486" lon="4.84242">
        <ele>184</ele>
        <time>2012-09-08T17:33:03Z</time>
      </trkpt>
      <trkpt lat="44.88469" lon="4.8424">
        <ele>187</ele>
        <time>2012-09-08T17:33:12Z</time>
      </trkpt>
      <trkpt lat="44.88454" lon="4.8424">
        <ele>187</ele>
        <time>2012-09-08T17:33:20Z</time>
      </trkpt>
      <trkpt lat="44.88428" lon="4.84235">
        <ele>189</ele>
        <time>2012-09-08T17:33:33Z</time>
      </trkpt>
      <trkpt lat="44.88411" lon="4.8423">
        <ele>190</ele>
        <time>2012-09-08T17:33:42Z</time>
      </trkpt>
      <trkpt lat="44.88391" lon="4.84231">
        <ele>192</ele>
        <time>2012-09-08T17:33:52Z</time>
      </trkpt>
      <trkpt lat="44.88369" lon="4.84236">
        <ele>193</ele>
        <time>2012-09-08T17:34:03Z</time>
      </trkpt>
      <trkpt lat="44.88348" lon="4.8423">
        <ele>195</ele>
        <time>2012-09-08T17:34:13Z</time>
      </trkpt>
      <trkpt lat="44.88327" lon="4.84219">
        <ele>196</ele>
        <time>2012-09-08T17:34:23Z</time>
      </trkpt>
      <trkpt lat="44.88315" lon="4.84209">
        <ele>198</ele>
        <time>2012-09-08T17:34:30Z</time>
      </trkpt>
      <trkpt lat="44.88298" lon="4.84197">
        <ele>200</ele>
        <time>2012-09-08T17:34:39Z</time>
      </trkpt>
      <trkpt lat="44.88284" lon="4.8419">
        <ele>202</ele>
        <time>2012-09-08T17:34:47Z</time>
      </trkpt>
      <trkpt lat="44.88267" lon="4.84183">
        <ele>203</ele>
        <time>2012-09-08T17:34:57Z</time>
      </trkpt>
      <trkpt lat="44.88249" lon="4.84178">
        <ele>205</ele>
        <time>2012-09-08T17:35:07Z</time>
      </trkpt>
      <trkpt lat="44.88235" lon="4.84183">
        <ele>207</ele>
        <time>2012-09-08T17:35:15Z</time>
      </trkpt>
      <trkpt lat="44.88223" lon="4.84185">
        <ele>209</ele>
        <time>2012-09-08T17:35:23Z</time>
      </trkpt>
      <trkpt lat="44.88209" lon="4.84185">
        <ele>211</ele>
        <time>2012-09-08T17:35:32Z</time>
      </trkpt>
      <trkpt lat="44.88206" lon="4.84186">
        <ele>212</ele>
        <time>2012-09-08T17:35:34Z</time>
      </trkpt>
      <trkpt lat="44.88204" lon="4.84187">
        <ele>212</ele>
        <time>2012-09-08T17:35:35Z</time>
      </trkpt>
      <trkpt lat="44.88204" lon="4.84189">
        <ele>212</ele>
        <time>2012-09-08T17:35:36Z</time>
      </trkpt>
      <trkpt lat="44.88205" lon="4.84191">
        <ele>212</ele>
        <time>2012-09-08T17:35:37Z</time>
      </trkpt>
      <trkpt lat="44.88206" lon="4.84192">
        <ele>212</ele>
        <time>2012-09-08T17:35:38Z</time>
      </trkpt>
      <trkpt lat="44.8822" lon="4.84201">
        <ele>213</ele>
        <time>2012-09-08T17:35:46Z</time>
      </trkpt>
      <trkpt lat="44.88235" lon="4.84211">
        <ele>214</ele>
        <time>2012-09-08T17:35:54Z</time>
      </trkpt>
      <trkpt lat="44.88249" lon="4.84224">
        <ele>214</ele>
        <time>2012-09-08T17:36:02Z</time>
      </trkpt>
      <trkpt lat="44.88269" lon="4.84242">
        <ele>216</ele>
        <time>2012-09-08T17:36:11Z</time>
      </trkpt>
      <trkpt lat="44.88286" lon="4.84263">
        <ele>217</ele>
        <time>2012-09-08T17:36:20Z</time>
      </trkpt>
      <trkpt lat="44.88299" lon="4.84286">
        <ele>218</ele>
        <time>2012-09-08T17:36:29Z</time>
      </trkpt>
      <trkpt lat="44.88312" lon="4.84308">
        <ele>219</ele>
        <time>2012-09-08T17:36:37Z</time>
      </trkpt>
      <trkpt lat="44.88325" lon="4.8433">
        <ele>219</ele>
        <time>2012-09-08T17:36:45Z</time>
      </trkpt>
      <trkpt lat="44.88334" lon="4.84351">
        <ele>220</ele>
        <time>2012-09-08T17:36:52Z</time>
      </trkpt>
      <trkpt lat="44.8835" lon="4.84369">
        <ele>219</ele>
        <time>2012-09-08T17:37:00Z</time>
      </trkpt>
      <trkpt lat="44.88355" lon="4.84367">
        <ele>220</ele>
        <time>2012-09-08T17:37:02Z</time>
      </trkpt>
      <trkpt lat="44.88356" lon="4.84368">
        <ele>220</ele>
        <time>2012-09-08T17:37:03Z</time>
      </trkpt>
      <trkpt lat="44.88361" lon="4.84374">
        <ele>221</ele>
        <time>2012-09-08T17:37:05Z</time>
      </trkpt>
      <trkpt lat="44.88365" lon="4.84378">
        <ele>220</ele>
        <time>2012-09-08T17:37:06Z</time>
      </trkpt>
      <trkpt lat="44.88369" lon="4.8438">
        <ele>219</ele>
        <time>2012-09-08T17:37:07Z</time>
      </trkpt>
      <trkpt lat="44.88371" lon="4.8438">
        <ele>220</ele>
        <time>2012-09-08T17:37:08Z</time>
      </trkpt>
      <trkpt lat="44.88373" lon="4.8438">
        <ele>221</ele>
        <time>2012-09-08T17:37:09Z</time>
      </trkpt>
      <trkpt lat="44.88375" lon="4.84381">
        <ele>222</ele>
        <time>2012-09-08T17:37:10Z</time>
      </trkpt>
      <trkpt lat="44.88376" lon="4.84383">
        <ele>222</ele>
        <time>2012-09-08T17:37:11Z</time>
      </trkpt>
      <trkpt lat="44.88377" lon="4.84383">
        <ele>222</ele>
        <time>2012-09-08T17:37:16Z</time>
      </trkpt>
      <trkpt lat="44.88374" lon="4.84382">
        <ele>222</ele>
        <time>2012-09-08T17:37:25Z</time>
      </trkpt>
      <trkpt lat="44.88374" lon="4.8438">
        <ele>222</ele>
        <time>2012-09-08T17:37:46Z</time>
      </trkpt>
      <trkpt lat="44.88374" lon="4.84382">
        <ele>222</ele>
        <time>2012-09-08T17:38:02Z</time>
      </trkpt>
      <trkpt lat="44.88375" lon="4.84382">
        <ele>222</ele>
        <time>2012-09-08T17:38:18Z</time>
      </trkpt>
      <trkpt lat="44.88375" lon="4.84383">
        <ele>222</ele>
        <time>2012-09-08T17:38:37Z</time>
      </trkpt>
      <trkpt lat="44.88373" lon="4.84382">
        <ele>222</ele>
        <time>2012-09-08T17:38:59Z</time>
      </trkpt>
      <trkpt lat="44.88373" lon="4.84383">
        <ele>222</ele>
        <time>2012-09-08T17:39:13Z</time>
      </trkpt>
      <trkpt lat="44.88374" lon="4.84381">
        <ele>222</ele>
        <time>2012-09-08T17:39:32Z</time>
      </trkpt>
      <trkpt lat="44.88377" lon="4.84388">
        <ele>222</ele>
        <time>2012-09-08T17:39:49Z</time>
      </trkpt>
      <trkpt lat="44.88391" lon="4.84402">
        <ele>222</ele>
        <time>2012-09-08T17:39:56Z</time>
      </trkpt>
      <trkpt lat="44.88396" lon="4.84414">
        <ele>223</ele>
        <time>2012-09-08T17:40:01Z</time>
      </trkpt>
      <trkpt lat="44.88396" lon="4.84417">
        <ele>223</ele>
        <time>2012-09-08T17:40:02Z</time>
      </trkpt>
      <trkpt lat="44.88395" lon="4.84419">
        <ele>224</ele>
        <time>2012-09-08T17:40:03Z</time>
      </trkpt>
      <trkpt lat="44.88394" lon="4.84419">
        <ele>224</ele>
        <time>2012-09-08T17:40:04Z</time>
      </trkpt>
      <trkpt lat="44.88393" lon="4.84419">
        <ele>223</ele>
        <time>2012-09-08T17:40:05Z</time>
      </trkpt>
      <trkpt lat="44.88392" lon="4.84417">
        <ele>224</ele>
        <time>2012-09-08T17:40:06Z</time>
      </trkpt>
      <trkpt lat="44.88389" lon="4.84414">
        <ele>223</ele>
        <time>2012-09-08T17:40:07Z</time>
      </trkpt>
      <trkpt lat="44.88385" lon="4.84409">
        <ele>221</ele>
        <time>2012-09-08T17:40:08Z</time>
      </trkpt>
      <trkpt lat="44.88381" lon="4.84404">
        <ele>221</ele>
        <time>2012-09-08T17:40:09Z</time>
      </trkpt>
      <trkpt lat="44.88376" lon="4.84399">
        <ele>221</ele>
        <time>2012-09-08T17:40:10Z</time>
      </trkpt>
      <trkpt lat="44.88372" lon="4.84394">
        <ele>221</ele>
        <time>2012-09-08T17:40:11Z</time>
      </trkpt>
      <trkpt lat="44.88367" lon="4.84388">
        <ele>221</ele>
        <time>2012-09-08T17:40:12Z</time>
      </trkpt>
      <trkpt lat="44.88359" lon="4.84378">
        <ele>220</ele>
        <time>2012-09-08T17:40:14Z</time>
      </trkpt>
      <trkpt lat="44.88355" lon="4.84374">
        <ele>221</ele>
        <time>2012-09-08T17:40:15Z</time>
      </trkpt>
      <trkpt lat="44.88336" lon="4.84362">
        <ele>220</ele>
        <time>2012-09-08T17:40:21Z</time>
      </trkpt>
      <trkpt lat="44.88334" lon="4.84361">
        <ele>221</ele>
        <time>2012-09-08T17:40:23Z</time>
      </trkpt>
      <trkpt lat="44.88333" lon="4.8436">
        <ele>221</ele>
        <time>2012-09-08T17:40:24Z</time>
      </trkpt>
      <trkpt lat="44.88332" lon="4.84358">
        <ele>221</ele>
        <time>2012-09-08T17:40:25Z</time>
      </trkpt>
      <trkpt lat="44.88321" lon="4.84344">
        <ele>223</ele>
        <time>2012-09-08T17:40:34Z</time>
      </trkpt>
      <trkpt lat="44.88316" lon="4.84341">
        <ele>225</ele>
        <time>2012-09-08T17:40:38Z</time>
      </trkpt>
      <trkpt lat="44.88315" lon="4.8434">
        <ele>224</ele>
        <time>2012-09-08T17:40:39Z</time>
      </trkpt>
      <trkpt lat="44.88314" lon="4.8434">
        <ele>225</ele>
        <time>2012-09-08T17:40:40Z</time>
      </trkpt>
      <trkpt lat="44.88307" lon="4.84346">
        <ele>225</ele>
        <time>2012-09-08T17:40:46Z</time>
      </trkpt>
      <trkpt lat="44.88302" lon="4.84345">
        <ele>226</ele>
        <time>2012-09-08T17:40:51Z</time>
      </trkpt>
      <trkpt lat="44.8829" lon="4.84341">
        <ele>226</ele>
        <time>2012-09-08T17:40:58Z</time>
      </trkpt>
      <trkpt lat="44.88288" lon="4.8434">
        <ele>227</ele>
        <time>2012-09-08T17:40:59Z</time>
      </trkpt>
      <trkpt lat="44.88286" lon="4.84339">
        <ele>227</ele>
        <time>2012-09-08T17:41:00Z</time>
      </trkpt>
      <trkpt lat="44.88285" lon="4.84338">
        <ele>227</ele>
        <time>2012-09-08T17:41:01Z</time>
      </trkpt>
      <trkpt lat="44.88284" lon="4.84336">
        <ele>227</ele>
        <time>2012-09-08T17:41:02Z</time>
      </trkpt>
      <trkpt lat="44.88283" lon="4.84335">
        <ele>227</ele>
        <time>2012-09-08T17:41:03Z</time>
      </trkpt>
      <trkpt lat="44.88273" lon="4.84332">
        <ele>227</ele>
        <time>2012-09-08T17:41:09Z</time>
      </trkpt>
      <trkpt lat="44.88263" lon="4.84325">
        <ele>228</ele>
        <time>2012-09-08T17:41:15Z</time>
      </trkpt>
      <trkpt lat="44.88261" lon="4.84324">
        <ele>228</ele>
        <time>2012-09-08T17:41:16Z</time>
      </trkpt>
      <trkpt lat="44.88244" lon="4.84324">
        <ele>227</ele>
        <time>2012-09-08T17:41:21Z</time>
      </trkpt>
      <trkpt lat="44.88237" lon="4.84322">
        <ele>227</ele>
        <time>2012-09-08T17:41:23Z</time>
      </trkpt>
      <trkpt lat="44.88235" lon="4.84318">
        <ele>227</ele>
        <time>2012-09-08T17:41:24Z</time>
      </trkpt>
      <trkpt lat="44.88233" lon="4.84316">
        <ele>228</ele>
        <time>2012-09-08T17:41:25Z</time>
      </trkpt>
      <trkpt lat="44.8823" lon="4.84315">
        <ele>228</ele>
        <time>2012-09-08T17:41:26Z</time>
      </trkpt>
      <trkpt lat="44.88228" lon="4.84315">
        <ele>228</ele>
        <time>2012-09-08T17:41:27Z</time>
      </trkpt>
      <trkpt lat="44.88226" lon="4.84316">
        <ele>228</ele>
        <time>2012-09-08T17:41:28Z</time>
      </trkpt>
      <trkpt lat="44.88225" lon="4.84317">
        <ele>229</ele>
        <time>2012-09-08T17:41:29Z</time>
      </trkpt>
      <trkpt lat="44.88223" lon="4.84317">
        <ele>229</ele>
        <time>2012-09-08T17:41:30Z</time>
      </trkpt>
      <trkpt lat="44.88221" lon="4.84315">
        <ele>229</ele>
        <time>2012-09-08T17:41:31Z</time>
      </trkpt>
      <trkpt lat="44.88207" lon="4.84307">
        <ele>231</ele>
        <time>2012-09-08T17:41:38Z</time>
      </trkpt>
      <trkpt lat="44.88205" lon="4.84307">
        <ele>232</ele>
        <time>2012-09-08T17:41:39Z</time>
      </trkpt>
      <trkpt lat="44.88203" lon="4.84307">
        <ele>232</ele>
        <time>2012-09-08T17:41:40Z</time>
      </trkpt>
      <trkpt lat="44.88189" lon="4.84313">
        <ele>231</ele>
        <time>2012-09-08T17:41:45Z</time>
      </trkpt>
      <trkpt lat="44.88185" lon="4.84314">
        <ele>232</ele>
        <time>2012-09-08T17:41:47Z</time>
      </trkpt>
      <trkpt lat="44.88168" lon="4.84319">
        <ele>230</ele>
        <time>2012-09-08T17:41:53Z</time>
      </trkpt>
      <trkpt lat="44.88141" lon="4.84344">
        <ele>229</ele>
        <time>2012-09-08T17:42:01Z</time>
      </trkpt>
      <trkpt lat="44.8813" lon="4.84352">
        <ele>230</ele>
        <time>2012-09-08T17:42:06Z</time>
      </trkpt>
      <trkpt lat="44.88114" lon="4.84348">
        <ele>230</ele>
        <time>2012-09-08T17:42:11Z</time>
      </trkpt>
      <trkpt lat="44.88091" lon="4.84337">
        <ele>231</ele>
        <time>2012-09-08T17:42:19Z</time>
      </trkpt>
      <trkpt lat="44.88075" lon="4.84333">
        <ele>231</ele>
        <time>2012-09-08T17:42:25Z</time>
      </trkpt>
      <trkpt lat="44.88069" lon="4.84331">
        <ele>232</ele>
        <time>2012-09-08T17:42:31Z</time>
      </trkpt>
      <trkpt lat="44.88063" lon="4.84351">
        <ele>232</ele>
        <time>2012-09-08T17:42:39Z</time>
      </trkpt>
      <trkpt lat="44.88054" lon="4.84373">
        <ele>231</ele>
        <time>2012-09-08T17:42:47Z</time>
      </trkpt>
      <trkpt lat="44.8804" lon="4.84383">
        <ele>232</ele>
        <time>2012-09-08T17:42:54Z</time>
      </trkpt>
      <trkpt lat="44.88038" lon="4.84383">
        <ele>232</ele>
        <time>2012-09-08T17:42:55Z</time>
      </trkpt>
      <trkpt lat="44.88032" lon="4.84384">
        <ele>231</ele>
        <time>2012-09-08T17:43:00Z</time>
      </trkpt>
      <trkpt lat="44.8802" lon="4.84394">
        <ele>230</ele>
        <time>2012-09-08T17:43:06Z</time>
      </trkpt>
      <trkpt lat="44.88018" lon="4.84398">
        <ele>228</ele>
        <time>2012-09-08T17:43:11Z</time>
      </trkpt>
      <trkpt lat="44.88014" lon="4.84422">
        <ele>226</ele>
        <time>2012-09-08T17:43:18Z</time>
      </trkpt>
      <trkpt lat="44.88008" lon="4.84436">
        <ele>224</ele>
        <time>2012-09-08T17:43:21Z</time>
      </trkpt>
      <trkpt lat="44.88" lon="4.84445">
        <ele>223</ele>
        <time>2012-09-08T17:43:23Z</time>
      </trkpt>
      <trkpt lat="44.87995" lon="4.84448">
        <ele>223</ele>
        <time>2012-09-08T17:43:24Z</time>
      </trkpt>
      <trkpt lat="44.87991" lon="4.84448">
        <ele>223</ele>
        <time>2012-09-08T17:43:25Z</time>
      </trkpt>
      <trkpt lat="44.87987" lon="4.84447">
        <ele>223</ele>
        <time>2012-09-08T17:43:26Z</time>
      </trkpt>
      <trkpt lat="44.87985" lon="4.84444">
        <ele>223</ele>
        <time>2012-09-08T17:43:27Z</time>
      </trkpt>
      <trkpt lat="44.87982" lon="4.84442">
        <ele>223</ele>
        <time>2012-09-08T17:43:28Z</time>
      </trkpt>
      <trkpt lat="44.8798" lon="4.8444">
        <ele>223</ele>
        <time>2012-09-08T17:43:29Z</time>
      </trkpt>
      <trkpt lat="44.87951" lon="4.84421">
        <ele>223</ele>
        <time>2012-09-08T17:43:37Z</time>
      </trkpt>
      <trkpt lat="44.87918" lon="4.84399">
        <ele>220</ele>
        <time>2012-09-08T17:43:43Z</time>
      </trkpt>
      <trkpt lat="44.87863" lon="4.84361">
        <ele>218</ele>
        <time>2012-09-08T17:43:53Z</time>
      </trkpt>
      <trkpt lat="44.87804" lon="4.84318">
        <ele>215</ele>
        <time>2012-09-08T17:44:04Z</time>
      </trkpt>
      <trkpt lat="44.87761" lon="4.84286">
        <ele>214</ele>
        <time>2012-09-08T17:44:12Z</time>
      </trkpt>
      <trkpt lat="44.8775" lon="4.84278">
        <ele>214</ele>
        <time>2012-09-08T17:44:14Z</time>
      </trkpt>
      <trkpt lat="44.87746" lon="4.84272">
        <ele>214</ele>
        <time>2012-09-08T17:44:15Z</time>
      </trkpt>
      <trkpt lat="44.87744" lon="4.84265">
        <ele>214</ele>
        <time>2012-09-08T17:44:16Z</time>
      </trkpt>
      <trkpt lat="44.87744" lon="4.84259">
        <ele>214</ele>
        <time>2012-09-08T17:44:17Z</time>
      </trkpt>
      <trkpt lat="44.87745" lon="4.84253">
        <ele>214</ele>
        <time>2012-09-08T17:44:18Z</time>
      </trkpt>
      <trkpt lat="44.87746" lon="4.84249">
        <ele>215</ele>
        <time>2012-09-08T17:44:19Z</time>
      </trkpt>
      <trkpt lat="44.87754" lon="4.84227">
        <ele>217</ele>
        <time>2012-09-08T17:44:25Z</time>
      </trkpt>
      <trkpt lat="44.87756" lon="4.84225">
        <ele>217</ele>
        <time>2012-09-08T17:44:26Z</time>
      </trkpt>
      <trkpt lat="44.8776" lon="4.84215">
        <ele>219</ele>
        <time>2012-09-08T17:44:29Z</time>
      </trkpt>
      <trkpt lat="44.87776" lon="4.84206">
        <ele>221</ele>
        <time>2012-09-08T17:44:34Z</time>
      </trkpt>
      <trkpt lat="44.87808" lon="4.84196">
        <ele>221</ele>
        <time>2012-09-08T17:44:42Z</time>
      </trkpt>
      <trkpt lat="44.87825" lon="4.84183">
        <ele>221</ele>
        <time>2012-09-08T17:44:47Z</time>
      </trkpt>
      <trkpt lat="44.87838" lon="4.84174">
        <ele>219</ele>
        <time>2012-09-08T17:44:50Z</time>
      </trkpt>
      <trkpt lat="44.8785" lon="4.84166">
        <ele>217</ele>
        <time>2012-09-08T17:44:52Z</time>
      </trkpt>
      <trkpt lat="44.87856" lon="4.84162">
        <ele>216</ele>
        <time>2012-09-08T17:44:53Z</time>
      </trkpt>
      <trkpt lat="44.87863" lon="4.84158">
        <ele>215</ele>
        <time>2012-09-08T17:44:54Z</time>
      </trkpt>
      <trkpt lat="44.8787" lon="4.84156">
        <ele>215</ele>
        <time>2012-09-08T17:44:55Z</time>
      </trkpt>
      <trkpt lat="44.87876" lon="4.84156">
        <ele>214</ele>
        <time>2012-09-08T17:44:56Z</time>
      </trkpt>
      <trkpt lat="44.87882" lon="4.84158">
        <ele>214</ele>
        <time>2012-09-08T17:44:57Z</time>
      </trkpt>
      <trkpt lat="44.87887" lon="4.8416">
        <ele>214</ele>
        <time>2012-09-08T17:44:58Z</time>
      </trkpt>
      <trkpt lat="44.87893" lon="4.84162">
        <ele>214</ele>
        <time>2012-09-08T17:44:59Z</time>
      </trkpt>
      <trkpt lat="44.87898" lon="4.84162">
        <ele>213</ele>
        <time>2012-09-08T17:45:00Z</time>
      </trkpt>
      <trkpt lat="44.87904" lon="4.8416">
        <ele>212</ele>
        <time>2012-09-08T17:45:01Z</time>
      </trkpt>
      <trkpt lat="44.87909" lon="4.84156">
        <ele>212</ele>
        <time>2012-09-08T17:45:02Z</time>
      </trkpt>
      <trkpt lat="44.87915" lon="4.84152">
        <ele>211</ele>
        <time>2012-09-08T17:45:03Z</time>
      </trkpt>
      <trkpt lat="44.87922" lon="4.84148">
        <ele>209</ele>
        <time>2012-09-08T17:45:04Z</time>
      </trkpt>
      <trkpt lat="44.87944" lon="4.84132">
        <ele>208</ele>
        <time>2012-09-08T17:45:07Z</time>
      </trkpt>
      <trkpt lat="44.87949" lon="4.84126">
        <ele>207</ele>
        <time>2012-09-08T17:45:08Z</time>
      </trkpt>
      <trkpt lat="44.87953" lon="4.84118">
        <ele>207</ele>
        <time>2012-09-08T17:45:09Z</time>
      </trkpt>
      <trkpt lat="44.87954" lon="4.8411">
        <ele>208</ele>
        <time>2012-09-08T17:45:10Z</time>
      </trkpt>
      <trkpt lat="44.87954" lon="4.84103">
        <ele>207</ele>
        <time>2012-09-08T17:45:11Z</time>
      </trkpt>
      <trkpt lat="44.87953" lon="4.84096">
        <ele>207</ele>
        <time>2012-09-08T17:45:12Z</time>
      </trkpt>
      <trkpt lat="44.87951" lon="4.8409">
        <ele>207</ele>
        <time>2012-09-08T17:45:13Z</time>
      </trkpt>
      <trkpt lat="44.87949" lon="4.84084">
        <ele>207</ele>
        <time>2012-09-08T17:45:14Z</time>
      </trkpt>
      <trkpt lat="44.87947" lon="4.84079">
        <ele>207</ele>
        <time>2012-09-08T17:45:15Z</time>
      </trkpt>
      <trkpt lat="44.87922" lon="4.8404">
        <ele>207</ele>
        <time>2012-09-08T17:45:24Z</time>
      </trkpt>
      <trkpt lat="44.87896" lon="4.84008">
        <ele>207</ele>
        <time>2012-09-08T17:45:33Z</time>
      </trkpt>
      <trkpt lat="44.87887" lon="4.83995">
        <ele>207</ele>
        <time>2012-09-08T17:45:37Z</time>
      </trkpt>
      <trkpt lat="44.87888" lon="4.83992">
        <ele>207</ele>
        <time>2012-09-08T17:45:38Z</time>
      </trkpt>
      <trkpt lat="44.87891" lon="4.83991">
        <ele>207</ele>
        <time>2012-09-08T17:45:39Z</time>
      </trkpt>
      <trkpt lat="44.87893" lon="4.83991">
        <ele>208</ele>
        <time>2012-09-08T17:45:40Z</time>
      </trkpt>
      <trkpt lat="44.87896" lon="4.83991">
        <ele>208</ele>
        <time>2012-09-08T17:45:41Z</time>
      </trkpt>
      <trkpt lat="44.87899" lon="4.83991">
        <ele>208</ele>
        <time>2012-09-08T17:45:42Z</time>
      </trkpt>
      <trkpt lat="44.87902" lon="4.83991">
        <ele>208</ele>
        <time>2012-09-08T17:45:43Z</time>
      </trkpt>
      <trkpt lat="44.87904" lon="4.83991">
        <ele>208</ele>
        <time>2012-09-08T17:45:44Z</time>
      </trkpt>
      <trkpt lat="44.87933" lon="4.83991">
        <ele>211</ele>
        <time>2012-09-08T17:45:55Z</time>
      </trkpt>
      <trkpt lat="44.87953" lon="4.83994">
        <ele>211</ele>
        <time>2012-09-08T17:46:03Z</time>
      </trkpt>
      <trkpt lat="44.87984" lon="4.83998">
        <ele>214</ele>
        <time>2012-09-08T17:46:15Z</time>
      </trkpt>
      <trkpt lat="44.88018" lon="4.84002">
        <ele>217</ele>
        <time>2012-09-08T17:46:29Z</time>
      </trkpt>
      <trkpt lat="44.88046" lon="4.84004">
        <ele>218</ele>
        <time>2012-09-08T17:46:40Z</time>
      </trkpt>
      <trkpt lat="44.88051" lon="4.84005">
        <ele>218</ele>
        <time>2012-09-08T17:46:45Z</time>
      </trkpt>
      <trkpt lat="44.88051" lon="4.84003">
        <ele>218</ele>
        <time>2012-09-08T17:46:53Z</time>
      </trkpt>
      <trkpt lat="44.8805" lon="4.84003">
        <ele>218</ele>
        <time>2012-09-08T17:46:59Z</time>
      </trkpt>
      <trkpt lat="44.88051" lon="4.84004">
        <ele>218</ele>
        <time>2012-09-08T17:47:08Z</time>
      </trkpt>
      <trkpt lat="44.88059" lon="4.84004">
        <ele>218</ele>
        <time>2012-09-08T17:47:13Z</time>
      </trkpt>
      <trkpt lat="44.88084" lon="4.84005">
        <ele>219</ele>
        <time>2012-09-08T17:47:21Z</time>
      </trkpt>
      <trkpt lat="44.88106" lon="4.84012">
        <ele>220</ele>
        <time>2012-09-08T17:47:28Z</time>
      </trkpt>
      <trkpt lat="44.8812" lon="4.84029">
        <ele>220</ele>
        <time>2012-09-08T17:47:35Z</time>
      </trkpt>
      <trkpt lat="44.88126" lon="4.84036">
        <ele>220</ele>
        <time>2012-09-08T17:47:37Z</time>
      </trkpt>
      <trkpt lat="44.8813" lon="4.84039">
        <ele>220</ele>
        <time>2012-09-08T17:47:38Z</time>
      </trkpt>
      <trkpt lat="44.88157" lon="4.84051">
        <ele>218</ele>
        <time>2012-09-08T17:47:43Z</time>
      </trkpt>
      <trkpt lat="44.88185" lon="4.84063">
        <ele>216</ele>
        <time>2012-09-08T17:47:47Z</time>
      </trkpt>
      <trkpt lat="44.88192" lon="4.84064">
        <ele>215</ele>
        <time>2012-09-08T17:47:48Z</time>
      </trkpt>
      <trkpt lat="44.882" lon="4.84063">
        <ele>215</ele>
        <time>2012-09-08T17:47:49Z</time>
      </trkpt>
      <trkpt lat="44.88208" lon="4.84061">
        <ele>215</ele>
        <time>2012-09-08T17:47:50Z</time>
      </trkpt>
      <trkpt lat="44.88269" lon="4.84037">
        <ele>214</ele>
        <time>2012-09-08T17:47:59Z</time>
      </trkpt>
      <trkpt lat="44.88317" lon="4.84017">
        <ele>213</ele>
        <time>2012-09-08T17:48:07Z</time>
      </trkpt>
      <trkpt lat="44.88356" lon="4.83996">
        <ele>214</ele>
        <time>2012-09-08T17:48:14Z</time>
      </trkpt>
      <trkpt lat="44.88397" lon="4.83962">
        <ele>212</ele>
        <time>2012-09-08T17:48:22Z</time>
      </trkpt>
      <trkpt lat="44.88423" lon="4.83942">
        <ele>212</ele>
        <time>2012-09-08T17:48:27Z</time>
      </trkpt>
      <trkpt lat="44.88429" lon="4.8394">
        <ele>211</ele>
        <time>2012-09-08T17:48:28Z</time>
      </trkpt>
      <trkpt lat="44.88435" lon="4.8394">
        <ele>211</ele>
        <time>2012-09-08T17:48:29Z</time>
      </trkpt>
      <trkpt lat="44.88448" lon="4.8394">
        <ele>211</ele>
        <time>2012-09-08T17:48:31Z</time>
      </trkpt>
      <trkpt lat="44.88461" lon="4.83937">
        <ele>210</ele>
        <time>2012-09-08T17:48:33Z</time>
      </trkpt>
      <trkpt lat="44.88468" lon="4.83937">
        <ele>209</ele>
        <time>2012-09-08T17:48:34Z</time>
      </trkpt>
      <trkpt lat="44.88475" lon="4.8394">
        <ele>209</ele>
        <time>2012-09-08T17:48:35Z</time>
      </trkpt>
      <trkpt lat="44.88482" lon="4.83946">
        <ele>208</ele>
        <time>2012-09-08T17:48:36Z</time>
      </trkpt>
      <trkpt lat="44.88488" lon="4.83953">
        <ele>208</ele>
        <time>2012-09-08T17:48:37Z</time>
      </trkpt>
      <trkpt lat="44.88493" lon="4.83962">
        <ele>208</ele>
        <time>2012-09-08T17:48:38Z</time>
      </trkpt>
      <trkpt lat="44.88534" lon="4.84026">
        <ele>204</ele>
        <time>2012-09-08T17:48:45Z</time>
      </trkpt>
      <trkpt lat="44.88581" lon="4.84071">
        <ele>201</ele>
        <time>2012-09-08T17:48:51Z</time>
      </trkpt>
      <trkpt lat="44.88639" lon="4.84123">
        <ele>198</ele>
        <time>2012-09-08T17:48:58Z</time>
      </trkpt>
      <trkpt lat="44.88674" lon="4.84148">
        <ele>196</ele>
        <time>2012-09-08T17:49:02Z</time>
      </trkpt>
      <trkpt lat="44.88682" lon="4.84154">
        <ele>195</ele>
        <time>2012-09-08T17:49:03Z</time>
      </trkpt>
      <trkpt lat="44.88707" lon="4.84168">
        <ele>193</ele>
        <time>2012-09-08T17:49:06Z</time>
      </trkpt>
      <trkpt lat="44.88713" lon="4.84172">
        <ele>193</ele>
        <time>2012-09-08T17:49:07Z</time>
      </trkpt>
      <trkpt lat="44.88729" lon="4.84183">
        <ele>191</ele>
        <time>2012-09-08T17:49:11Z</time>
      </trkpt>
      <trkpt lat="44.88733" lon="4.84183">
        <ele>192</ele>
        <time>2012-09-08T17:49:12Z</time>
      </trkpt>
      <trkpt lat="44.88736" lon="4.84181">
        <ele>192</ele>
        <time>2012-09-08T17:49:13Z</time>
      </trkpt>
      <trkpt lat="44.88739" lon="4.84177">
        <ele>192</ele>
        <time>2012-09-08T17:49:14Z</time>
      </trkpt>
      <trkpt lat="44.8874" lon="4.84174">
        <ele>191</ele>
        <time>2012-09-08T17:49:15Z</time>
      </trkpt>
      <trkpt lat="44.88741" lon="4.84171">
        <ele>192</ele>
        <time>2012-09-08T17:49:16Z</time>
      </trkpt>
      <trkpt lat="44.88742" lon="4.84168">
        <ele>192</ele>
        <time>2012-09-08T17:49:17Z</time>
      </trkpt>
      <trkpt lat="44.88742" lon="4.84165">
        <ele>192</ele>
        <time>2012-09-08T17:49:18Z</time>
      </trkpt>
      <trkpt lat="44.88742" lon="4.84161">
        <ele>192</ele>
        <time>2012-09-08T17:49:19Z</time>
      </trkpt>
      <trkpt lat="44.88748" lon="4.84136">
        <ele>195</ele>
        <time>2012-09-08T17:49:27Z</time>
      </trkpt>
      <trkpt lat="44.88753" lon="4.84114">
        <ele>197</ele>
        <time>2012-09-08T17:49:34Z</time>
      </trkpt>
      <trkpt lat="44.88762" lon="4.84094">
        <ele>200</ele>
        <time>2012-09-08T17:49:41Z</time>
      </trkpt>
      <trkpt lat="44.88775" lon="4.84088">
        <ele>201</ele>
        <time>2012-09-08T17:49:47Z</time>
      </trkpt>
      <trkpt lat="44.88789" lon="4.84094">
        <ele>202</ele>
        <time>2012-09-08T17:49:53Z</time>
      </trkpt>
      <trkpt lat="44.88809" lon="4.84109">
        <ele>201</ele>
        <time>2012-09-08T17:50:01Z</time>
      </trkpt>
      <trkpt lat="44.88835" lon="4.84129">
        <ele>202</ele>
        <time>2012-09-08T17:50:09Z</time>
      </trkpt>
      <trkpt lat="44.88839" lon="4.84132">
        <ele>202</ele>
        <time>2012-09-08T17:50:10Z</time>
      </trkpt>
      <trkpt lat="44.88863" lon="4.84161">
        <ele>201</ele>
        <time>2012-09-08T17:50:18Z</time>
      </trkpt>
      <trkpt lat="44.88895" lon="4.84196">
        <ele>199</ele>
        <time>2012-09-08T17:50:26Z</time>
      </trkpt>
      <trkpt lat="44.88937" lon="4.84229">
        <ele>198</ele>
        <time>2012-09-08T17:50:34Z</time>
      </trkpt>
      <trkpt lat="44.88965" lon="4.84246">
        <ele>199</ele>
        <time>2012-09-08T17:50:41Z</time>
      </trkpt>
      <trkpt lat="44.88987" lon="4.84265">
        <ele>201</ele>
        <time>2012-09-08T17:50:48Z</time>
      </trkpt>
      <trkpt lat="44.89006" lon="4.84294">
        <ele>201</ele>
        <time>2012-09-08T17:50:55Z</time>
      </trkpt>
      <trkpt lat="44.89017" lon="4.8431">
        <ele>201</ele>
        <time>2012-09-08T17:50:58Z</time>
      </trkpt>
      <trkpt lat="44.89035" lon="4.84329">
        <ele>201</ele>
        <time>2012-09-08T17:51:04Z</time>
      </trkpt>
      <trkpt lat="44.89047" lon="4.84343">
        <ele>203</ele>
        <time>2012-09-08T17:51:11Z</time>
      </trkpt>
      <trkpt lat="44.89063" lon="4.84351">
        <ele>206</ele>
        <time>2012-09-08T17:51:18Z</time>
      </trkpt>
      <trkpt lat="44.89072" lon="4.84337">
        <ele>208</ele>
        <time>2012-09-08T17:51:24Z</time>
      </trkpt>
      <trkpt lat="44.89083" lon="4.84314">
        <ele>211</ele>
        <time>2012-09-08T17:51:32Z</time>
      </trkpt>
      <trkpt lat="44.89095" lon="4.84315">
        <ele>212</ele>
        <time>2012-09-08T17:51:37Z</time>
      </trkpt>
      <trkpt lat="44.89118" lon="4.84334">
        <ele>212</ele>
        <time>2012-09-08T17:51:46Z</time>
      </trkpt>
      <trkpt lat="44.8914" lon="4.84355">
        <ele>211</ele>
        <time>2012-09-08T17:51:54Z</time>
      </trkpt>
      <trkpt lat="44.89166" lon="4.84388">
        <ele>209</ele>
        <time>2012-09-08T17:52:02Z</time>
      </trkpt>
      <trkpt lat="44.8917" lon="4.84393">
        <ele>209</ele>
        <time>2012-09-08T17:52:03Z</time>
      </trkpt>
      <trkpt lat="44.89177" lon="4.84407">
        <ele>208</ele>
        <time>2012-09-08T17:52:05Z</time>
      </trkpt>
      <trkpt lat="44.8918" lon="4.84415">
        <ele>208</ele>
        <time>2012-09-08T17:52:06Z</time>
      </trkpt>
      <trkpt lat="44.89181" lon="4.84423">
        <ele>207</ele>
        <time>2012-09-08T17:52:07Z</time>
      </trkpt>
      <trkpt lat="44.89179" lon="4.84431">
        <ele>206</ele>
        <time>2012-09-08T17:52:08Z</time>
      </trkpt>
      <trkpt lat="44.89175" lon="4.84438">
        <ele>205</ele>
        <time>2012-09-08T17:52:09Z</time>
      </trkpt>
      <trkpt lat="44.89173" lon="4.84446">
        <ele>205</ele>
        <time>2012-09-08T17:52:10Z</time>
      </trkpt>
      <trkpt lat="44.89173" lon="4.84454">
        <ele>205</ele>
        <time>2012-09-08T17:52:11Z</time>
      </trkpt>
      <trkpt lat="44.89175" lon="4.84461">
        <ele>205</ele>
        <time>2012-09-08T17:52:12Z</time>
      </trkpt>
      <trkpt lat="44.89177" lon="4.84467">
        <ele>205</ele>
        <time>2012-09-08T17:52:13Z</time>
      </trkpt>
      <trkpt lat="44.8918" lon="4.84473">
        <ele>205</ele>
        <time>2012-09-08T17:52:14Z</time>
      </trkpt>
      <trkpt lat="44.89183" lon="4.84478">
        <ele>205</ele>
        <time>2012-09-08T17:52:15Z</time>
      </trkpt>
      <trkpt lat="44.89185" lon="4.84483">
        <ele>205</ele>
        <time>2012-09-08T17:52:16Z</time>
      </trkpt>
      <trkpt lat="44.89187" lon="4.84486">
        <ele>205</ele>
        <time>2012-09-08T17:52:17Z</time>
      </trkpt>
      <trkpt lat="44.8919" lon="4.84488">
        <ele>205</ele>
        <time>2012-09-08T17:52:18Z</time>
      </trkpt>
      <trkpt lat="44.89193" lon="4.84489">
        <ele>206</ele>
        <time>2012-09-08T17:52:19Z</time>
      </trkpt>
      <trkpt lat="44.89196" lon="4.84487">
        <ele>206</ele>
        <time>2012-09-08T17:52:20Z</time>
      </trkpt>
      <trkpt lat="44.89199" lon="4.84485">
        <ele>206</ele>
        <time>2012-09-08T17:52:21Z</time>
      </trkpt>
      <trkpt lat="44.89201" lon="4.84483">
        <ele>207</ele>
        <time>2012-09-08T17:52:22Z</time>
      </trkpt>
      <trkpt lat="44.89203" lon="4.84479">
        <ele>207</ele>
        <time>2012-09-08T17:52:23Z</time>
      </trkpt>
      <trkpt lat="44.89216" lon="4.84455">
        <ele>210</ele>
        <time>2012-09-08T17:52:31Z</time>
      </trkpt>
      <trkpt lat="44.89227" lon="4.8444">
        <ele>212</ele>
        <time>2012-09-08T17:52:37Z</time>
      </trkpt>
      <trkpt lat="44.89228" lon="4.84438">
        <ele>212</ele>
        <time>2012-09-08T17:52:38Z</time>
      </trkpt>
      <trkpt lat="44.89228" lon="4.84433">
        <ele>214</ele>
        <time>2012-09-08T17:52:40Z</time>
      </trkpt>
      <trkpt lat="44.89221" lon="4.8442">
        <ele>214</ele>
        <time>2012-09-08T17:52:47Z</time>
      </trkpt>
      <trkpt lat="44.89221" lon="4.8442">
        <ele>214</ele>
        <time>2012-09-08T17:52:55Z</time>
      </trkpt>
      <trkpt lat="44.89219" lon="4.8442">
        <ele>209</ele>
        <time>2012-09-08T17:53:07Z</time>
      </trkpt>
    </trkseg>
  </trk>
</gpx>